<?xml version="1.0" encoding="UTF-8" standalone="no" ?>
<gpx xmlns="http://www.topografix.com/GPX/1/1" xmlns:xsi="http://www.w3.org/2001/XMLSchema-instance" xsi:schemaLocation="http://www.topografix.com/GPX/1/1 http://www.topografix.com/GPX/1/1/gpx.xsd" version="1.1" creator="VisuGPX - https://www.visugpx.com">
  <metadata>
    <name>Revel-tencin-theys-revel</name>
    <desc><![CDATA[File with points/tracks from Locus Map/4.10.0]]></desc>
  </metadata>
  <trk>
    <name><![CDATA[2022-07-02 11:21]]></name>
    <extensions>
      <line xmlns="http://www.topografix.com/GPX/gpx_style/0/2">
        <color>0000FF</color>
        <opacity>0.59</opacity>
        <width>6.0</width>
      </line>
    </extensions>
    <trkseg>
      <trkpt lat="45.2033" lon="5.84778">
        <ele>349.02</ele>
        <time>2022-07-02T09:21:20.000Z</time>
      </trkpt>
      <trkpt lat="45.2031" lon="5.84681">
        <ele>340.78</ele>
        <time>2022-07-02T09:21:25.000Z</time>
      </trkpt>
      <trkpt lat="45.20284" lon="5.84602">
        <ele>338.32</ele>
        <time>2022-07-02T09:21:30.000Z</time>
      </trkpt>
      <trkpt lat="45.20256" lon="5.84502">
        <ele>335.81</ele>
        <time>2022-07-02T09:21:35.000Z</time>
      </trkpt>
      <trkpt lat="45.20233" lon="5.84398">
        <ele>318.46</ele>
        <time>2022-07-02T09:21:40.000Z</time>
      </trkpt>
      <trkpt lat="45.20204" lon="5.84317">
        <ele>309.56</ele>
        <time>2022-07-02T09:21:45.000Z</time>
      </trkpt>
      <trkpt lat="45.20174" lon="5.84229">
        <ele>303.2</ele>
        <time>2022-07-02T09:21:50.000Z</time>
      </trkpt>
      <trkpt lat="45.20146" lon="5.84187">
        <ele>298.46</ele>
        <time>2022-07-02T09:21:55.000Z</time>
      </trkpt>
      <trkpt lat="45.20078" lon="5.84236">
        <ele>294.13</ele>
        <time>2022-07-02T09:22:00.000Z</time>
      </trkpt>
      <trkpt lat="45.20019" lon="5.84251">
        <ele>293.23</ele>
        <time>2022-07-02T09:22:05.000Z</time>
      </trkpt>
      <trkpt lat="45.19992" lon="5.84229">
        <ele>293.28</ele>
        <time>2022-07-02T09:22:10.000Z</time>
      </trkpt>
      <trkpt lat="45.20032" lon="5.84196">
        <ele>293.81</ele>
        <time>2022-07-02T09:22:15.000Z</time>
      </trkpt>
      <trkpt lat="45.20072" lon="5.8416">
        <ele>290.88</ele>
        <time>2022-07-02T09:22:20.000Z</time>
      </trkpt>
      <trkpt lat="45.20093" lon="5.84114">
        <ele>285.61</ele>
        <time>2022-07-02T09:22:25.000Z</time>
      </trkpt>
      <trkpt lat="45.20106" lon="5.84077">
        <ele>269.53</ele>
        <time>2022-07-02T09:22:30.000Z</time>
      </trkpt>
      <trkpt lat="45.20122" lon="5.84064">
        <ele>268.05</ele>
        <time>2022-07-02T09:22:35.000Z</time>
      </trkpt>
      <trkpt lat="45.20135" lon="5.84041">
        <ele>264.93</ele>
        <time>2022-07-02T09:22:40.000Z</time>
      </trkpt>
      <trkpt lat="45.2015" lon="5.84024">
        <ele>255.8</ele>
        <time>2022-07-02T09:22:45.000Z</time>
      </trkpt>
      <trkpt lat="45.20149" lon="5.84009">
        <ele>254.14</ele>
        <time>2022-07-02T09:22:50.000Z</time>
      </trkpt>
      <trkpt lat="45.20143" lon="5.83997">
        <ele>258.47</ele>
        <time>2022-07-02T09:22:56.000Z</time>
      </trkpt>
      <trkpt lat="45.2015" lon="5.83986">
        <ele>256.48</ele>
        <time>2022-07-02T09:23:02.000Z</time>
      </trkpt>
      <trkpt lat="45.20156" lon="5.83975">
        <ele>257.17</ele>
        <time>2022-07-02T09:23:07.000Z</time>
      </trkpt>
      <trkpt lat="45.20162" lon="5.83956">
        <ele>252.86</ele>
        <time>2022-07-02T09:23:12.000Z</time>
      </trkpt>
      <trkpt lat="45.20158" lon="5.83921">
        <ele>253.97</ele>
        <time>2022-07-02T09:23:17.000Z</time>
      </trkpt>
      <trkpt lat="45.20158" lon="5.83889">
        <ele>257.15</ele>
        <time>2022-07-02T09:23:22.000Z</time>
      </trkpt>
      <trkpt lat="45.20164" lon="5.83849">
        <ele>258.66</ele>
        <time>2022-07-02T09:23:27.000Z</time>
      </trkpt>
      <trkpt lat="45.20187" lon="5.83838">
        <ele>252.25</ele>
        <time>2022-07-02T09:23:32.000Z</time>
      </trkpt>
      <trkpt lat="45.2021" lon="5.83828">
        <ele>251.93</ele>
        <time>2022-07-02T09:23:37.000Z</time>
      </trkpt>
      <trkpt lat="45.20241" lon="5.83814">
        <ele>244.52</ele>
        <time>2022-07-02T09:23:42.000Z</time>
      </trkpt>
      <trkpt lat="45.20269" lon="5.83791">
        <ele>243.35</ele>
        <time>2022-07-02T09:23:47.000Z</time>
      </trkpt>
      <trkpt lat="45.20299" lon="5.83762">
        <ele>243.71</ele>
        <time>2022-07-02T09:23:52.000Z</time>
      </trkpt>
      <trkpt lat="45.20333" lon="5.83735">
        <ele>245.31</ele>
        <time>2022-07-02T09:23:57.000Z</time>
      </trkpt>
      <trkpt lat="45.20367" lon="5.83703">
        <ele>245.62</ele>
        <time>2022-07-02T09:24:02.000Z</time>
      </trkpt>
      <trkpt lat="45.20401" lon="5.83672">
        <ele>243.88</ele>
        <time>2022-07-02T09:24:07.000Z</time>
      </trkpt>
      <trkpt lat="45.20432" lon="5.83635">
        <ele>242.22</ele>
        <time>2022-07-02T09:24:12.000Z</time>
      </trkpt>
      <trkpt lat="45.20469" lon="5.836">
        <ele>240.84</ele>
        <time>2022-07-02T09:24:17.000Z</time>
      </trkpt>
      <trkpt lat="45.20501" lon="5.83568">
        <ele>236.33</ele>
        <time>2022-07-02T09:24:22.000Z</time>
      </trkpt>
      <trkpt lat="45.20535" lon="5.83539">
        <ele>236.43</ele>
        <time>2022-07-02T09:24:27.000Z</time>
      </trkpt>
      <trkpt lat="45.20573" lon="5.83513">
        <ele>231.87</ele>
        <time>2022-07-02T09:24:32.000Z</time>
      </trkpt>
      <trkpt lat="45.20608" lon="5.83486">
        <ele>231.79</ele>
        <time>2022-07-02T09:24:37.000Z</time>
      </trkpt>
      <trkpt lat="45.20644" lon="5.83459">
        <ele>231.13</ele>
        <time>2022-07-02T09:24:42.000Z</time>
      </trkpt>
      <trkpt lat="45.20683" lon="5.83441">
        <ele>231.17</ele>
        <time>2022-07-02T09:24:47.000Z</time>
      </trkpt>
      <trkpt lat="45.20716" lon="5.83417">
        <ele>229.13</ele>
        <time>2022-07-02T09:24:52.000Z</time>
      </trkpt>
      <trkpt lat="45.20749" lon="5.83386">
        <ele>223.37</ele>
        <time>2022-07-02T09:24:57.000Z</time>
      </trkpt>
      <trkpt lat="45.20781" lon="5.83357">
        <ele>225.19</ele>
        <time>2022-07-02T09:25:02.000Z</time>
      </trkpt>
      <trkpt lat="45.20817" lon="5.83333">
        <ele>224.07</ele>
        <time>2022-07-02T09:25:07.000Z</time>
      </trkpt>
      <trkpt lat="45.2085" lon="5.83311">
        <ele>221.44</ele>
        <time>2022-07-02T09:25:12.000Z</time>
      </trkpt>
      <trkpt lat="45.20877" lon="5.83286">
        <ele>224.16</ele>
        <time>2022-07-02T09:25:17.000Z</time>
      </trkpt>
      <trkpt lat="45.20902" lon="5.83259">
        <ele>225.01</ele>
        <time>2022-07-02T09:25:22.000Z</time>
      </trkpt>
      <trkpt lat="45.2093" lon="5.83237">
        <ele>227.69</ele>
        <time>2022-07-02T09:25:27.000Z</time>
      </trkpt>
      <trkpt lat="45.20958" lon="5.83223">
        <ele>225.17</ele>
        <time>2022-07-02T09:25:32.000Z</time>
      </trkpt>
      <trkpt lat="45.20982" lon="5.83222">
        <ele>229.34</ele>
        <time>2022-07-02T09:25:37.000Z</time>
      </trkpt>
      <trkpt lat="45.21002" lon="5.83233">
        <ele>229.26</ele>
        <time>2022-07-02T09:25:42.000Z</time>
      </trkpt>
      <trkpt lat="45.21025" lon="5.83253">
        <ele>231.4</ele>
        <time>2022-07-02T09:25:47.000Z</time>
      </trkpt>
      <trkpt lat="45.21056" lon="5.83248">
        <ele>232.14</ele>
        <time>2022-07-02T09:25:52.000Z</time>
      </trkpt>
      <trkpt lat="45.21074" lon="5.83219">
        <ele>231.46</ele>
        <time>2022-07-02T09:25:57.000Z</time>
      </trkpt>
      <trkpt lat="45.21088" lon="5.83186">
        <ele>229.99</ele>
        <time>2022-07-02T09:26:02.000Z</time>
      </trkpt>
      <trkpt lat="45.21108" lon="5.83159">
        <ele>230.95</ele>
        <time>2022-07-02T09:26:07.000Z</time>
      </trkpt>
      <trkpt lat="45.21125" lon="5.83132">
        <ele>230.96</ele>
        <time>2022-07-02T09:26:12.000Z</time>
      </trkpt>
      <trkpt lat="45.21147" lon="5.83105">
        <ele>232.33</ele>
        <time>2022-07-02T09:26:17.000Z</time>
      </trkpt>
      <trkpt lat="45.2116" lon="5.83061">
        <ele>230.16</ele>
        <time>2022-07-02T09:26:22.000Z</time>
      </trkpt>
      <trkpt lat="45.21174" lon="5.83025">
        <ele>228.16</ele>
        <time>2022-07-02T09:26:27.000Z</time>
      </trkpt>
      <trkpt lat="45.21186" lon="5.82985">
        <ele>229.05</ele>
        <time>2022-07-02T09:26:32.000Z</time>
      </trkpt>
      <trkpt lat="45.21204" lon="5.82949">
        <ele>226.25</ele>
        <time>2022-07-02T09:26:37.000Z</time>
      </trkpt>
      <trkpt lat="45.21223" lon="5.82914">
        <ele>224.92</ele>
        <time>2022-07-02T09:26:42.000Z</time>
      </trkpt>
      <trkpt lat="45.21246" lon="5.82885">
        <ele>223.71</ele>
        <time>2022-07-02T09:26:47.000Z</time>
      </trkpt>
      <trkpt lat="45.21259" lon="5.82841">
        <ele>225.3</ele>
        <time>2022-07-02T09:26:52.000Z</time>
      </trkpt>
      <trkpt lat="45.21274" lon="5.82809">
        <ele>221.56</ele>
        <time>2022-07-02T09:26:57.000Z</time>
      </trkpt>
      <trkpt lat="45.21291" lon="5.82806">
        <ele>223.1</ele>
        <time>2022-07-02T09:27:02.000Z</time>
      </trkpt>
      <trkpt lat="45.21278" lon="5.8283">
        <ele>224.5</ele>
        <time>2022-07-02T09:27:07.000Z</time>
      </trkpt>
      <trkpt lat="45.21262" lon="5.82858">
        <ele>227.49</ele>
        <time>2022-07-02T09:27:12.000Z</time>
      </trkpt>
      <trkpt lat="45.21247" lon="5.82892">
        <ele>228.44</ele>
        <time>2022-07-02T09:27:17.000Z</time>
      </trkpt>
      <trkpt lat="45.21232" lon="5.82924">
        <ele>225.36</ele>
        <time>2022-07-02T09:27:22.000Z</time>
      </trkpt>
      <trkpt lat="45.21234" lon="5.82949">
        <ele>225.97</ele>
        <time>2022-07-02T09:27:27.000Z</time>
      </trkpt>
      <trkpt lat="45.21243" lon="5.82959">
        <ele>221.92</ele>
        <time>2022-07-02T09:27:32.000Z</time>
      </trkpt>
      <trkpt lat="45.2124" lon="5.82972">
        <ele>219.52</ele>
        <time>2022-07-02T09:27:40.000Z</time>
      </trkpt>
      <trkpt lat="45.21254" lon="5.82986">
        <ele>220.62</ele>
        <time>2022-07-02T09:27:45.000Z</time>
      </trkpt>
      <trkpt lat="45.21272" lon="5.82999">
        <ele>222.99</ele>
        <time>2022-07-02T09:27:50.000Z</time>
      </trkpt>
      <trkpt lat="45.21289" lon="5.83017">
        <ele>223.83</ele>
        <time>2022-07-02T09:27:55.000Z</time>
      </trkpt>
      <trkpt lat="45.21305" lon="5.83037">
        <ele>225.4</ele>
        <time>2022-07-02T09:28:00.000Z</time>
      </trkpt>
      <trkpt lat="45.21322" lon="5.83057">
        <ele>225.35</ele>
        <time>2022-07-02T09:28:05.000Z</time>
      </trkpt>
      <trkpt lat="45.21337" lon="5.83076">
        <ele>227.81</ele>
        <time>2022-07-02T09:28:10.000Z</time>
      </trkpt>
      <trkpt lat="45.21356" lon="5.83094">
        <ele>229.86</ele>
        <time>2022-07-02T09:28:15.000Z</time>
      </trkpt>
      <trkpt lat="45.21379" lon="5.83109">
        <ele>229.54</ele>
        <time>2022-07-02T09:28:20.000Z</time>
      </trkpt>
      <trkpt lat="45.21401" lon="5.83125">
        <ele>231.16</ele>
        <time>2022-07-02T09:28:25.000Z</time>
      </trkpt>
      <trkpt lat="45.21413" lon="5.83142">
        <ele>228.39</ele>
        <time>2022-07-02T09:28:30.000Z</time>
      </trkpt>
      <trkpt lat="45.21426" lon="5.83157">
        <ele>228.73</ele>
        <time>2022-07-02T09:28:35.000Z</time>
      </trkpt>
      <trkpt lat="45.21439" lon="5.83169">
        <ele>229.46</ele>
        <time>2022-07-02T09:28:40.000Z</time>
      </trkpt>
      <trkpt lat="45.21452" lon="5.83182">
        <ele>230.87</ele>
        <time>2022-07-02T09:28:45.000Z</time>
      </trkpt>
      <trkpt lat="45.21466" lon="5.83199">
        <ele>229.69</ele>
        <time>2022-07-02T09:28:50.000Z</time>
      </trkpt>
      <trkpt lat="45.21474" lon="5.83214">
        <ele>226.27</ele>
        <time>2022-07-02T09:29:23.000Z</time>
      </trkpt>
      <trkpt lat="45.21491" lon="5.83238">
        <ele>224.42</ele>
        <time>2022-07-02T09:29:28.000Z</time>
      </trkpt>
      <trkpt lat="45.21503" lon="5.83263">
        <ele>221.47</ele>
        <time>2022-07-02T09:29:33.000Z</time>
      </trkpt>
      <trkpt lat="45.21524" lon="5.83285">
        <ele>225.1</ele>
        <time>2022-07-02T09:29:38.000Z</time>
      </trkpt>
      <trkpt lat="45.21545" lon="5.83308">
        <ele>227.3</ele>
        <time>2022-07-02T09:29:43.000Z</time>
      </trkpt>
      <trkpt lat="45.21564" lon="5.83332">
        <ele>228.53</ele>
        <time>2022-07-02T09:29:48.000Z</time>
      </trkpt>
      <trkpt lat="45.21577" lon="5.83364">
        <ele>226.83</ele>
        <time>2022-07-02T09:29:53.000Z</time>
      </trkpt>
      <trkpt lat="45.21594" lon="5.83395">
        <ele>224.72</ele>
        <time>2022-07-02T09:29:58.000Z</time>
      </trkpt>
      <trkpt lat="45.21614" lon="5.83424">
        <ele>223.31</ele>
        <time>2022-07-02T09:30:03.000Z</time>
      </trkpt>
      <trkpt lat="45.21632" lon="5.83458">
        <ele>220.94</ele>
        <time>2022-07-02T09:30:08.000Z</time>
      </trkpt>
      <trkpt lat="45.2165" lon="5.83492">
        <ele>220.97</ele>
        <time>2022-07-02T09:30:13.000Z</time>
      </trkpt>
      <trkpt lat="45.21668" lon="5.83521">
        <ele>222.21</ele>
        <time>2022-07-02T09:30:18.000Z</time>
      </trkpt>
      <trkpt lat="45.21687" lon="5.83551">
        <ele>221.7</ele>
        <time>2022-07-02T09:30:23.000Z</time>
      </trkpt>
      <trkpt lat="45.21703" lon="5.83583">
        <ele>220.02</ele>
        <time>2022-07-02T09:30:28.000Z</time>
      </trkpt>
      <trkpt lat="45.21719" lon="5.83616">
        <ele>220.58</ele>
        <time>2022-07-02T09:30:33.000Z</time>
      </trkpt>
      <trkpt lat="45.21737" lon="5.83648">
        <ele>220.36</ele>
        <time>2022-07-02T09:30:38.000Z</time>
      </trkpt>
      <trkpt lat="45.21757" lon="5.8368">
        <ele>220.04</ele>
        <time>2022-07-02T09:30:43.000Z</time>
      </trkpt>
      <trkpt lat="45.21775" lon="5.8371">
        <ele>218.97</ele>
        <time>2022-07-02T09:30:48.000Z</time>
      </trkpt>
      <trkpt lat="45.21789" lon="5.83749">
        <ele>219.42</ele>
        <time>2022-07-02T09:30:53.000Z</time>
      </trkpt>
      <trkpt lat="45.2181" lon="5.83781">
        <ele>218.77</ele>
        <time>2022-07-02T09:30:58.000Z</time>
      </trkpt>
      <trkpt lat="45.21835" lon="5.83812">
        <ele>220.18</ele>
        <time>2022-07-02T09:31:03.000Z</time>
      </trkpt>
      <trkpt lat="45.21858" lon="5.83841">
        <ele>219.14</ele>
        <time>2022-07-02T09:31:08.000Z</time>
      </trkpt>
      <trkpt lat="45.21881" lon="5.83865">
        <ele>219.48</ele>
        <time>2022-07-02T09:31:13.000Z</time>
      </trkpt>
      <trkpt lat="45.21898" lon="5.83895">
        <ele>219.39</ele>
        <time>2022-07-02T09:31:18.000Z</time>
      </trkpt>
      <trkpt lat="45.2191" lon="5.83926">
        <ele>217.05</ele>
        <time>2022-07-02T09:31:23.000Z</time>
      </trkpt>
      <trkpt lat="45.21923" lon="5.83953">
        <ele>216.61</ele>
        <time>2022-07-02T09:31:28.000Z</time>
      </trkpt>
      <trkpt lat="45.21941" lon="5.83976">
        <ele>213.76</ele>
        <time>2022-07-02T09:31:33.000Z</time>
      </trkpt>
      <trkpt lat="45.2196" lon="5.84002">
        <ele>210.65</ele>
        <time>2022-07-02T09:31:38.000Z</time>
      </trkpt>
      <trkpt lat="45.21978" lon="5.84034">
        <ele>210.73</ele>
        <time>2022-07-02T09:31:43.000Z</time>
      </trkpt>
      <trkpt lat="45.21996" lon="5.84066">
        <ele>210.51</ele>
        <time>2022-07-02T09:31:48.000Z</time>
      </trkpt>
      <trkpt lat="45.22019" lon="5.84092">
        <ele>212.96</ele>
        <time>2022-07-02T09:31:53.000Z</time>
      </trkpt>
      <trkpt lat="45.22039" lon="5.8412">
        <ele>214.65</ele>
        <time>2022-07-02T09:31:58.000Z</time>
      </trkpt>
      <trkpt lat="45.22062" lon="5.84139">
        <ele>214.72</ele>
        <time>2022-07-02T09:32:03.000Z</time>
      </trkpt>
      <trkpt lat="45.22088" lon="5.84155">
        <ele>214.33</ele>
        <time>2022-07-02T09:32:08.000Z</time>
      </trkpt>
      <trkpt lat="45.22112" lon="5.84179">
        <ele>216.48</ele>
        <time>2022-07-02T09:32:13.000Z</time>
      </trkpt>
      <trkpt lat="45.2213" lon="5.84202">
        <ele>218.12</ele>
        <time>2022-07-02T09:32:18.000Z</time>
      </trkpt>
      <trkpt lat="45.2215" lon="5.84238">
        <ele>219.72</ele>
        <time>2022-07-02T09:32:23.000Z</time>
      </trkpt>
      <trkpt lat="45.22173" lon="5.84267">
        <ele>218.94</ele>
        <time>2022-07-02T09:32:28.000Z</time>
      </trkpt>
      <trkpt lat="45.22188" lon="5.843">
        <ele>218.52</ele>
        <time>2022-07-02T09:32:33.000Z</time>
      </trkpt>
      <trkpt lat="45.22208" lon="5.84329">
        <ele>219.39</ele>
        <time>2022-07-02T09:32:38.000Z</time>
      </trkpt>
      <trkpt lat="45.22234" lon="5.84343">
        <ele>215.21</ele>
        <time>2022-07-02T09:32:43.000Z</time>
      </trkpt>
      <trkpt lat="45.22261" lon="5.8437">
        <ele>215.68</ele>
        <time>2022-07-02T09:32:48.000Z</time>
      </trkpt>
      <trkpt lat="45.22284" lon="5.84396">
        <ele>216.9</ele>
        <time>2022-07-02T09:32:53.000Z</time>
      </trkpt>
      <trkpt lat="45.22307" lon="5.84427">
        <ele>220.55</ele>
        <time>2022-07-02T09:32:58.000Z</time>
      </trkpt>
      <trkpt lat="45.22329" lon="5.84451">
        <ele>218.5</ele>
        <time>2022-07-02T09:33:03.000Z</time>
      </trkpt>
      <trkpt lat="45.22357" lon="5.84473">
        <ele>222.7</ele>
        <time>2022-07-02T09:33:08.000Z</time>
      </trkpt>
      <trkpt lat="45.22378" lon="5.84498">
        <ele>223.9</ele>
        <time>2022-07-02T09:33:13.000Z</time>
      </trkpt>
      <trkpt lat="45.22398" lon="5.84524">
        <ele>224.66</ele>
        <time>2022-07-02T09:33:18.000Z</time>
      </trkpt>
      <trkpt lat="45.22422" lon="5.84555">
        <ele>223.95</ele>
        <time>2022-07-02T09:33:23.000Z</time>
      </trkpt>
      <trkpt lat="45.2244" lon="5.84583">
        <ele>221.53</ele>
        <time>2022-07-02T09:33:28.000Z</time>
      </trkpt>
      <trkpt lat="45.22462" lon="5.84611">
        <ele>223.39</ele>
        <time>2022-07-02T09:33:33.000Z</time>
      </trkpt>
      <trkpt lat="45.22483" lon="5.8464">
        <ele>223.86</ele>
        <time>2022-07-02T09:33:38.000Z</time>
      </trkpt>
      <trkpt lat="45.22504" lon="5.84666">
        <ele>223.01</ele>
        <time>2022-07-02T09:33:43.000Z</time>
      </trkpt>
      <trkpt lat="45.22526" lon="5.84692">
        <ele>222.39</ele>
        <time>2022-07-02T09:33:48.000Z</time>
      </trkpt>
      <trkpt lat="45.2254" lon="5.84723">
        <ele>220.03</ele>
        <time>2022-07-02T09:33:53.000Z</time>
      </trkpt>
      <trkpt lat="45.22557" lon="5.84753">
        <ele>219.56</ele>
        <time>2022-07-02T09:33:58.000Z</time>
      </trkpt>
      <trkpt lat="45.22581" lon="5.8478">
        <ele>217.53</ele>
        <time>2022-07-02T09:34:03.000Z</time>
      </trkpt>
      <trkpt lat="45.22607" lon="5.84807">
        <ele>220.36</ele>
        <time>2022-07-02T09:34:08.000Z</time>
      </trkpt>
      <trkpt lat="45.22631" lon="5.84834">
        <ele>225.17</ele>
        <time>2022-07-02T09:34:13.000Z</time>
      </trkpt>
      <trkpt lat="45.22655" lon="5.84859">
        <ele>223.84</ele>
        <time>2022-07-02T09:34:18.000Z</time>
      </trkpt>
      <trkpt lat="45.22679" lon="5.84888">
        <ele>225.74</ele>
        <time>2022-07-02T09:34:23.000Z</time>
      </trkpt>
      <trkpt lat="45.22699" lon="5.84917">
        <ele>224.43</ele>
        <time>2022-07-02T09:34:28.000Z</time>
      </trkpt>
      <trkpt lat="45.2272" lon="5.84943">
        <ele>225.76</ele>
        <time>2022-07-02T09:34:33.000Z</time>
      </trkpt>
      <trkpt lat="45.22744" lon="5.84969">
        <ele>225.31</ele>
        <time>2022-07-02T09:34:38.000Z</time>
      </trkpt>
      <trkpt lat="45.22762" lon="5.85">
        <ele>225.93</ele>
        <time>2022-07-02T09:34:43.000Z</time>
      </trkpt>
      <trkpt lat="45.22788" lon="5.85025">
        <ele>225.48</ele>
        <time>2022-07-02T09:34:48.000Z</time>
      </trkpt>
      <trkpt lat="45.22809" lon="5.8505">
        <ele>224.33</ele>
        <time>2022-07-02T09:34:53.000Z</time>
      </trkpt>
      <trkpt lat="45.22827" lon="5.85074">
        <ele>225.47</ele>
        <time>2022-07-02T09:34:58.000Z</time>
      </trkpt>
      <trkpt lat="45.22849" lon="5.85102">
        <ele>225.39</ele>
        <time>2022-07-02T09:35:03.000Z</time>
      </trkpt>
      <trkpt lat="45.2287" lon="5.85129">
        <ele>224.1</ele>
        <time>2022-07-02T09:35:08.000Z</time>
      </trkpt>
      <trkpt lat="45.22888" lon="5.85156">
        <ele>218.37</ele>
        <time>2022-07-02T09:35:13.000Z</time>
      </trkpt>
      <trkpt lat="45.22914" lon="5.85184">
        <ele>222.71</ele>
        <time>2022-07-02T09:35:18.000Z</time>
      </trkpt>
      <trkpt lat="45.22936" lon="5.85203">
        <ele>222.33</ele>
        <time>2022-07-02T09:35:23.000Z</time>
      </trkpt>
      <trkpt lat="45.22957" lon="5.85229">
        <ele>220.56</ele>
        <time>2022-07-02T09:35:28.000Z</time>
      </trkpt>
      <trkpt lat="45.22975" lon="5.85258">
        <ele>221.94</ele>
        <time>2022-07-02T09:35:33.000Z</time>
      </trkpt>
      <trkpt lat="45.22995" lon="5.8528">
        <ele>221.16</ele>
        <time>2022-07-02T09:35:38.000Z</time>
      </trkpt>
      <trkpt lat="45.23016" lon="5.85305">
        <ele>222.12</ele>
        <time>2022-07-02T09:35:43.000Z</time>
      </trkpt>
      <trkpt lat="45.2303" lon="5.85341">
        <ele>224.16</ele>
        <time>2022-07-02T09:35:48.000Z</time>
      </trkpt>
      <trkpt lat="45.2305" lon="5.85378">
        <ele>227.35</ele>
        <time>2022-07-02T09:35:53.000Z</time>
      </trkpt>
      <trkpt lat="45.2308" lon="5.85404">
        <ele>224.49</ele>
        <time>2022-07-02T09:35:58.000Z</time>
      </trkpt>
      <trkpt lat="45.23099" lon="5.8542">
        <ele>219.69</ele>
        <time>2022-07-02T09:36:03.000Z</time>
      </trkpt>
      <trkpt lat="45.23113" lon="5.85433">
        <ele>218.61</ele>
        <time>2022-07-02T09:36:08.000Z</time>
      </trkpt>
      <trkpt lat="45.23133" lon="5.85452">
        <ele>217.95</ele>
        <time>2022-07-02T09:36:13.000Z</time>
      </trkpt>
      <trkpt lat="45.23153" lon="5.85464">
        <ele>218.88</ele>
        <time>2022-07-02T09:36:18.000Z</time>
      </trkpt>
      <trkpt lat="45.23174" lon="5.85475">
        <ele>216.89</ele>
        <time>2022-07-02T09:36:23.000Z</time>
      </trkpt>
      <trkpt lat="45.23202" lon="5.85487">
        <ele>218.35</ele>
        <time>2022-07-02T09:36:28.000Z</time>
      </trkpt>
      <trkpt lat="45.23228" lon="5.85493">
        <ele>220.36</ele>
        <time>2022-07-02T09:36:33.000Z</time>
      </trkpt>
      <trkpt lat="45.23253" lon="5.85491">
        <ele>216.71</ele>
        <time>2022-07-02T09:36:38.000Z</time>
      </trkpt>
      <trkpt lat="45.23278" lon="5.85492">
        <ele>219.05</ele>
        <time>2022-07-02T09:36:43.000Z</time>
      </trkpt>
      <trkpt lat="45.23304" lon="5.85494">
        <ele>217</ele>
        <time>2022-07-02T09:36:48.000Z</time>
      </trkpt>
      <trkpt lat="45.23329" lon="5.85492">
        <ele>216.6</ele>
        <time>2022-07-02T09:36:53.000Z</time>
      </trkpt>
      <trkpt lat="45.23356" lon="5.85494">
        <ele>216.48</ele>
        <time>2022-07-02T09:36:58.000Z</time>
      </trkpt>
      <trkpt lat="45.23381" lon="5.85495">
        <ele>220.29</ele>
        <time>2022-07-02T09:37:03.000Z</time>
      </trkpt>
      <trkpt lat="45.23411" lon="5.85491">
        <ele>221.39</ele>
        <time>2022-07-02T09:37:08.000Z</time>
      </trkpt>
      <trkpt lat="45.23443" lon="5.85502">
        <ele>222.26</ele>
        <time>2022-07-02T09:37:13.000Z</time>
      </trkpt>
      <trkpt lat="45.23475" lon="5.85506">
        <ele>221.33</ele>
        <time>2022-07-02T09:37:18.000Z</time>
      </trkpt>
      <trkpt lat="45.23509" lon="5.85506">
        <ele>218.87</ele>
        <time>2022-07-02T09:37:23.000Z</time>
      </trkpt>
      <trkpt lat="45.23537" lon="5.85505">
        <ele>219.19</ele>
        <time>2022-07-02T09:37:28.000Z</time>
      </trkpt>
      <trkpt lat="45.23564" lon="5.85497">
        <ele>218.87</ele>
        <time>2022-07-02T09:37:33.000Z</time>
      </trkpt>
      <trkpt lat="45.23573" lon="5.85468">
        <ele>223.14</ele>
        <time>2022-07-02T09:37:38.000Z</time>
      </trkpt>
      <trkpt lat="45.23591" lon="5.85446">
        <ele>224.72</ele>
        <time>2022-07-02T09:37:43.000Z</time>
      </trkpt>
      <trkpt lat="45.23615" lon="5.85442">
        <ele>222.92</ele>
        <time>2022-07-02T09:37:48.000Z</time>
      </trkpt>
      <trkpt lat="45.23644" lon="5.85438">
        <ele>222.97</ele>
        <time>2022-07-02T09:37:53.000Z</time>
      </trkpt>
      <trkpt lat="45.23676" lon="5.85434">
        <ele>222</ele>
        <time>2022-07-02T09:37:58.000Z</time>
      </trkpt>
      <trkpt lat="45.2371" lon="5.85431">
        <ele>221.93</ele>
        <time>2022-07-02T09:38:03.000Z</time>
      </trkpt>
      <trkpt lat="45.23743" lon="5.85427">
        <ele>222.17</ele>
        <time>2022-07-02T09:38:08.000Z</time>
      </trkpt>
      <trkpt lat="45.2378" lon="5.85424">
        <ele>221.25</ele>
        <time>2022-07-02T09:38:13.000Z</time>
      </trkpt>
      <trkpt lat="45.23814" lon="5.85418">
        <ele>221.75</ele>
        <time>2022-07-02T09:38:18.000Z</time>
      </trkpt>
      <trkpt lat="45.23847" lon="5.85411">
        <ele>221.95</ele>
        <time>2022-07-02T09:38:23.000Z</time>
      </trkpt>
      <trkpt lat="45.23874" lon="5.85407">
        <ele>220.07</ele>
        <time>2022-07-02T09:38:28.000Z</time>
      </trkpt>
      <trkpt lat="45.23905" lon="5.85403">
        <ele>218.91</ele>
        <time>2022-07-02T09:38:33.000Z</time>
      </trkpt>
      <trkpt lat="45.23935" lon="5.85397">
        <ele>218.39</ele>
        <time>2022-07-02T09:38:38.000Z</time>
      </trkpt>
      <trkpt lat="45.23962" lon="5.8537">
        <ele>218.82</ele>
        <time>2022-07-02T09:38:43.000Z</time>
      </trkpt>
      <trkpt lat="45.23987" lon="5.85345">
        <ele>219.32</ele>
        <time>2022-07-02T09:38:48.000Z</time>
      </trkpt>
      <trkpt lat="45.24003" lon="5.85317">
        <ele>221.74</ele>
        <time>2022-07-02T09:38:53.000Z</time>
      </trkpt>
      <trkpt lat="45.24018" lon="5.85319">
        <ele>221.98</ele>
        <time>2022-07-02T09:38:58.000Z</time>
      </trkpt>
      <trkpt lat="45.24037" lon="5.85345">
        <ele>220.45</ele>
        <time>2022-07-02T09:39:03.000Z</time>
      </trkpt>
      <trkpt lat="45.24053" lon="5.85387">
        <ele>222.44</ele>
        <time>2022-07-02T09:39:08.000Z</time>
      </trkpt>
      <trkpt lat="45.2407" lon="5.85405">
        <ele>225.67</ele>
        <time>2022-07-02T09:39:13.000Z</time>
      </trkpt>
      <trkpt lat="45.24087" lon="5.85421">
        <ele>228.32</ele>
        <time>2022-07-02T09:39:18.000Z</time>
      </trkpt>
      <trkpt lat="45.24103" lon="5.85422">
        <ele>230.86</ele>
        <time>2022-07-02T09:39:23.000Z</time>
      </trkpt>
      <trkpt lat="45.24116" lon="5.85408">
        <ele>231.28</ele>
        <time>2022-07-02T09:39:28.000Z</time>
      </trkpt>
      <trkpt lat="45.24132" lon="5.85409">
        <ele>230.31</ele>
        <time>2022-07-02T09:39:33.000Z</time>
      </trkpt>
      <trkpt lat="45.24148" lon="5.8541">
        <ele>232.26</ele>
        <time>2022-07-02T09:39:38.000Z</time>
      </trkpt>
      <trkpt lat="45.24163" lon="5.85406">
        <ele>231.61</ele>
        <time>2022-07-02T09:39:43.000Z</time>
      </trkpt>
      <trkpt lat="45.24173" lon="5.854">
        <ele>230.49</ele>
        <time>2022-07-02T09:39:48.000Z</time>
      </trkpt>
      <trkpt lat="45.24181" lon="5.85413">
        <ele>232.6</ele>
        <time>2022-07-02T09:39:53.000Z</time>
      </trkpt>
      <trkpt lat="45.24183" lon="5.85436">
        <ele>228.13</ele>
        <time>2022-07-02T09:39:58.000Z</time>
      </trkpt>
      <trkpt lat="45.2419" lon="5.85468">
        <ele>225.97</ele>
        <time>2022-07-02T09:40:03.000Z</time>
      </trkpt>
      <trkpt lat="45.24197" lon="5.85499">
        <ele>222.99</ele>
        <time>2022-07-02T09:40:08.000Z</time>
      </trkpt>
      <trkpt lat="45.24207" lon="5.85532">
        <ele>221.52</ele>
        <time>2022-07-02T09:40:13.000Z</time>
      </trkpt>
      <trkpt lat="45.24216" lon="5.85563">
        <ele>220.44</ele>
        <time>2022-07-02T09:40:18.000Z</time>
      </trkpt>
      <trkpt lat="45.24219" lon="5.8558">
        <ele>219.64</ele>
        <time>2022-07-02T09:40:23.000Z</time>
      </trkpt>
      <trkpt lat="45.24225" lon="5.85594">
        <ele>220.54</ele>
        <time>2022-07-02T09:40:45.000Z</time>
      </trkpt>
      <trkpt lat="45.2423" lon="5.85604">
        <ele>218.47</ele>
        <time>2022-07-02T09:40:58.000Z</time>
      </trkpt>
      <trkpt lat="45.24223" lon="5.8559">
        <ele>214.34</ele>
        <time>2022-07-02T09:41:14.000Z</time>
      </trkpt>
      <trkpt lat="45.24203" lon="5.85596">
        <ele>218.19</ele>
        <time>2022-07-02T09:41:19.000Z</time>
      </trkpt>
      <trkpt lat="45.24186" lon="5.85609">
        <ele>219.78</ele>
        <time>2022-07-02T09:41:24.000Z</time>
      </trkpt>
      <trkpt lat="45.24174" lon="5.85613">
        <ele>222.84</ele>
        <time>2022-07-02T09:41:29.000Z</time>
      </trkpt>
      <trkpt lat="45.24159" lon="5.85622">
        <ele>223.63</ele>
        <time>2022-07-02T09:41:34.000Z</time>
      </trkpt>
      <trkpt lat="45.24142" lon="5.85638">
        <ele>221.21</ele>
        <time>2022-07-02T09:41:39.000Z</time>
      </trkpt>
      <trkpt lat="45.24128" lon="5.85675">
        <ele>220.52</ele>
        <time>2022-07-02T09:41:44.000Z</time>
      </trkpt>
      <trkpt lat="45.24119" lon="5.85711">
        <ele>222.32</ele>
        <time>2022-07-02T09:41:49.000Z</time>
      </trkpt>
      <trkpt lat="45.24116" lon="5.85741">
        <ele>219.67</ele>
        <time>2022-07-02T09:41:54.000Z</time>
      </trkpt>
      <trkpt lat="45.24127" lon="5.85765">
        <ele>220.77</ele>
        <time>2022-07-02T09:41:59.000Z</time>
      </trkpt>
      <trkpt lat="45.24136" lon="5.85793">
        <ele>217.66</ele>
        <time>2022-07-02T09:42:04.000Z</time>
      </trkpt>
      <trkpt lat="45.24147" lon="5.85818">
        <ele>218.71</ele>
        <time>2022-07-02T09:42:09.000Z</time>
      </trkpt>
      <trkpt lat="45.24161" lon="5.85845">
        <ele>220.76</ele>
        <time>2022-07-02T09:42:14.000Z</time>
      </trkpt>
      <trkpt lat="45.24175" lon="5.85873">
        <ele>220.02</ele>
        <time>2022-07-02T09:42:19.000Z</time>
      </trkpt>
      <trkpt lat="45.24187" lon="5.85905">
        <ele>221.21</ele>
        <time>2022-07-02T09:42:24.000Z</time>
      </trkpt>
      <trkpt lat="45.242" lon="5.85932">
        <ele>223.06</ele>
        <time>2022-07-02T09:42:29.000Z</time>
      </trkpt>
      <trkpt lat="45.24211" lon="5.85959">
        <ele>222.2</ele>
        <time>2022-07-02T09:42:34.000Z</time>
      </trkpt>
      <trkpt lat="45.24224" lon="5.85987">
        <ele>221.57</ele>
        <time>2022-07-02T09:42:39.000Z</time>
      </trkpt>
      <trkpt lat="45.24245" lon="5.86017">
        <ele>221.64</ele>
        <time>2022-07-02T09:42:44.000Z</time>
      </trkpt>
      <trkpt lat="45.24255" lon="5.86044">
        <ele>222.11</ele>
        <time>2022-07-02T09:42:49.000Z</time>
      </trkpt>
      <trkpt lat="45.24273" lon="5.86066">
        <ele>223.51</ele>
        <time>2022-07-02T09:42:54.000Z</time>
      </trkpt>
      <trkpt lat="45.24281" lon="5.86087">
        <ele>222</ele>
        <time>2022-07-02T09:42:59.000Z</time>
      </trkpt>
      <trkpt lat="45.2429" lon="5.86109">
        <ele>220.71</ele>
        <time>2022-07-02T09:43:04.000Z</time>
      </trkpt>
      <trkpt lat="45.24304" lon="5.86133">
        <ele>223.24</ele>
        <time>2022-07-02T09:43:09.000Z</time>
      </trkpt>
      <trkpt lat="45.24317" lon="5.86161">
        <ele>225.27</ele>
        <time>2022-07-02T09:43:14.000Z</time>
      </trkpt>
      <trkpt lat="45.24332" lon="5.86185">
        <ele>225.34</ele>
        <time>2022-07-02T09:43:19.000Z</time>
      </trkpt>
      <trkpt lat="45.24347" lon="5.86213">
        <ele>227.06</ele>
        <time>2022-07-02T09:43:24.000Z</time>
      </trkpt>
      <trkpt lat="45.24364" lon="5.86237">
        <ele>227.93</ele>
        <time>2022-07-02T09:43:29.000Z</time>
      </trkpt>
      <trkpt lat="45.24378" lon="5.86269">
        <ele>229.07</ele>
        <time>2022-07-02T09:43:34.000Z</time>
      </trkpt>
      <trkpt lat="45.24398" lon="5.86302">
        <ele>227.52</ele>
        <time>2022-07-02T09:43:39.000Z</time>
      </trkpt>
      <trkpt lat="45.24414" lon="5.86332">
        <ele>227.73</ele>
        <time>2022-07-02T09:43:44.000Z</time>
      </trkpt>
      <trkpt lat="45.24423" lon="5.86362">
        <ele>221.58</ele>
        <time>2022-07-02T09:43:49.000Z</time>
      </trkpt>
      <trkpt lat="45.24443" lon="5.86391">
        <ele>226.18</ele>
        <time>2022-07-02T09:43:54.000Z</time>
      </trkpt>
      <trkpt lat="45.24464" lon="5.86418">
        <ele>229.76</ele>
        <time>2022-07-02T09:43:59.000Z</time>
      </trkpt>
      <trkpt lat="45.24483" lon="5.86443">
        <ele>227.49</ele>
        <time>2022-07-02T09:44:04.000Z</time>
      </trkpt>
      <trkpt lat="45.24501" lon="5.86466">
        <ele>223.44</ele>
        <time>2022-07-02T09:44:09.000Z</time>
      </trkpt>
      <trkpt lat="45.24523" lon="5.86479">
        <ele>225.1</ele>
        <time>2022-07-02T09:44:14.000Z</time>
      </trkpt>
      <trkpt lat="45.24541" lon="5.86503">
        <ele>225.84</ele>
        <time>2022-07-02T09:44:19.000Z</time>
      </trkpt>
      <trkpt lat="45.24554" lon="5.86534">
        <ele>225.19</ele>
        <time>2022-07-02T09:44:24.000Z</time>
      </trkpt>
      <trkpt lat="45.2457" lon="5.86565">
        <ele>226.23</ele>
        <time>2022-07-02T09:44:29.000Z</time>
      </trkpt>
      <trkpt lat="45.2458" lon="5.86597">
        <ele>225.96</ele>
        <time>2022-07-02T09:44:34.000Z</time>
      </trkpt>
      <trkpt lat="45.24593" lon="5.86635">
        <ele>226.22</ele>
        <time>2022-07-02T09:44:39.000Z</time>
      </trkpt>
      <trkpt lat="45.24608" lon="5.86666">
        <ele>227.01</ele>
        <time>2022-07-02T09:44:44.000Z</time>
      </trkpt>
      <trkpt lat="45.24622" lon="5.86697">
        <ele>225.81</ele>
        <time>2022-07-02T09:44:49.000Z</time>
      </trkpt>
      <trkpt lat="45.24636" lon="5.8673">
        <ele>230.06</ele>
        <time>2022-07-02T09:44:54.000Z</time>
      </trkpt>
      <trkpt lat="45.24651" lon="5.86762">
        <ele>227.32</ele>
        <time>2022-07-02T09:44:59.000Z</time>
      </trkpt>
      <trkpt lat="45.24666" lon="5.86796">
        <ele>226.51</ele>
        <time>2022-07-02T09:45:04.000Z</time>
      </trkpt>
      <trkpt lat="45.24682" lon="5.86825">
        <ele>226.53</ele>
        <time>2022-07-02T09:45:09.000Z</time>
      </trkpt>
      <trkpt lat="45.24697" lon="5.86855">
        <ele>226.85</ele>
        <time>2022-07-02T09:45:14.000Z</time>
      </trkpt>
      <trkpt lat="45.24713" lon="5.86887">
        <ele>229.06</ele>
        <time>2022-07-02T09:45:19.000Z</time>
      </trkpt>
      <trkpt lat="45.24728" lon="5.8692">
        <ele>229.25</ele>
        <time>2022-07-02T09:45:24.000Z</time>
      </trkpt>
      <trkpt lat="45.24744" lon="5.8695">
        <ele>229</ele>
        <time>2022-07-02T09:45:29.000Z</time>
      </trkpt>
      <trkpt lat="45.24757" lon="5.86982">
        <ele>226.52</ele>
        <time>2022-07-02T09:45:34.000Z</time>
      </trkpt>
      <trkpt lat="45.24772" lon="5.87015">
        <ele>226.05</ele>
        <time>2022-07-02T09:45:39.000Z</time>
      </trkpt>
      <trkpt lat="45.24784" lon="5.87049">
        <ele>224.83</ele>
        <time>2022-07-02T09:45:44.000Z</time>
      </trkpt>
      <trkpt lat="45.24799" lon="5.87079">
        <ele>226.99</ele>
        <time>2022-07-02T09:45:49.000Z</time>
      </trkpt>
      <trkpt lat="45.2482" lon="5.87112">
        <ele>228.87</ele>
        <time>2022-07-02T09:45:54.000Z</time>
      </trkpt>
      <trkpt lat="45.24838" lon="5.87145">
        <ele>226.54</ele>
        <time>2022-07-02T09:45:59.000Z</time>
      </trkpt>
      <trkpt lat="45.24856" lon="5.87178">
        <ele>227.27</ele>
        <time>2022-07-02T09:46:04.000Z</time>
      </trkpt>
      <trkpt lat="45.24873" lon="5.87213">
        <ele>230.52</ele>
        <time>2022-07-02T09:46:09.000Z</time>
      </trkpt>
      <trkpt lat="45.24889" lon="5.87246">
        <ele>228.51</ele>
        <time>2022-07-02T09:46:14.000Z</time>
      </trkpt>
      <trkpt lat="45.24906" lon="5.87276">
        <ele>227.18</ele>
        <time>2022-07-02T09:46:19.000Z</time>
      </trkpt>
      <trkpt lat="45.24922" lon="5.87306">
        <ele>227.69</ele>
        <time>2022-07-02T09:46:24.000Z</time>
      </trkpt>
      <trkpt lat="45.24917" lon="5.87339">
        <ele>228.03</ele>
        <time>2022-07-02T09:46:29.000Z</time>
      </trkpt>
      <trkpt lat="45.24898" lon="5.87364">
        <ele>228.85</ele>
        <time>2022-07-02T09:46:34.000Z</time>
      </trkpt>
      <trkpt lat="45.24878" lon="5.87388">
        <ele>227.4</ele>
        <time>2022-07-02T09:46:39.000Z</time>
      </trkpt>
      <trkpt lat="45.24861" lon="5.87413">
        <ele>227.56</ele>
        <time>2022-07-02T09:46:44.000Z</time>
      </trkpt>
      <trkpt lat="45.24844" lon="5.87439">
        <ele>226.91</ele>
        <time>2022-07-02T09:46:49.000Z</time>
      </trkpt>
      <trkpt lat="45.24826" lon="5.87463">
        <ele>228.01</ele>
        <time>2022-07-02T09:46:54.000Z</time>
      </trkpt>
      <trkpt lat="45.2481" lon="5.87487">
        <ele>227.26</ele>
        <time>2022-07-02T09:46:59.000Z</time>
      </trkpt>
      <trkpt lat="45.24824" lon="5.87506">
        <ele>228.12</ele>
        <time>2022-07-02T09:47:04.000Z</time>
      </trkpt>
      <trkpt lat="45.24847" lon="5.8751">
        <ele>229.76</ele>
        <time>2022-07-02T09:47:09.000Z</time>
      </trkpt>
      <trkpt lat="45.2487" lon="5.8751">
        <ele>228.87</ele>
        <time>2022-07-02T09:47:14.000Z</time>
      </trkpt>
      <trkpt lat="45.24893" lon="5.87513">
        <ele>227.94</ele>
        <time>2022-07-02T09:47:19.000Z</time>
      </trkpt>
      <trkpt lat="45.24917" lon="5.87516">
        <ele>226.15</ele>
        <time>2022-07-02T09:47:24.000Z</time>
      </trkpt>
      <trkpt lat="45.24939" lon="5.87512">
        <ele>227.96</ele>
        <time>2022-07-02T09:47:29.000Z</time>
      </trkpt>
      <trkpt lat="45.24956" lon="5.87508">
        <ele>226.68</ele>
        <time>2022-07-02T09:47:34.000Z</time>
      </trkpt>
      <trkpt lat="45.24975" lon="5.875">
        <ele>226.03</ele>
        <time>2022-07-02T09:47:39.000Z</time>
      </trkpt>
      <trkpt lat="45.24995" lon="5.87484">
        <ele>226.76</ele>
        <time>2022-07-02T09:47:44.000Z</time>
      </trkpt>
      <trkpt lat="45.2501" lon="5.87468">
        <ele>228</ele>
        <time>2022-07-02T09:47:49.000Z</time>
      </trkpt>
      <trkpt lat="45.25026" lon="5.8745">
        <ele>231.12</ele>
        <time>2022-07-02T09:47:54.000Z</time>
      </trkpt>
      <trkpt lat="45.25039" lon="5.87434">
        <ele>230.82</ele>
        <time>2022-07-02T09:47:59.000Z</time>
      </trkpt>
      <trkpt lat="45.25054" lon="5.87415">
        <ele>230.64</ele>
        <time>2022-07-02T09:48:04.000Z</time>
      </trkpt>
      <trkpt lat="45.25069" lon="5.87395">
        <ele>229.93</ele>
        <time>2022-07-02T09:48:09.000Z</time>
      </trkpt>
      <trkpt lat="45.25088" lon="5.87373">
        <ele>228.87</ele>
        <time>2022-07-02T09:48:14.000Z</time>
      </trkpt>
      <trkpt lat="45.25115" lon="5.87346">
        <ele>226.07</ele>
        <time>2022-07-02T09:48:19.000Z</time>
      </trkpt>
      <trkpt lat="45.2515" lon="5.8731">
        <ele>225.1</ele>
        <time>2022-07-02T09:48:24.000Z</time>
      </trkpt>
      <trkpt lat="45.25191" lon="5.87269">
        <ele>223.43</ele>
        <time>2022-07-02T09:48:29.000Z</time>
      </trkpt>
      <trkpt lat="45.25225" lon="5.87231">
        <ele>224.82</ele>
        <time>2022-07-02T09:48:34.000Z</time>
      </trkpt>
      <trkpt lat="45.25252" lon="5.87191">
        <ele>225.86</ele>
        <time>2022-07-02T09:48:39.000Z</time>
      </trkpt>
      <trkpt lat="45.25277" lon="5.87149">
        <ele>229.23</ele>
        <time>2022-07-02T09:48:44.000Z</time>
      </trkpt>
      <trkpt lat="45.25303" lon="5.87112">
        <ele>230.21</ele>
        <time>2022-07-02T09:48:49.000Z</time>
      </trkpt>
      <trkpt lat="45.25331" lon="5.87089">
        <ele>230.5</ele>
        <time>2022-07-02T09:48:54.000Z</time>
      </trkpt>
      <trkpt lat="45.25357" lon="5.87086">
        <ele>226.99</ele>
        <time>2022-07-02T09:48:59.000Z</time>
      </trkpt>
      <trkpt lat="45.2538" lon="5.87081">
        <ele>222.51</ele>
        <time>2022-07-02T09:49:04.000Z</time>
      </trkpt>
      <trkpt lat="45.25407" lon="5.8707">
        <ele>223.84</ele>
        <time>2022-07-02T09:49:09.000Z</time>
      </trkpt>
      <trkpt lat="45.25433" lon="5.87073">
        <ele>225.46</ele>
        <time>2022-07-02T09:49:14.000Z</time>
      </trkpt>
      <trkpt lat="45.25458" lon="5.87078">
        <ele>224.91</ele>
        <time>2022-07-02T09:49:19.000Z</time>
      </trkpt>
      <trkpt lat="45.25483" lon="5.87081">
        <ele>224.51</ele>
        <time>2022-07-02T09:49:24.000Z</time>
      </trkpt>
      <trkpt lat="45.25507" lon="5.87085">
        <ele>225.44</ele>
        <time>2022-07-02T09:49:29.000Z</time>
      </trkpt>
      <trkpt lat="45.25533" lon="5.87088">
        <ele>226.77</ele>
        <time>2022-07-02T09:49:34.000Z</time>
      </trkpt>
      <trkpt lat="45.25558" lon="5.87091">
        <ele>227.09</ele>
        <time>2022-07-02T09:49:39.000Z</time>
      </trkpt>
      <trkpt lat="45.25578" lon="5.87094">
        <ele>226.04</ele>
        <time>2022-07-02T09:49:44.000Z</time>
      </trkpt>
      <trkpt lat="45.25601" lon="5.87094">
        <ele>225.99</ele>
        <time>2022-07-02T09:49:49.000Z</time>
      </trkpt>
      <trkpt lat="45.2562" lon="5.87086">
        <ele>223.46</ele>
        <time>2022-07-02T09:49:54.000Z</time>
      </trkpt>
      <trkpt lat="45.25641" lon="5.87077">
        <ele>222.26</ele>
        <time>2022-07-02T09:49:59.000Z</time>
      </trkpt>
      <trkpt lat="45.25663" lon="5.87059">
        <ele>224.82</ele>
        <time>2022-07-02T09:50:04.000Z</time>
      </trkpt>
      <trkpt lat="45.2569" lon="5.87042">
        <ele>224.04</ele>
        <time>2022-07-02T09:50:09.000Z</time>
      </trkpt>
      <trkpt lat="45.25712" lon="5.87033">
        <ele>224.72</ele>
        <time>2022-07-02T09:50:14.000Z</time>
      </trkpt>
      <trkpt lat="45.25733" lon="5.87019">
        <ele>226.23</ele>
        <time>2022-07-02T09:50:19.000Z</time>
      </trkpt>
      <trkpt lat="45.25751" lon="5.87009">
        <ele>228.67</ele>
        <time>2022-07-02T09:50:24.000Z</time>
      </trkpt>
      <trkpt lat="45.2577" lon="5.86996">
        <ele>229.9</ele>
        <time>2022-07-02T09:50:29.000Z</time>
      </trkpt>
      <trkpt lat="45.25791" lon="5.86986">
        <ele>233.35</ele>
        <time>2022-07-02T09:50:34.000Z</time>
      </trkpt>
      <trkpt lat="45.2581" lon="5.86976">
        <ele>232.41</ele>
        <time>2022-07-02T09:50:39.000Z</time>
      </trkpt>
      <trkpt lat="45.25829" lon="5.86969">
        <ele>235.54</ele>
        <time>2022-07-02T09:50:44.000Z</time>
      </trkpt>
      <trkpt lat="45.25849" lon="5.86975">
        <ele>236.6</ele>
        <time>2022-07-02T09:50:49.000Z</time>
      </trkpt>
      <trkpt lat="45.25871" lon="5.86981">
        <ele>237.9</ele>
        <time>2022-07-02T09:50:54.000Z</time>
      </trkpt>
      <trkpt lat="45.25892" lon="5.86981">
        <ele>238.16</ele>
        <time>2022-07-02T09:50:59.000Z</time>
      </trkpt>
      <trkpt lat="45.25912" lon="5.86968">
        <ele>239.7</ele>
        <time>2022-07-02T09:51:04.000Z</time>
      </trkpt>
      <trkpt lat="45.25926" lon="5.86945">
        <ele>241.38</ele>
        <time>2022-07-02T09:51:09.000Z</time>
      </trkpt>
      <trkpt lat="45.2594" lon="5.8692">
        <ele>242.09</ele>
        <time>2022-07-02T09:51:14.000Z</time>
      </trkpt>
      <trkpt lat="45.25955" lon="5.869">
        <ele>244.62</ele>
        <time>2022-07-02T09:51:19.000Z</time>
      </trkpt>
      <trkpt lat="45.2597" lon="5.8688">
        <ele>245.62</ele>
        <time>2022-07-02T09:51:24.000Z</time>
      </trkpt>
      <trkpt lat="45.25985" lon="5.86852">
        <ele>246.83</ele>
        <time>2022-07-02T09:51:29.000Z</time>
      </trkpt>
      <trkpt lat="45.25997" lon="5.8683">
        <ele>249.2</ele>
        <time>2022-07-02T09:51:34.000Z</time>
      </trkpt>
      <trkpt lat="45.26011" lon="5.86811">
        <ele>249.35</ele>
        <time>2022-07-02T09:51:39.000Z</time>
      </trkpt>
      <trkpt lat="45.26028" lon="5.8681">
        <ele>250.93</ele>
        <time>2022-07-02T09:51:44.000Z</time>
      </trkpt>
      <trkpt lat="45.26041" lon="5.86834">
        <ele>248.19</ele>
        <time>2022-07-02T09:51:49.000Z</time>
      </trkpt>
      <trkpt lat="45.26053" lon="5.86858">
        <ele>249.74</ele>
        <time>2022-07-02T09:51:54.000Z</time>
      </trkpt>
      <trkpt lat="45.26059" lon="5.8687">
        <ele>252.41</ele>
        <time>2022-07-02T09:51:59.000Z</time>
      </trkpt>
      <trkpt lat="45.26066" lon="5.86878">
        <ele>251.01</ele>
        <time>2022-07-02T09:52:25.000Z</time>
      </trkpt>
      <trkpt lat="45.26066" lon="5.86892">
        <ele>249.63</ele>
        <time>2022-07-02T09:52:32.000Z</time>
      </trkpt>
      <trkpt lat="45.26063" lon="5.86906">
        <ele>244.86</ele>
        <time>2022-07-02T09:54:05.000Z</time>
      </trkpt>
      <trkpt lat="45.26056" lon="5.86948">
        <ele>244.49</ele>
        <time>2022-07-02T09:54:10.000Z</time>
      </trkpt>
      <trkpt lat="45.26048" lon="5.86982">
        <ele>243.52</ele>
        <time>2022-07-02T09:54:15.000Z</time>
      </trkpt>
      <trkpt lat="45.26049" lon="5.87026">
        <ele>240.64</ele>
        <time>2022-07-02T09:54:20.000Z</time>
      </trkpt>
      <trkpt lat="45.26066" lon="5.87058">
        <ele>238.15</ele>
        <time>2022-07-02T09:54:25.000Z</time>
      </trkpt>
      <trkpt lat="45.26084" lon="5.87082">
        <ele>236.68</ele>
        <time>2022-07-02T09:54:30.000Z</time>
      </trkpt>
      <trkpt lat="45.26098" lon="5.87116">
        <ele>236.55</ele>
        <time>2022-07-02T09:54:35.000Z</time>
      </trkpt>
      <trkpt lat="45.26114" lon="5.87151">
        <ele>240.33</ele>
        <time>2022-07-02T09:54:40.000Z</time>
      </trkpt>
      <trkpt lat="45.26126" lon="5.87185">
        <ele>240.29</ele>
        <time>2022-07-02T09:54:45.000Z</time>
      </trkpt>
      <trkpt lat="45.26143" lon="5.87212">
        <ele>239.29</ele>
        <time>2022-07-02T09:54:50.000Z</time>
      </trkpt>
      <trkpt lat="45.26162" lon="5.87234">
        <ele>240.05</ele>
        <time>2022-07-02T09:54:55.000Z</time>
      </trkpt>
      <trkpt lat="45.26178" lon="5.87252">
        <ele>238.83</ele>
        <time>2022-07-02T09:55:00.000Z</time>
      </trkpt>
      <trkpt lat="45.26195" lon="5.87272">
        <ele>238.12</ele>
        <time>2022-07-02T09:55:05.000Z</time>
      </trkpt>
      <trkpt lat="45.26215" lon="5.87295">
        <ele>238.9</ele>
        <time>2022-07-02T09:55:10.000Z</time>
      </trkpt>
      <trkpt lat="45.26235" lon="5.87324">
        <ele>237.66</ele>
        <time>2022-07-02T09:55:15.000Z</time>
      </trkpt>
      <trkpt lat="45.26252" lon="5.87351">
        <ele>237.62</ele>
        <time>2022-07-02T09:55:20.000Z</time>
      </trkpt>
      <trkpt lat="45.26265" lon="5.87379">
        <ele>236.91</ele>
        <time>2022-07-02T09:55:25.000Z</time>
      </trkpt>
      <trkpt lat="45.2628" lon="5.8741">
        <ele>238.18</ele>
        <time>2022-07-02T09:55:30.000Z</time>
      </trkpt>
      <trkpt lat="45.26298" lon="5.87443">
        <ele>237.9</ele>
        <time>2022-07-02T09:55:35.000Z</time>
      </trkpt>
      <trkpt lat="45.26309" lon="5.87482">
        <ele>241.55</ele>
        <time>2022-07-02T09:55:40.000Z</time>
      </trkpt>
      <trkpt lat="45.26319" lon="5.87531">
        <ele>241.98</ele>
        <time>2022-07-02T09:55:45.000Z</time>
      </trkpt>
      <trkpt lat="45.26329" lon="5.87577">
        <ele>240.48</ele>
        <time>2022-07-02T09:55:50.000Z</time>
      </trkpt>
      <trkpt lat="45.2634" lon="5.87618">
        <ele>236.17</ele>
        <time>2022-07-02T09:55:55.000Z</time>
      </trkpt>
      <trkpt lat="45.26351" lon="5.87657">
        <ele>233.71</ele>
        <time>2022-07-02T09:56:00.000Z</time>
      </trkpt>
      <trkpt lat="45.26369" lon="5.87693">
        <ele>232.54</ele>
        <time>2022-07-02T09:56:05.000Z</time>
      </trkpt>
      <trkpt lat="45.26387" lon="5.8773">
        <ele>232</ele>
        <time>2022-07-02T09:56:10.000Z</time>
      </trkpt>
      <trkpt lat="45.26402" lon="5.87763">
        <ele>231.12</ele>
        <time>2022-07-02T09:56:15.000Z</time>
      </trkpt>
      <trkpt lat="45.26413" lon="5.87797">
        <ele>232.07</ele>
        <time>2022-07-02T09:56:20.000Z</time>
      </trkpt>
      <trkpt lat="45.26417" lon="5.87827">
        <ele>232.47</ele>
        <time>2022-07-02T09:56:25.000Z</time>
      </trkpt>
      <trkpt lat="45.26412" lon="5.87853">
        <ele>232.98</ele>
        <time>2022-07-02T09:56:30.000Z</time>
      </trkpt>
      <trkpt lat="45.26426" lon="5.87875">
        <ele>232.19</ele>
        <time>2022-07-02T09:56:35.000Z</time>
      </trkpt>
      <trkpt lat="45.26437" lon="5.87899">
        <ele>231.15</ele>
        <time>2022-07-02T09:56:40.000Z</time>
      </trkpt>
      <trkpt lat="45.26441" lon="5.8793">
        <ele>230.01</ele>
        <time>2022-07-02T09:56:45.000Z</time>
      </trkpt>
      <trkpt lat="45.26443" lon="5.87962">
        <ele>232.01</ele>
        <time>2022-07-02T09:56:50.000Z</time>
      </trkpt>
      <trkpt lat="45.26448" lon="5.87994">
        <ele>235.4</ele>
        <time>2022-07-02T09:56:55.000Z</time>
      </trkpt>
      <trkpt lat="45.26451" lon="5.88021">
        <ele>236.89</ele>
        <time>2022-07-02T09:57:00.000Z</time>
      </trkpt>
      <trkpt lat="45.26455" lon="5.88043">
        <ele>236.87</ele>
        <time>2022-07-02T09:57:05.000Z</time>
      </trkpt>
      <trkpt lat="45.26465" lon="5.88066">
        <ele>237.67</ele>
        <time>2022-07-02T09:57:10.000Z</time>
      </trkpt>
      <trkpt lat="45.26473" lon="5.8809">
        <ele>237.52</ele>
        <time>2022-07-02T09:57:15.000Z</time>
      </trkpt>
      <trkpt lat="45.26482" lon="5.88114">
        <ele>232.67</ele>
        <time>2022-07-02T09:57:20.000Z</time>
      </trkpt>
      <trkpt lat="45.26501" lon="5.88144">
        <ele>233.64</ele>
        <time>2022-07-02T09:57:25.000Z</time>
      </trkpt>
      <trkpt lat="45.26526" lon="5.88174">
        <ele>233.27</ele>
        <time>2022-07-02T09:57:30.000Z</time>
      </trkpt>
      <trkpt lat="45.2655" lon="5.88202">
        <ele>232.81</ele>
        <time>2022-07-02T09:57:35.000Z</time>
      </trkpt>
      <trkpt lat="45.26571" lon="5.88231">
        <ele>232.07</ele>
        <time>2022-07-02T09:57:40.000Z</time>
      </trkpt>
      <trkpt lat="45.26592" lon="5.88259">
        <ele>232.04</ele>
        <time>2022-07-02T09:57:45.000Z</time>
      </trkpt>
      <trkpt lat="45.26608" lon="5.88292">
        <ele>231.82</ele>
        <time>2022-07-02T09:57:50.000Z</time>
      </trkpt>
      <trkpt lat="45.26616" lon="5.88326">
        <ele>230.58</ele>
        <time>2022-07-02T09:57:55.000Z</time>
      </trkpt>
      <trkpt lat="45.26629" lon="5.88362">
        <ele>232.02</ele>
        <time>2022-07-02T09:58:00.000Z</time>
      </trkpt>
      <trkpt lat="45.26646" lon="5.88388">
        <ele>231.33</ele>
        <time>2022-07-02T09:58:05.000Z</time>
      </trkpt>
      <trkpt lat="45.26665" lon="5.88413">
        <ele>234.71</ele>
        <time>2022-07-02T09:58:10.000Z</time>
      </trkpt>
      <trkpt lat="45.26685" lon="5.88436">
        <ele>236.03</ele>
        <time>2022-07-02T09:58:15.000Z</time>
      </trkpt>
      <trkpt lat="45.26688" lon="5.88471">
        <ele>235.37</ele>
        <time>2022-07-02T09:58:20.000Z</time>
      </trkpt>
      <trkpt lat="45.26685" lon="5.88509">
        <ele>232.69</ele>
        <time>2022-07-02T09:58:25.000Z</time>
      </trkpt>
      <trkpt lat="45.26691" lon="5.88546">
        <ele>232</ele>
        <time>2022-07-02T09:58:30.000Z</time>
      </trkpt>
      <trkpt lat="45.26707" lon="5.88576">
        <ele>231.01</ele>
        <time>2022-07-02T09:58:35.000Z</time>
      </trkpt>
      <trkpt lat="45.26727" lon="5.88606">
        <ele>231.92</ele>
        <time>2022-07-02T09:58:40.000Z</time>
      </trkpt>
      <trkpt lat="45.26742" lon="5.88633">
        <ele>225.95</ele>
        <time>2022-07-02T09:58:45.000Z</time>
      </trkpt>
      <trkpt lat="45.26746" lon="5.88671">
        <ele>225.12</ele>
        <time>2022-07-02T09:58:50.000Z</time>
      </trkpt>
      <trkpt lat="45.26757" lon="5.88703">
        <ele>225.25</ele>
        <time>2022-07-02T09:58:55.000Z</time>
      </trkpt>
      <trkpt lat="45.26778" lon="5.88729">
        <ele>225.49</ele>
        <time>2022-07-02T09:59:00.000Z</time>
      </trkpt>
      <trkpt lat="45.268" lon="5.88748">
        <ele>226.36</ele>
        <time>2022-07-02T09:59:05.000Z</time>
      </trkpt>
      <trkpt lat="45.26813" lon="5.88779">
        <ele>228.75</ele>
        <time>2022-07-02T09:59:10.000Z</time>
      </trkpt>
      <trkpt lat="45.26821" lon="5.88815">
        <ele>229.67</ele>
        <time>2022-07-02T09:59:15.000Z</time>
      </trkpt>
      <trkpt lat="45.2683" lon="5.88854">
        <ele>231.2</ele>
        <time>2022-07-02T09:59:20.000Z</time>
      </trkpt>
      <trkpt lat="45.26839" lon="5.88891">
        <ele>229.01</ele>
        <time>2022-07-02T09:59:25.000Z</time>
      </trkpt>
      <trkpt lat="45.26849" lon="5.88925">
        <ele>227.16</ele>
        <time>2022-07-02T09:59:30.000Z</time>
      </trkpt>
      <trkpt lat="45.26858" lon="5.88958">
        <ele>228.49</ele>
        <time>2022-07-02T09:59:35.000Z</time>
      </trkpt>
      <trkpt lat="45.26874" lon="5.88987">
        <ele>228.11</ele>
        <time>2022-07-02T09:59:40.000Z</time>
      </trkpt>
      <trkpt lat="45.26892" lon="5.89008">
        <ele>228.12</ele>
        <time>2022-07-02T09:59:45.000Z</time>
      </trkpt>
      <trkpt lat="45.26913" lon="5.89031">
        <ele>229.18</ele>
        <time>2022-07-02T09:59:50.000Z</time>
      </trkpt>
      <trkpt lat="45.26934" lon="5.89053">
        <ele>227.52</ele>
        <time>2022-07-02T09:59:55.000Z</time>
      </trkpt>
      <trkpt lat="45.26955" lon="5.89074">
        <ele>225.85</ele>
        <time>2022-07-02T10:00:00.000Z</time>
      </trkpt>
      <trkpt lat="45.26974" lon="5.89101">
        <ele>227.6</ele>
        <time>2022-07-02T10:00:05.000Z</time>
      </trkpt>
      <trkpt lat="45.2699" lon="5.89126">
        <ele>227.94</ele>
        <time>2022-07-02T10:00:10.000Z</time>
      </trkpt>
      <trkpt lat="45.27003" lon="5.89147">
        <ele>229.85</ele>
        <time>2022-07-02T10:00:15.000Z</time>
      </trkpt>
      <trkpt lat="45.2701" lon="5.89167">
        <ele>230.33</ele>
        <time>2022-07-02T10:00:20.000Z</time>
      </trkpt>
      <trkpt lat="45.2702" lon="5.89197">
        <ele>230.39</ele>
        <time>2022-07-02T10:00:25.000Z</time>
      </trkpt>
      <trkpt lat="45.27045" lon="5.89201">
        <ele>229.71</ele>
        <time>2022-07-02T10:00:30.000Z</time>
      </trkpt>
      <trkpt lat="45.27073" lon="5.8921">
        <ele>230.47</ele>
        <time>2022-07-02T10:00:35.000Z</time>
      </trkpt>
      <trkpt lat="45.27098" lon="5.89223">
        <ele>228.78</ele>
        <time>2022-07-02T10:00:40.000Z</time>
      </trkpt>
      <trkpt lat="45.27122" lon="5.89239">
        <ele>226.22</ele>
        <time>2022-07-02T10:00:45.000Z</time>
      </trkpt>
      <trkpt lat="45.27145" lon="5.89256">
        <ele>225.74</ele>
        <time>2022-07-02T10:00:50.000Z</time>
      </trkpt>
      <trkpt lat="45.2717" lon="5.8927">
        <ele>225.58</ele>
        <time>2022-07-02T10:00:55.000Z</time>
      </trkpt>
      <trkpt lat="45.27195" lon="5.89288">
        <ele>225.6</ele>
        <time>2022-07-02T10:01:00.000Z</time>
      </trkpt>
      <trkpt lat="45.2722" lon="5.89305">
        <ele>224.98</ele>
        <time>2022-07-02T10:01:05.000Z</time>
      </trkpt>
      <trkpt lat="45.27237" lon="5.89331">
        <ele>225.94</ele>
        <time>2022-07-02T10:01:10.000Z</time>
      </trkpt>
      <trkpt lat="45.27247" lon="5.89359">
        <ele>226.05</ele>
        <time>2022-07-02T10:01:15.000Z</time>
      </trkpt>
      <trkpt lat="45.2727" lon="5.89382">
        <ele>228.14</ele>
        <time>2022-07-02T10:01:20.000Z</time>
      </trkpt>
      <trkpt lat="45.27286" lon="5.89405">
        <ele>226.84</ele>
        <time>2022-07-02T10:01:25.000Z</time>
      </trkpt>
      <trkpt lat="45.27305" lon="5.89434">
        <ele>225.56</ele>
        <time>2022-07-02T10:01:30.000Z</time>
      </trkpt>
      <trkpt lat="45.2732" lon="5.89464">
        <ele>228.08</ele>
        <time>2022-07-02T10:01:35.000Z</time>
      </trkpt>
      <trkpt lat="45.27332" lon="5.89494">
        <ele>226.94</ele>
        <time>2022-07-02T10:01:40.000Z</time>
      </trkpt>
      <trkpt lat="45.27352" lon="5.89517">
        <ele>226.88</ele>
        <time>2022-07-02T10:01:45.000Z</time>
      </trkpt>
      <trkpt lat="45.27373" lon="5.89532">
        <ele>224.23</ele>
        <time>2022-07-02T10:01:50.000Z</time>
      </trkpt>
      <trkpt lat="45.27394" lon="5.89553">
        <ele>223.89</ele>
        <time>2022-07-02T10:01:55.000Z</time>
      </trkpt>
      <trkpt lat="45.27417" lon="5.89578">
        <ele>224</ele>
        <time>2022-07-02T10:02:00.000Z</time>
      </trkpt>
      <trkpt lat="45.27442" lon="5.89601">
        <ele>226.79</ele>
        <time>2022-07-02T10:02:05.000Z</time>
      </trkpt>
      <trkpt lat="45.27465" lon="5.89625">
        <ele>228.78</ele>
        <time>2022-07-02T10:02:10.000Z</time>
      </trkpt>
      <trkpt lat="45.27487" lon="5.89652">
        <ele>228.53</ele>
        <time>2022-07-02T10:02:15.000Z</time>
      </trkpt>
      <trkpt lat="45.2751" lon="5.89658">
        <ele>227.48</ele>
        <time>2022-07-02T10:02:20.000Z</time>
      </trkpt>
      <trkpt lat="45.27529" lon="5.89638">
        <ele>228.03</ele>
        <time>2022-07-02T10:02:25.000Z</time>
      </trkpt>
      <trkpt lat="45.27543" lon="5.89614">
        <ele>228.3</ele>
        <time>2022-07-02T10:02:30.000Z</time>
      </trkpt>
      <trkpt lat="45.2756" lon="5.89585">
        <ele>229.05</ele>
        <time>2022-07-02T10:02:35.000Z</time>
      </trkpt>
      <trkpt lat="45.27583" lon="5.89591">
        <ele>229.31</ele>
        <time>2022-07-02T10:02:40.000Z</time>
      </trkpt>
      <trkpt lat="45.27601" lon="5.89612">
        <ele>227.22</ele>
        <time>2022-07-02T10:02:45.000Z</time>
      </trkpt>
      <trkpt lat="45.27621" lon="5.89633">
        <ele>227.51</ele>
        <time>2022-07-02T10:02:50.000Z</time>
      </trkpt>
      <trkpt lat="45.2764" lon="5.89638">
        <ele>226.02</ele>
        <time>2022-07-02T10:02:55.000Z</time>
      </trkpt>
      <trkpt lat="45.2766" lon="5.89659">
        <ele>224.88</ele>
        <time>2022-07-02T10:03:00.000Z</time>
      </trkpt>
      <trkpt lat="45.27677" lon="5.89657">
        <ele>225.75</ele>
        <time>2022-07-02T10:03:05.000Z</time>
      </trkpt>
      <trkpt lat="45.27691" lon="5.89645">
        <ele>226.78</ele>
        <time>2022-07-02T10:03:10.000Z</time>
      </trkpt>
      <trkpt lat="45.27703" lon="5.8965">
        <ele>226.88</ele>
        <time>2022-07-02T10:03:15.000Z</time>
      </trkpt>
      <trkpt lat="45.27714" lon="5.89674">
        <ele>226.49</ele>
        <time>2022-07-02T10:03:20.000Z</time>
      </trkpt>
      <trkpt lat="45.27727" lon="5.89696">
        <ele>226.31</ele>
        <time>2022-07-02T10:03:25.000Z</time>
      </trkpt>
      <trkpt lat="45.27741" lon="5.89717">
        <ele>226.78</ele>
        <time>2022-07-02T10:03:30.000Z</time>
      </trkpt>
      <trkpt lat="45.27756" lon="5.8974">
        <ele>226.95</ele>
        <time>2022-07-02T10:03:35.000Z</time>
      </trkpt>
      <trkpt lat="45.27771" lon="5.89763">
        <ele>225.21</ele>
        <time>2022-07-02T10:03:40.000Z</time>
      </trkpt>
      <trkpt lat="45.27789" lon="5.89787">
        <ele>224.36</ele>
        <time>2022-07-02T10:03:45.000Z</time>
      </trkpt>
      <trkpt lat="45.27804" lon="5.89812">
        <ele>226.07</ele>
        <time>2022-07-02T10:03:50.000Z</time>
      </trkpt>
      <trkpt lat="45.27823" lon="5.89825">
        <ele>227.43</ele>
        <time>2022-07-02T10:03:55.000Z</time>
      </trkpt>
      <trkpt lat="45.27843" lon="5.89838">
        <ele>225.38</ele>
        <time>2022-07-02T10:04:00.000Z</time>
      </trkpt>
      <trkpt lat="45.27865" lon="5.8985">
        <ele>226.03</ele>
        <time>2022-07-02T10:04:05.000Z</time>
      </trkpt>
      <trkpt lat="45.2789" lon="5.89864">
        <ele>222.97</ele>
        <time>2022-07-02T10:04:10.000Z</time>
      </trkpt>
      <trkpt lat="45.27917" lon="5.89873">
        <ele>225.58</ele>
        <time>2022-07-02T10:04:15.000Z</time>
      </trkpt>
      <trkpt lat="45.27944" lon="5.89893">
        <ele>223.03</ele>
        <time>2022-07-02T10:04:20.000Z</time>
      </trkpt>
      <trkpt lat="45.27969" lon="5.89914">
        <ele>223.29</ele>
        <time>2022-07-02T10:04:25.000Z</time>
      </trkpt>
      <trkpt lat="45.27994" lon="5.89937">
        <ele>231.49</ele>
        <time>2022-07-02T10:04:30.000Z</time>
      </trkpt>
      <trkpt lat="45.28017" lon="5.89964">
        <ele>231.36</ele>
        <time>2022-07-02T10:04:35.000Z</time>
      </trkpt>
      <trkpt lat="45.28038" lon="5.89999">
        <ele>232.35</ele>
        <time>2022-07-02T10:04:40.000Z</time>
      </trkpt>
      <trkpt lat="45.28055" lon="5.90035">
        <ele>231.34</ele>
        <time>2022-07-02T10:04:45.000Z</time>
      </trkpt>
      <trkpt lat="45.28074" lon="5.90071">
        <ele>233.06</ele>
        <time>2022-07-02T10:04:50.000Z</time>
      </trkpt>
      <trkpt lat="45.28093" lon="5.90109">
        <ele>232.94</ele>
        <time>2022-07-02T10:04:55.000Z</time>
      </trkpt>
      <trkpt lat="45.28113" lon="5.90135">
        <ele>232.85</ele>
        <time>2022-07-02T10:05:00.000Z</time>
      </trkpt>
      <trkpt lat="45.28137" lon="5.90131">
        <ele>229.52</ele>
        <time>2022-07-02T10:05:05.000Z</time>
      </trkpt>
      <trkpt lat="45.28161" lon="5.90112">
        <ele>230.96</ele>
        <time>2022-07-02T10:05:10.000Z</time>
      </trkpt>
      <trkpt lat="45.28187" lon="5.90087">
        <ele>232.04</ele>
        <time>2022-07-02T10:05:15.000Z</time>
      </trkpt>
      <trkpt lat="45.28214" lon="5.90064">
        <ele>232.28</ele>
        <time>2022-07-02T10:05:20.000Z</time>
      </trkpt>
      <trkpt lat="45.28238" lon="5.90042">
        <ele>231.74</ele>
        <time>2022-07-02T10:05:25.000Z</time>
      </trkpt>
      <trkpt lat="45.28261" lon="5.9002">
        <ele>231.27</ele>
        <time>2022-07-02T10:05:30.000Z</time>
      </trkpt>
      <trkpt lat="45.28286" lon="5.89995">
        <ele>231.16</ele>
        <time>2022-07-02T10:05:35.000Z</time>
      </trkpt>
      <trkpt lat="45.28314" lon="5.8997">
        <ele>230.13</ele>
        <time>2022-07-02T10:05:40.000Z</time>
      </trkpt>
      <trkpt lat="45.28341" lon="5.89947">
        <ele>228.24</ele>
        <time>2022-07-02T10:05:45.000Z</time>
      </trkpt>
      <trkpt lat="45.28367" lon="5.89922">
        <ele>227.71</ele>
        <time>2022-07-02T10:05:50.000Z</time>
      </trkpt>
      <trkpt lat="45.28386" lon="5.89891">
        <ele>227.44</ele>
        <time>2022-07-02T10:05:55.000Z</time>
      </trkpt>
      <trkpt lat="45.28404" lon="5.89862">
        <ele>227.34</ele>
        <time>2022-07-02T10:06:00.000Z</time>
      </trkpt>
      <trkpt lat="45.2842" lon="5.89834">
        <ele>228.76</ele>
        <time>2022-07-02T10:06:05.000Z</time>
      </trkpt>
      <trkpt lat="45.28434" lon="5.8983">
        <ele>222.99</ele>
        <time>2022-07-02T10:06:10.000Z</time>
      </trkpt>
      <trkpt lat="45.28436" lon="5.89867">
        <ele>224.93</ele>
        <time>2022-07-02T10:06:15.000Z</time>
      </trkpt>
      <trkpt lat="45.28439" lon="5.89898">
        <ele>227.24</ele>
        <time>2022-07-02T10:06:20.000Z</time>
      </trkpt>
      <trkpt lat="45.28442" lon="5.89934">
        <ele>227.92</ele>
        <time>2022-07-02T10:06:25.000Z</time>
      </trkpt>
      <trkpt lat="45.28442" lon="5.89971">
        <ele>229.27</ele>
        <time>2022-07-02T10:06:30.000Z</time>
      </trkpt>
      <trkpt lat="45.28443" lon="5.90005">
        <ele>227.26</ele>
        <time>2022-07-02T10:06:35.000Z</time>
      </trkpt>
      <trkpt lat="45.28446" lon="5.90043">
        <ele>225.97</ele>
        <time>2022-07-02T10:06:40.000Z</time>
      </trkpt>
      <trkpt lat="45.28454" lon="5.90078">
        <ele>227.98</ele>
        <time>2022-07-02T10:06:45.000Z</time>
      </trkpt>
      <trkpt lat="45.28459" lon="5.90114">
        <ele>227.05</ele>
        <time>2022-07-02T10:06:50.000Z</time>
      </trkpt>
      <trkpt lat="45.28467" lon="5.90148">
        <ele>229.16</ele>
        <time>2022-07-02T10:06:55.000Z</time>
      </trkpt>
      <trkpt lat="45.28474" lon="5.90185">
        <ele>228.6</ele>
        <time>2022-07-02T10:07:00.000Z</time>
      </trkpt>
      <trkpt lat="45.28479" lon="5.90221">
        <ele>228.03</ele>
        <time>2022-07-02T10:07:05.000Z</time>
      </trkpt>
      <trkpt lat="45.28483" lon="5.9026">
        <ele>226.01</ele>
        <time>2022-07-02T10:07:10.000Z</time>
      </trkpt>
      <trkpt lat="45.28489" lon="5.90299">
        <ele>226.25</ele>
        <time>2022-07-02T10:07:15.000Z</time>
      </trkpt>
      <trkpt lat="45.28491" lon="5.90338">
        <ele>227.72</ele>
        <time>2022-07-02T10:07:20.000Z</time>
      </trkpt>
      <trkpt lat="45.2849" lon="5.90378">
        <ele>226.41</ele>
        <time>2022-07-02T10:07:25.000Z</time>
      </trkpt>
      <trkpt lat="45.2849" lon="5.90419">
        <ele>227.58</ele>
        <time>2022-07-02T10:07:30.000Z</time>
      </trkpt>
      <trkpt lat="45.28491" lon="5.90458">
        <ele>227.98</ele>
        <time>2022-07-02T10:07:35.000Z</time>
      </trkpt>
      <trkpt lat="45.28492" lon="5.90494">
        <ele>228.44</ele>
        <time>2022-07-02T10:07:40.000Z</time>
      </trkpt>
      <trkpt lat="45.28491" lon="5.90522">
        <ele>227.06</ele>
        <time>2022-07-02T10:07:45.000Z</time>
      </trkpt>
      <trkpt lat="45.28502" lon="5.90538">
        <ele>225.67</ele>
        <time>2022-07-02T10:07:50.000Z</time>
      </trkpt>
      <trkpt lat="45.28519" lon="5.9053">
        <ele>226.33</ele>
        <time>2022-07-02T10:07:55.000Z</time>
      </trkpt>
      <trkpt lat="45.28534" lon="5.90539">
        <ele>228.5</ele>
        <time>2022-07-02T10:08:00.000Z</time>
      </trkpt>
      <trkpt lat="45.2854" lon="5.90569">
        <ele>228.86</ele>
        <time>2022-07-02T10:08:05.000Z</time>
      </trkpt>
      <trkpt lat="45.2856" lon="5.90589">
        <ele>229.56</ele>
        <time>2022-07-02T10:08:10.000Z</time>
      </trkpt>
      <trkpt lat="45.28584" lon="5.90604">
        <ele>230.51</ele>
        <time>2022-07-02T10:08:15.000Z</time>
      </trkpt>
      <trkpt lat="45.28608" lon="5.90623">
        <ele>229.94</ele>
        <time>2022-07-02T10:08:20.000Z</time>
      </trkpt>
      <trkpt lat="45.28632" lon="5.90643">
        <ele>229.15</ele>
        <time>2022-07-02T10:08:25.000Z</time>
      </trkpt>
      <trkpt lat="45.28658" lon="5.9066">
        <ele>227.82</ele>
        <time>2022-07-02T10:08:30.000Z</time>
      </trkpt>
      <trkpt lat="45.28685" lon="5.90677">
        <ele>229.16</ele>
        <time>2022-07-02T10:08:35.000Z</time>
      </trkpt>
      <trkpt lat="45.28712" lon="5.90697">
        <ele>230.33</ele>
        <time>2022-07-02T10:08:40.000Z</time>
      </trkpt>
      <trkpt lat="45.2874" lon="5.90716">
        <ele>229.55</ele>
        <time>2022-07-02T10:08:45.000Z</time>
      </trkpt>
      <trkpt lat="45.2877" lon="5.90737">
        <ele>228.22</ele>
        <time>2022-07-02T10:08:50.000Z</time>
      </trkpt>
      <trkpt lat="45.28795" lon="5.90757">
        <ele>229.8</ele>
        <time>2022-07-02T10:08:55.000Z</time>
      </trkpt>
      <trkpt lat="45.28823" lon="5.90776">
        <ele>230.88</ele>
        <time>2022-07-02T10:09:00.000Z</time>
      </trkpt>
      <trkpt lat="45.28851" lon="5.90797">
        <ele>228.81</ele>
        <time>2022-07-02T10:09:05.000Z</time>
      </trkpt>
      <trkpt lat="45.2888" lon="5.90816">
        <ele>230.04</ele>
        <time>2022-07-02T10:09:10.000Z</time>
      </trkpt>
      <trkpt lat="45.28907" lon="5.90836">
        <ele>230.61</ele>
        <time>2022-07-02T10:09:15.000Z</time>
      </trkpt>
      <trkpt lat="45.28935" lon="5.90854">
        <ele>232.26</ele>
        <time>2022-07-02T10:09:20.000Z</time>
      </trkpt>
      <trkpt lat="45.28964" lon="5.90878">
        <ele>229.82</ele>
        <time>2022-07-02T10:09:25.000Z</time>
      </trkpt>
      <trkpt lat="45.28993" lon="5.90885">
        <ele>230.05</ele>
        <time>2022-07-02T10:09:30.000Z</time>
      </trkpt>
      <trkpt lat="45.2902" lon="5.90876">
        <ele>230.69</ele>
        <time>2022-07-02T10:09:35.000Z</time>
      </trkpt>
      <trkpt lat="45.29049" lon="5.90862">
        <ele>230.51</ele>
        <time>2022-07-02T10:09:40.000Z</time>
      </trkpt>
      <trkpt lat="45.2908" lon="5.9085">
        <ele>230.02</ele>
        <time>2022-07-02T10:09:45.000Z</time>
      </trkpt>
      <trkpt lat="45.2911" lon="5.90837">
        <ele>231.06</ele>
        <time>2022-07-02T10:09:50.000Z</time>
      </trkpt>
      <trkpt lat="45.29139" lon="5.90825">
        <ele>231.63</ele>
        <time>2022-07-02T10:09:55.000Z</time>
      </trkpt>
      <trkpt lat="45.2917" lon="5.90813">
        <ele>232.84</ele>
        <time>2022-07-02T10:10:00.000Z</time>
      </trkpt>
      <trkpt lat="45.29198" lon="5.90801">
        <ele>231.83</ele>
        <time>2022-07-02T10:10:05.000Z</time>
      </trkpt>
      <trkpt lat="45.29222" lon="5.90789">
        <ele>232.58</ele>
        <time>2022-07-02T10:10:10.000Z</time>
      </trkpt>
      <trkpt lat="45.29242" lon="5.9078">
        <ele>232.47</ele>
        <time>2022-07-02T10:10:15.000Z</time>
      </trkpt>
      <trkpt lat="45.2926" lon="5.90773">
        <ele>233.69</ele>
        <time>2022-07-02T10:10:20.000Z</time>
      </trkpt>
      <trkpt lat="45.29282" lon="5.90773">
        <ele>235.87</ele>
        <time>2022-07-02T10:10:25.000Z</time>
      </trkpt>
      <trkpt lat="45.29304" lon="5.90782">
        <ele>235.42</ele>
        <time>2022-07-02T10:10:30.000Z</time>
      </trkpt>
      <trkpt lat="45.29329" lon="5.90792">
        <ele>234.61</ele>
        <time>2022-07-02T10:10:35.000Z</time>
      </trkpt>
      <trkpt lat="45.29352" lon="5.90806">
        <ele>231.91</ele>
        <time>2022-07-02T10:10:40.000Z</time>
      </trkpt>
      <trkpt lat="45.29375" lon="5.90816">
        <ele>233.43</ele>
        <time>2022-07-02T10:10:45.000Z</time>
      </trkpt>
      <trkpt lat="45.29398" lon="5.90826">
        <ele>233.79</ele>
        <time>2022-07-02T10:10:50.000Z</time>
      </trkpt>
      <trkpt lat="45.29424" lon="5.90837">
        <ele>232.63</ele>
        <time>2022-07-02T10:10:55.000Z</time>
      </trkpt>
      <trkpt lat="45.29451" lon="5.90846">
        <ele>232.14</ele>
        <time>2022-07-02T10:11:00.000Z</time>
      </trkpt>
      <trkpt lat="45.29476" lon="5.90861">
        <ele>233.21</ele>
        <time>2022-07-02T10:11:05.000Z</time>
      </trkpt>
      <trkpt lat="45.29502" lon="5.90871">
        <ele>233.3</ele>
        <time>2022-07-02T10:11:10.000Z</time>
      </trkpt>
      <trkpt lat="45.29524" lon="5.90881">
        <ele>231.3</ele>
        <time>2022-07-02T10:11:15.000Z</time>
      </trkpt>
      <trkpt lat="45.29545" lon="5.90891">
        <ele>230.62</ele>
        <time>2022-07-02T10:11:20.000Z</time>
      </trkpt>
      <trkpt lat="45.29567" lon="5.90901">
        <ele>230.9</ele>
        <time>2022-07-02T10:11:25.000Z</time>
      </trkpt>
      <trkpt lat="45.29593" lon="5.90909">
        <ele>231.5</ele>
        <time>2022-07-02T10:11:30.000Z</time>
      </trkpt>
      <trkpt lat="45.29617" lon="5.90922">
        <ele>229.44</ele>
        <time>2022-07-02T10:11:35.000Z</time>
      </trkpt>
      <trkpt lat="45.29644" lon="5.90931">
        <ele>230.12</ele>
        <time>2022-07-02T10:11:40.000Z</time>
      </trkpt>
      <trkpt lat="45.29671" lon="5.90944">
        <ele>230.99</ele>
        <time>2022-07-02T10:11:45.000Z</time>
      </trkpt>
      <trkpt lat="45.297" lon="5.90954">
        <ele>228.69</ele>
        <time>2022-07-02T10:11:50.000Z</time>
      </trkpt>
      <trkpt lat="45.2973" lon="5.90967">
        <ele>227.37</ele>
        <time>2022-07-02T10:11:55.000Z</time>
      </trkpt>
      <trkpt lat="45.29759" lon="5.90978">
        <ele>231.07</ele>
        <time>2022-07-02T10:12:00.000Z</time>
      </trkpt>
      <trkpt lat="45.29791" lon="5.90989">
        <ele>229.63</ele>
        <time>2022-07-02T10:12:05.000Z</time>
      </trkpt>
      <trkpt lat="45.29818" lon="5.91004">
        <ele>228.28</ele>
        <time>2022-07-02T10:12:10.000Z</time>
      </trkpt>
      <trkpt lat="45.29848" lon="5.91009">
        <ele>228.18</ele>
        <time>2022-07-02T10:12:15.000Z</time>
      </trkpt>
      <trkpt lat="45.29866" lon="5.9102">
        <ele>232.26</ele>
        <time>2022-07-02T10:12:20.000Z</time>
      </trkpt>
      <trkpt lat="45.29897" lon="5.91026">
        <ele>229.98</ele>
        <time>2022-07-02T10:12:25.000Z</time>
      </trkpt>
      <trkpt lat="45.29921" lon="5.91032">
        <ele>229.02</ele>
        <time>2022-07-02T10:12:30.000Z</time>
      </trkpt>
      <trkpt lat="45.29931" lon="5.91024">
        <ele>229.07</ele>
        <time>2022-07-02T10:12:35.000Z</time>
      </trkpt>
      <trkpt lat="45.29935" lon="5.91013">
        <ele>225.83</ele>
        <time>2022-07-02T10:12:40.000Z</time>
      </trkpt>
      <trkpt lat="45.29947" lon="5.90997">
        <ele>224.46</ele>
        <time>2022-07-02T10:12:45.000Z</time>
      </trkpt>
      <trkpt lat="45.29964" lon="5.90965">
        <ele>228.76</ele>
        <time>2022-07-02T10:12:50.000Z</time>
      </trkpt>
      <trkpt lat="45.29981" lon="5.90943">
        <ele>230.37</ele>
        <time>2022-07-02T10:12:55.000Z</time>
      </trkpt>
      <trkpt lat="45.29997" lon="5.90909">
        <ele>232.64</ele>
        <time>2022-07-02T10:13:00.000Z</time>
      </trkpt>
      <trkpt lat="45.30015" lon="5.90878">
        <ele>233.28</ele>
        <time>2022-07-02T10:13:05.000Z</time>
      </trkpt>
      <trkpt lat="45.30034" lon="5.90849">
        <ele>228.01</ele>
        <time>2022-07-02T10:13:10.000Z</time>
      </trkpt>
      <trkpt lat="45.30049" lon="5.90817">
        <ele>230.82</ele>
        <time>2022-07-02T10:13:15.000Z</time>
      </trkpt>
      <trkpt lat="45.30064" lon="5.90785">
        <ele>228.79</ele>
        <time>2022-07-02T10:13:20.000Z</time>
      </trkpt>
      <trkpt lat="45.30086" lon="5.90778">
        <ele>227.28</ele>
        <time>2022-07-02T10:13:25.000Z</time>
      </trkpt>
      <trkpt lat="45.30112" lon="5.90779">
        <ele>227.68</ele>
        <time>2022-07-02T10:13:30.000Z</time>
      </trkpt>
      <trkpt lat="45.30136" lon="5.90785">
        <ele>228.28</ele>
        <time>2022-07-02T10:13:35.000Z</time>
      </trkpt>
      <trkpt lat="45.3016" lon="5.90791">
        <ele>230.02</ele>
        <time>2022-07-02T10:13:40.000Z</time>
      </trkpt>
      <trkpt lat="45.30187" lon="5.90794">
        <ele>229.19</ele>
        <time>2022-07-02T10:13:45.000Z</time>
      </trkpt>
      <trkpt lat="45.30205" lon="5.90799">
        <ele>227.95</ele>
        <time>2022-07-02T10:13:50.000Z</time>
      </trkpt>
      <trkpt lat="45.30214" lon="5.90803">
        <ele>229.3</ele>
        <time>2022-07-02T10:13:55.000Z</time>
      </trkpt>
      <trkpt lat="45.30229" lon="5.90798">
        <ele>230.63</ele>
        <time>2022-07-02T10:14:00.000Z</time>
      </trkpt>
      <trkpt lat="45.30235" lon="5.90774">
        <ele>230.86</ele>
        <time>2022-07-02T10:14:05.000Z</time>
      </trkpt>
      <trkpt lat="45.30245" lon="5.90754">
        <ele>231.7</ele>
        <time>2022-07-02T10:14:10.000Z</time>
      </trkpt>
      <trkpt lat="45.30256" lon="5.90742">
        <ele>231.29</ele>
        <time>2022-07-02T10:14:15.000Z</time>
      </trkpt>
      <trkpt lat="45.30264" lon="5.90727">
        <ele>231.55</ele>
        <time>2022-07-02T10:14:20.000Z</time>
      </trkpt>
      <trkpt lat="45.3027" lon="5.90717">
        <ele>234.79</ele>
        <time>2022-07-02T10:17:19.000Z</time>
      </trkpt>
      <trkpt lat="45.30263" lon="5.90726">
        <ele>228.84</ele>
        <time>2022-07-02T10:18:06.000Z</time>
      </trkpt>
      <trkpt lat="45.30255" lon="5.90736">
        <ele>229.21</ele>
        <time>2022-07-02T10:18:11.000Z</time>
      </trkpt>
      <trkpt lat="45.30244" lon="5.90747">
        <ele>228.57</ele>
        <time>2022-07-02T10:18:16.000Z</time>
      </trkpt>
      <trkpt lat="45.30233" lon="5.90761">
        <ele>229.11</ele>
        <time>2022-07-02T10:18:21.000Z</time>
      </trkpt>
      <trkpt lat="45.30224" lon="5.90778">
        <ele>230.28</ele>
        <time>2022-07-02T10:18:26.000Z</time>
      </trkpt>
      <trkpt lat="45.30223" lon="5.90799">
        <ele>230.15</ele>
        <time>2022-07-02T10:18:31.000Z</time>
      </trkpt>
      <trkpt lat="45.30223" lon="5.90815">
        <ele>228.85</ele>
        <time>2022-07-02T10:18:36.000Z</time>
      </trkpt>
      <trkpt lat="45.30219" lon="5.90835">
        <ele>228.92</ele>
        <time>2022-07-02T10:18:41.000Z</time>
      </trkpt>
      <trkpt lat="45.30227" lon="5.90853">
        <ele>232.02</ele>
        <time>2022-07-02T10:18:46.000Z</time>
      </trkpt>
      <trkpt lat="45.30238" lon="5.90868">
        <ele>232.86</ele>
        <time>2022-07-02T10:18:51.000Z</time>
      </trkpt>
      <trkpt lat="45.3025" lon="5.90882">
        <ele>232.63</ele>
        <time>2022-07-02T10:18:56.000Z</time>
      </trkpt>
      <trkpt lat="45.30264" lon="5.90894">
        <ele>236.04</ele>
        <time>2022-07-02T10:19:01.000Z</time>
      </trkpt>
      <trkpt lat="45.30278" lon="5.90904">
        <ele>240.85</ele>
        <time>2022-07-02T10:19:06.000Z</time>
      </trkpt>
      <trkpt lat="45.30289" lon="5.90919">
        <ele>239.62</ele>
        <time>2022-07-02T10:19:11.000Z</time>
      </trkpt>
      <trkpt lat="45.30301" lon="5.90935">
        <ele>236.57</ele>
        <time>2022-07-02T10:19:16.000Z</time>
      </trkpt>
      <trkpt lat="45.30314" lon="5.9095">
        <ele>235.93</ele>
        <time>2022-07-02T10:19:21.000Z</time>
      </trkpt>
      <trkpt lat="45.30329" lon="5.90964">
        <ele>235.62</ele>
        <time>2022-07-02T10:19:26.000Z</time>
      </trkpt>
      <trkpt lat="45.30346" lon="5.90984">
        <ele>234.02</ele>
        <time>2022-07-02T10:19:31.000Z</time>
      </trkpt>
      <trkpt lat="45.3036" lon="5.91007">
        <ele>235.71</ele>
        <time>2022-07-02T10:19:36.000Z</time>
      </trkpt>
      <trkpt lat="45.30377" lon="5.91026">
        <ele>234.99</ele>
        <time>2022-07-02T10:19:41.000Z</time>
      </trkpt>
      <trkpt lat="45.30398" lon="5.91046">
        <ele>235.31</ele>
        <time>2022-07-02T10:19:46.000Z</time>
      </trkpt>
      <trkpt lat="45.30415" lon="5.9107">
        <ele>235.1</ele>
        <time>2022-07-02T10:19:51.000Z</time>
      </trkpt>
      <trkpt lat="45.3043" lon="5.9109">
        <ele>235</ele>
        <time>2022-07-02T10:19:56.000Z</time>
      </trkpt>
      <trkpt lat="45.3043" lon="5.9112">
        <ele>234.36</ele>
        <time>2022-07-02T10:20:01.000Z</time>
      </trkpt>
      <trkpt lat="45.30409" lon="5.9114">
        <ele>233.15</ele>
        <time>2022-07-02T10:20:06.000Z</time>
      </trkpt>
      <trkpt lat="45.30391" lon="5.9116">
        <ele>229.7</ele>
        <time>2022-07-02T10:20:11.000Z</time>
      </trkpt>
      <trkpt lat="45.3037" lon="5.91172">
        <ele>222.96</ele>
        <time>2022-07-02T10:20:16.000Z</time>
      </trkpt>
      <trkpt lat="45.30352" lon="5.91196">
        <ele>222.29</ele>
        <time>2022-07-02T10:20:21.000Z</time>
      </trkpt>
      <trkpt lat="45.30331" lon="5.91222">
        <ele>221.87</ele>
        <time>2022-07-02T10:20:26.000Z</time>
      </trkpt>
      <trkpt lat="45.3031" lon="5.91242">
        <ele>218.59</ele>
        <time>2022-07-02T10:20:31.000Z</time>
      </trkpt>
      <trkpt lat="45.30289" lon="5.91262">
        <ele>220.59</ele>
        <time>2022-07-02T10:20:36.000Z</time>
      </trkpt>
      <trkpt lat="45.30271" lon="5.91288">
        <ele>222.67</ele>
        <time>2022-07-02T10:20:41.000Z</time>
      </trkpt>
      <trkpt lat="45.30259" lon="5.91323">
        <ele>224.21</ele>
        <time>2022-07-02T10:20:46.000Z</time>
      </trkpt>
      <trkpt lat="45.30256" lon="5.91353">
        <ele>226.75</ele>
        <time>2022-07-02T10:20:51.000Z</time>
      </trkpt>
      <trkpt lat="45.30268" lon="5.91374">
        <ele>228.6</ele>
        <time>2022-07-02T10:20:56.000Z</time>
      </trkpt>
      <trkpt lat="45.30283" lon="5.9139">
        <ele>230.33</ele>
        <time>2022-07-02T10:21:01.000Z</time>
      </trkpt>
      <trkpt lat="45.30301" lon="5.91408">
        <ele>234.19</ele>
        <time>2022-07-02T10:21:06.000Z</time>
      </trkpt>
      <trkpt lat="45.30318" lon="5.91427">
        <ele>232</ele>
        <time>2022-07-02T10:21:11.000Z</time>
      </trkpt>
      <trkpt lat="45.30338" lon="5.91445">
        <ele>235.95</ele>
        <time>2022-07-02T10:21:16.000Z</time>
      </trkpt>
      <trkpt lat="45.30358" lon="5.91463">
        <ele>235.75</ele>
        <time>2022-07-02T10:21:21.000Z</time>
      </trkpt>
      <trkpt lat="45.30376" lon="5.91479">
        <ele>237.95</ele>
        <time>2022-07-02T10:21:26.000Z</time>
      </trkpt>
      <trkpt lat="45.30394" lon="5.91496">
        <ele>237.87</ele>
        <time>2022-07-02T10:21:31.000Z</time>
      </trkpt>
      <trkpt lat="45.30413" lon="5.91518">
        <ele>237.8</ele>
        <time>2022-07-02T10:21:36.000Z</time>
      </trkpt>
      <trkpt lat="45.30435" lon="5.91535">
        <ele>236.29</ele>
        <time>2022-07-02T10:21:41.000Z</time>
      </trkpt>
      <trkpt lat="45.30459" lon="5.91557">
        <ele>238.42</ele>
        <time>2022-07-02T10:21:46.000Z</time>
      </trkpt>
      <trkpt lat="45.30477" lon="5.91577">
        <ele>239.97</ele>
        <time>2022-07-02T10:21:51.000Z</time>
      </trkpt>
      <trkpt lat="45.30498" lon="5.91597">
        <ele>238.93</ele>
        <time>2022-07-02T10:21:56.000Z</time>
      </trkpt>
      <trkpt lat="45.30518" lon="5.91621">
        <ele>240.63</ele>
        <time>2022-07-02T10:22:01.000Z</time>
      </trkpt>
      <trkpt lat="45.30536" lon="5.91645">
        <ele>238.93</ele>
        <time>2022-07-02T10:22:06.000Z</time>
      </trkpt>
      <trkpt lat="45.30536" lon="5.91676">
        <ele>237.61</ele>
        <time>2022-07-02T10:22:11.000Z</time>
      </trkpt>
      <trkpt lat="45.30524" lon="5.91701">
        <ele>238.1</ele>
        <time>2022-07-02T10:22:16.000Z</time>
      </trkpt>
      <trkpt lat="45.30511" lon="5.91734">
        <ele>236.57</ele>
        <time>2022-07-02T10:22:21.000Z</time>
      </trkpt>
      <trkpt lat="45.30503" lon="5.91767">
        <ele>235.37</ele>
        <time>2022-07-02T10:22:26.000Z</time>
      </trkpt>
      <trkpt lat="45.30495" lon="5.91805">
        <ele>237.9</ele>
        <time>2022-07-02T10:22:31.000Z</time>
      </trkpt>
      <trkpt lat="45.30496" lon="5.91839">
        <ele>237.08</ele>
        <time>2022-07-02T10:22:36.000Z</time>
      </trkpt>
      <trkpt lat="45.30502" lon="5.91874">
        <ele>236.14</ele>
        <time>2022-07-02T10:22:41.000Z</time>
      </trkpt>
      <trkpt lat="45.3049" lon="5.9191">
        <ele>234.68</ele>
        <time>2022-07-02T10:22:46.000Z</time>
      </trkpt>
      <trkpt lat="45.30471" lon="5.91943">
        <ele>232.49</ele>
        <time>2022-07-02T10:22:51.000Z</time>
      </trkpt>
      <trkpt lat="45.30457" lon="5.91979">
        <ele>229.57</ele>
        <time>2022-07-02T10:22:56.000Z</time>
      </trkpt>
      <trkpt lat="45.30464" lon="5.92021">
        <ele>229.29</ele>
        <time>2022-07-02T10:23:01.000Z</time>
      </trkpt>
      <trkpt lat="45.30481" lon="5.92056">
        <ele>230.53</ele>
        <time>2022-07-02T10:23:06.000Z</time>
      </trkpt>
      <trkpt lat="45.30495" lon="5.92092">
        <ele>232.15</ele>
        <time>2022-07-02T10:23:11.000Z</time>
      </trkpt>
      <trkpt lat="45.30514" lon="5.92119">
        <ele>235.45</ele>
        <time>2022-07-02T10:23:16.000Z</time>
      </trkpt>
      <trkpt lat="45.30527" lon="5.92143">
        <ele>235.03</ele>
        <time>2022-07-02T10:23:21.000Z</time>
      </trkpt>
      <trkpt lat="45.3054" lon="5.92173">
        <ele>233.5</ele>
        <time>2022-07-02T10:23:26.000Z</time>
      </trkpt>
      <trkpt lat="45.3053" lon="5.92203">
        <ele>233.84</ele>
        <time>2022-07-02T10:23:31.000Z</time>
      </trkpt>
      <trkpt lat="45.30512" lon="5.92231">
        <ele>231.72</ele>
        <time>2022-07-02T10:23:36.000Z</time>
      </trkpt>
      <trkpt lat="45.30524" lon="5.92271">
        <ele>231.48</ele>
        <time>2022-07-02T10:23:41.000Z</time>
      </trkpt>
      <trkpt lat="45.30536" lon="5.92304">
        <ele>231.73</ele>
        <time>2022-07-02T10:23:46.000Z</time>
      </trkpt>
      <trkpt lat="45.30546" lon="5.9234">
        <ele>233.32</ele>
        <time>2022-07-02T10:23:51.000Z</time>
      </trkpt>
      <trkpt lat="45.30551" lon="5.92372">
        <ele>232.41</ele>
        <time>2022-07-02T10:23:56.000Z</time>
      </trkpt>
      <trkpt lat="45.30564" lon="5.92405">
        <ele>232.33</ele>
        <time>2022-07-02T10:24:01.000Z</time>
      </trkpt>
      <trkpt lat="45.3057" lon="5.9244">
        <ele>234.25</ele>
        <time>2022-07-02T10:24:06.000Z</time>
      </trkpt>
      <trkpt lat="45.30572" lon="5.92477">
        <ele>232.65</ele>
        <time>2022-07-02T10:24:11.000Z</time>
      </trkpt>
      <trkpt lat="45.30581" lon="5.92514">
        <ele>234.12</ele>
        <time>2022-07-02T10:24:16.000Z</time>
      </trkpt>
      <trkpt lat="45.30587" lon="5.92555">
        <ele>233.78</ele>
        <time>2022-07-02T10:24:21.000Z</time>
      </trkpt>
      <trkpt lat="45.30578" lon="5.92595">
        <ele>232.97</ele>
        <time>2022-07-02T10:24:26.000Z</time>
      </trkpt>
      <trkpt lat="45.30567" lon="5.92636">
        <ele>235.5</ele>
        <time>2022-07-02T10:24:31.000Z</time>
      </trkpt>
      <trkpt lat="45.30573" lon="5.92672">
        <ele>233.87</ele>
        <time>2022-07-02T10:24:36.000Z</time>
      </trkpt>
      <trkpt lat="45.30587" lon="5.92703">
        <ele>233.26</ele>
        <time>2022-07-02T10:24:41.000Z</time>
      </trkpt>
      <trkpt lat="45.30599" lon="5.92734">
        <ele>232.18</ele>
        <time>2022-07-02T10:24:46.000Z</time>
      </trkpt>
      <trkpt lat="45.3061" lon="5.92763">
        <ele>231.47</ele>
        <time>2022-07-02T10:24:51.000Z</time>
      </trkpt>
      <trkpt lat="45.30629" lon="5.92789">
        <ele>233.09</ele>
        <time>2022-07-02T10:24:56.000Z</time>
      </trkpt>
      <trkpt lat="45.30647" lon="5.92805">
        <ele>235.31</ele>
        <time>2022-07-02T10:25:01.000Z</time>
      </trkpt>
      <trkpt lat="45.30664" lon="5.92824">
        <ele>233.91</ele>
        <time>2022-07-02T10:25:06.000Z</time>
      </trkpt>
      <trkpt lat="45.30683" lon="5.92841">
        <ele>230.89</ele>
        <time>2022-07-02T10:25:11.000Z</time>
      </trkpt>
      <trkpt lat="45.30704" lon="5.92853">
        <ele>230.64</ele>
        <time>2022-07-02T10:25:16.000Z</time>
      </trkpt>
      <trkpt lat="45.30718" lon="5.92862">
        <ele>231.94</ele>
        <time>2022-07-02T10:25:21.000Z</time>
      </trkpt>
      <trkpt lat="45.30734" lon="5.92874">
        <ele>237.21</ele>
        <time>2022-07-02T10:25:26.000Z</time>
      </trkpt>
      <trkpt lat="45.30752" lon="5.92889">
        <ele>239.4</ele>
        <time>2022-07-02T10:25:31.000Z</time>
      </trkpt>
      <trkpt lat="45.30771" lon="5.92904">
        <ele>241.92</ele>
        <time>2022-07-02T10:25:36.000Z</time>
      </trkpt>
      <trkpt lat="45.30791" lon="5.92923">
        <ele>241.7</ele>
        <time>2022-07-02T10:25:41.000Z</time>
      </trkpt>
      <trkpt lat="45.30812" lon="5.92927">
        <ele>244.77</ele>
        <time>2022-07-02T10:25:46.000Z</time>
      </trkpt>
      <trkpt lat="45.30827" lon="5.92933">
        <ele>244.65</ele>
        <time>2022-07-02T10:25:51.000Z</time>
      </trkpt>
      <trkpt lat="45.30842" lon="5.92937">
        <ele>242.26</ele>
        <time>2022-07-02T10:25:56.000Z</time>
      </trkpt>
      <trkpt lat="45.30863" lon="5.9294">
        <ele>239.62</ele>
        <time>2022-07-02T10:26:01.000Z</time>
      </trkpt>
      <trkpt lat="45.30884" lon="5.92928">
        <ele>241.04</ele>
        <time>2022-07-02T10:26:06.000Z</time>
      </trkpt>
      <trkpt lat="45.30904" lon="5.92906">
        <ele>238.56</ele>
        <time>2022-07-02T10:26:11.000Z</time>
      </trkpt>
      <trkpt lat="45.30922" lon="5.92885">
        <ele>237.46</ele>
        <time>2022-07-02T10:26:16.000Z</time>
      </trkpt>
      <trkpt lat="45.3094" lon="5.92861">
        <ele>239.53</ele>
        <time>2022-07-02T10:26:21.000Z</time>
      </trkpt>
      <trkpt lat="45.30956" lon="5.92841">
        <ele>241.38</ele>
        <time>2022-07-02T10:26:26.000Z</time>
      </trkpt>
      <trkpt lat="45.30981" lon="5.92839">
        <ele>241.28</ele>
        <time>2022-07-02T10:26:31.000Z</time>
      </trkpt>
      <trkpt lat="45.31" lon="5.92866">
        <ele>243.77</ele>
        <time>2022-07-02T10:26:36.000Z</time>
      </trkpt>
      <trkpt lat="45.31017" lon="5.92893">
        <ele>242.56</ele>
        <time>2022-07-02T10:26:41.000Z</time>
      </trkpt>
      <trkpt lat="45.31032" lon="5.92916">
        <ele>242.63</ele>
        <time>2022-07-02T10:26:46.000Z</time>
      </trkpt>
      <trkpt lat="45.31039" lon="5.92942">
        <ele>244.72</ele>
        <time>2022-07-02T10:26:51.000Z</time>
      </trkpt>
      <trkpt lat="45.31025" lon="5.9297">
        <ele>242.02</ele>
        <time>2022-07-02T10:26:56.000Z</time>
      </trkpt>
      <trkpt lat="45.31034" lon="5.93002">
        <ele>239.94</ele>
        <time>2022-07-02T10:27:01.000Z</time>
      </trkpt>
      <trkpt lat="45.31062" lon="5.93017">
        <ele>238</ele>
        <time>2022-07-02T10:27:06.000Z</time>
      </trkpt>
      <trkpt lat="45.31084" lon="5.93037">
        <ele>239.74</ele>
        <time>2022-07-02T10:27:11.000Z</time>
      </trkpt>
      <trkpt lat="45.3111" lon="5.93061">
        <ele>238.57</ele>
        <time>2022-07-02T10:27:16.000Z</time>
      </trkpt>
      <trkpt lat="45.31131" lon="5.93083">
        <ele>239.75</ele>
        <time>2022-07-02T10:27:21.000Z</time>
      </trkpt>
      <trkpt lat="45.31156" lon="5.93102">
        <ele>240.34</ele>
        <time>2022-07-02T10:27:26.000Z</time>
      </trkpt>
      <trkpt lat="45.31179" lon="5.93121">
        <ele>239.24</ele>
        <time>2022-07-02T10:27:31.000Z</time>
      </trkpt>
      <trkpt lat="45.31207" lon="5.9314">
        <ele>240.25</ele>
        <time>2022-07-02T10:27:36.000Z</time>
      </trkpt>
      <trkpt lat="45.31226" lon="5.93151">
        <ele>240.09</ele>
        <time>2022-07-02T10:27:41.000Z</time>
      </trkpt>
      <trkpt lat="45.31215" lon="5.93157">
        <ele>239.63</ele>
        <time>2022-07-02T10:27:51.000Z</time>
      </trkpt>
      <trkpt lat="45.31224" lon="5.93155">
        <ele>238.64</ele>
        <time>2022-07-02T10:28:21.000Z</time>
      </trkpt>
      <trkpt lat="45.31235" lon="5.93157">
        <ele>235.34</ele>
        <time>2022-07-02T10:33:40.000Z</time>
      </trkpt>
      <trkpt lat="45.31256" lon="5.93162">
        <ele>236.01</ele>
        <time>2022-07-02T10:33:45.000Z</time>
      </trkpt>
      <trkpt lat="45.31277" lon="5.93164">
        <ele>237.62</ele>
        <time>2022-07-02T10:33:50.000Z</time>
      </trkpt>
      <trkpt lat="45.31296" lon="5.93154">
        <ele>237.29</ele>
        <time>2022-07-02T10:33:55.000Z</time>
      </trkpt>
      <trkpt lat="45.31308" lon="5.93128">
        <ele>239.64</ele>
        <time>2022-07-02T10:34:00.000Z</time>
      </trkpt>
      <trkpt lat="45.3132" lon="5.93103">
        <ele>240.31</ele>
        <time>2022-07-02T10:34:05.000Z</time>
      </trkpt>
      <trkpt lat="45.31333" lon="5.93078">
        <ele>240.54</ele>
        <time>2022-07-02T10:34:10.000Z</time>
      </trkpt>
      <trkpt lat="45.31348" lon="5.93058">
        <ele>233.96</ele>
        <time>2022-07-02T10:34:15.000Z</time>
      </trkpt>
      <trkpt lat="45.31358" lon="5.93036">
        <ele>234.44</ele>
        <time>2022-07-02T10:34:20.000Z</time>
      </trkpt>
      <trkpt lat="45.31358" lon="5.93005">
        <ele>237.71</ele>
        <time>2022-07-02T10:34:25.000Z</time>
      </trkpt>
      <trkpt lat="45.31364" lon="5.92976">
        <ele>238.52</ele>
        <time>2022-07-02T10:34:30.000Z</time>
      </trkpt>
      <trkpt lat="45.31379" lon="5.92957">
        <ele>240.34</ele>
        <time>2022-07-02T10:34:35.000Z</time>
      </trkpt>
      <trkpt lat="45.31397" lon="5.92942">
        <ele>243.19</ele>
        <time>2022-07-02T10:34:40.000Z</time>
      </trkpt>
      <trkpt lat="45.31414" lon="5.92928">
        <ele>244.46</ele>
        <time>2022-07-02T10:34:45.000Z</time>
      </trkpt>
      <trkpt lat="45.31431" lon="5.92913">
        <ele>246.29</ele>
        <time>2022-07-02T10:34:50.000Z</time>
      </trkpt>
      <trkpt lat="45.31449" lon="5.92897">
        <ele>248.21</ele>
        <time>2022-07-02T10:34:55.000Z</time>
      </trkpt>
      <trkpt lat="45.31462" lon="5.92883">
        <ele>245.76</ele>
        <time>2022-07-02T10:35:00.000Z</time>
      </trkpt>
      <trkpt lat="45.31474" lon="5.9286">
        <ele>244.61</ele>
        <time>2022-07-02T10:35:05.000Z</time>
      </trkpt>
      <trkpt lat="45.31485" lon="5.92834">
        <ele>247.64</ele>
        <time>2022-07-02T10:35:10.000Z</time>
      </trkpt>
      <trkpt lat="45.31496" lon="5.92809">
        <ele>246.59</ele>
        <time>2022-07-02T10:35:15.000Z</time>
      </trkpt>
      <trkpt lat="45.31506" lon="5.92784">
        <ele>247.27</ele>
        <time>2022-07-02T10:35:20.000Z</time>
      </trkpt>
      <trkpt lat="45.31516" lon="5.92759">
        <ele>249.98</ele>
        <time>2022-07-02T10:35:25.000Z</time>
      </trkpt>
      <trkpt lat="45.31526" lon="5.92734">
        <ele>252.13</ele>
        <time>2022-07-02T10:35:30.000Z</time>
      </trkpt>
      <trkpt lat="45.31537" lon="5.92708">
        <ele>251.56</ele>
        <time>2022-07-02T10:35:35.000Z</time>
      </trkpt>
      <trkpt lat="45.31548" lon="5.92683">
        <ele>252.84</ele>
        <time>2022-07-02T10:35:40.000Z</time>
      </trkpt>
      <trkpt lat="45.31558" lon="5.92659">
        <ele>253.65</ele>
        <time>2022-07-02T10:35:45.000Z</time>
      </trkpt>
      <trkpt lat="45.31568" lon="5.92635">
        <ele>255.49</ele>
        <time>2022-07-02T10:35:50.000Z</time>
      </trkpt>
      <trkpt lat="45.31578" lon="5.92611">
        <ele>257.08</ele>
        <time>2022-07-02T10:35:55.000Z</time>
      </trkpt>
      <trkpt lat="45.3159" lon="5.92591">
        <ele>257.71</ele>
        <time>2022-07-02T10:36:00.000Z</time>
      </trkpt>
      <trkpt lat="45.316" lon="5.92601">
        <ele>259.86</ele>
        <time>2022-07-02T10:36:05.000Z</time>
      </trkpt>
      <trkpt lat="45.31603" lon="5.92631">
        <ele>257.69</ele>
        <time>2022-07-02T10:36:10.000Z</time>
      </trkpt>
      <trkpt lat="45.31611" lon="5.92664">
        <ele>257.07</ele>
        <time>2022-07-02T10:36:15.000Z</time>
      </trkpt>
      <trkpt lat="45.31625" lon="5.92694">
        <ele>256.57</ele>
        <time>2022-07-02T10:36:20.000Z</time>
      </trkpt>
      <trkpt lat="45.31641" lon="5.92725">
        <ele>255.15</ele>
        <time>2022-07-02T10:36:25.000Z</time>
      </trkpt>
      <trkpt lat="45.31657" lon="5.92757">
        <ele>255.05</ele>
        <time>2022-07-02T10:36:30.000Z</time>
      </trkpt>
      <trkpt lat="45.31673" lon="5.92791">
        <ele>254.37</ele>
        <time>2022-07-02T10:36:35.000Z</time>
      </trkpt>
      <trkpt lat="45.31694" lon="5.9283">
        <ele>258.28</ele>
        <time>2022-07-02T10:36:40.000Z</time>
      </trkpt>
      <trkpt lat="45.3171" lon="5.92862">
        <ele>255.86</ele>
        <time>2022-07-02T10:36:45.000Z</time>
      </trkpt>
      <trkpt lat="45.31724" lon="5.92899">
        <ele>252.8</ele>
        <time>2022-07-02T10:36:50.000Z</time>
      </trkpt>
      <trkpt lat="45.31747" lon="5.9293">
        <ele>247.44</ele>
        <time>2022-07-02T10:36:55.000Z</time>
      </trkpt>
      <trkpt lat="45.31763" lon="5.92968">
        <ele>245.31</ele>
        <time>2022-07-02T10:37:00.000Z</time>
      </trkpt>
      <trkpt lat="45.31782" lon="5.93014">
        <ele>242.17</ele>
        <time>2022-07-02T10:37:05.000Z</time>
      </trkpt>
      <trkpt lat="45.31803" lon="5.93061">
        <ele>240.34</ele>
        <time>2022-07-02T10:37:10.000Z</time>
      </trkpt>
      <trkpt lat="45.31825" lon="5.9311">
        <ele>239.9</ele>
        <time>2022-07-02T10:37:15.000Z</time>
      </trkpt>
      <trkpt lat="45.3184" lon="5.93156">
        <ele>240.21</ele>
        <time>2022-07-02T10:37:20.000Z</time>
      </trkpt>
      <trkpt lat="45.31863" lon="5.93184">
        <ele>236.76</ele>
        <time>2022-07-02T10:37:25.000Z</time>
      </trkpt>
      <trkpt lat="45.31885" lon="5.93193">
        <ele>236.79</ele>
        <time>2022-07-02T10:37:30.000Z</time>
      </trkpt>
      <trkpt lat="45.31913" lon="5.93189">
        <ele>236.08</ele>
        <time>2022-07-02T10:37:35.000Z</time>
      </trkpt>
      <trkpt lat="45.31939" lon="5.93191">
        <ele>233.97</ele>
        <time>2022-07-02T10:37:40.000Z</time>
      </trkpt>
      <trkpt lat="45.31968" lon="5.932">
        <ele>235.19</ele>
        <time>2022-07-02T10:37:45.000Z</time>
      </trkpt>
      <trkpt lat="45.31995" lon="5.93219">
        <ele>237.19</ele>
        <time>2022-07-02T10:37:50.000Z</time>
      </trkpt>
      <trkpt lat="45.32015" lon="5.93239">
        <ele>233.86</ele>
        <time>2022-07-02T10:37:55.000Z</time>
      </trkpt>
      <trkpt lat="45.32039" lon="5.93265">
        <ele>233.2</ele>
        <time>2022-07-02T10:38:00.000Z</time>
      </trkpt>
      <trkpt lat="45.32057" lon="5.93283">
        <ele>233.85</ele>
        <time>2022-07-02T10:38:05.000Z</time>
      </trkpt>
      <trkpt lat="45.32079" lon="5.93308">
        <ele>233.16</ele>
        <time>2022-07-02T10:38:10.000Z</time>
      </trkpt>
      <trkpt lat="45.32097" lon="5.9333">
        <ele>235.71</ele>
        <time>2022-07-02T10:38:15.000Z</time>
      </trkpt>
      <trkpt lat="45.32115" lon="5.93355">
        <ele>238.04</ele>
        <time>2022-07-02T10:38:20.000Z</time>
      </trkpt>
      <trkpt lat="45.32133" lon="5.93379">
        <ele>236.37</ele>
        <time>2022-07-02T10:38:25.000Z</time>
      </trkpt>
      <trkpt lat="45.32145" lon="5.93404">
        <ele>240.58</ele>
        <time>2022-07-02T10:38:30.000Z</time>
      </trkpt>
      <trkpt lat="45.32152" lon="5.93426">
        <ele>241.68</ele>
        <time>2022-07-02T10:38:35.000Z</time>
      </trkpt>
      <trkpt lat="45.32161" lon="5.93439">
        <ele>242.51</ele>
        <time>2022-07-02T10:39:51.000Z</time>
      </trkpt>
      <trkpt lat="45.32173" lon="5.93461">
        <ele>239.01</ele>
        <time>2022-07-02T10:39:56.000Z</time>
      </trkpt>
      <trkpt lat="45.32191" lon="5.93489">
        <ele>241.6</ele>
        <time>2022-07-02T10:40:01.000Z</time>
      </trkpt>
      <trkpt lat="45.32204" lon="5.93512">
        <ele>240.66</ele>
        <time>2022-07-02T10:40:06.000Z</time>
      </trkpt>
      <trkpt lat="45.32215" lon="5.9353">
        <ele>239.03</ele>
        <time>2022-07-02T10:40:11.000Z</time>
      </trkpt>
      <trkpt lat="45.32211" lon="5.93553">
        <ele>240.73</ele>
        <time>2022-07-02T10:40:16.000Z</time>
      </trkpt>
      <trkpt lat="45.32195" lon="5.93573">
        <ele>238.57</ele>
        <time>2022-07-02T10:40:21.000Z</time>
      </trkpt>
      <trkpt lat="45.32179" lon="5.93602">
        <ele>237.68</ele>
        <time>2022-07-02T10:40:26.000Z</time>
      </trkpt>
      <trkpt lat="45.32158" lon="5.9363">
        <ele>236.34</ele>
        <time>2022-07-02T10:40:31.000Z</time>
      </trkpt>
      <trkpt lat="45.32136" lon="5.93663">
        <ele>234.97</ele>
        <time>2022-07-02T10:40:36.000Z</time>
      </trkpt>
      <trkpt lat="45.32113" lon="5.937">
        <ele>234.91</ele>
        <time>2022-07-02T10:40:41.000Z</time>
      </trkpt>
      <trkpt lat="45.32088" lon="5.93742">
        <ele>236.74</ele>
        <time>2022-07-02T10:40:46.000Z</time>
      </trkpt>
      <trkpt lat="45.32062" lon="5.9378">
        <ele>235.07</ele>
        <time>2022-07-02T10:40:51.000Z</time>
      </trkpt>
      <trkpt lat="45.32035" lon="5.93819">
        <ele>233.8</ele>
        <time>2022-07-02T10:40:56.000Z</time>
      </trkpt>
      <trkpt lat="45.3201" lon="5.93859">
        <ele>232.71</ele>
        <time>2022-07-02T10:41:01.000Z</time>
      </trkpt>
      <trkpt lat="45.31982" lon="5.939">
        <ele>231.92</ele>
        <time>2022-07-02T10:41:06.000Z</time>
      </trkpt>
      <trkpt lat="45.31957" lon="5.93944">
        <ele>233.57</ele>
        <time>2022-07-02T10:41:11.000Z</time>
      </trkpt>
      <trkpt lat="45.3193" lon="5.93983">
        <ele>233.19</ele>
        <time>2022-07-02T10:41:16.000Z</time>
      </trkpt>
      <trkpt lat="45.31909" lon="5.94016">
        <ele>233.99</ele>
        <time>2022-07-02T10:41:21.000Z</time>
      </trkpt>
      <trkpt lat="45.31893" lon="5.94043">
        <ele>234.8</ele>
        <time>2022-07-02T10:41:26.000Z</time>
      </trkpt>
      <trkpt lat="45.31877" lon="5.94066">
        <ele>234.58</ele>
        <time>2022-07-02T10:41:31.000Z</time>
      </trkpt>
      <trkpt lat="45.31863" lon="5.94092">
        <ele>236.1</ele>
        <time>2022-07-02T10:41:36.000Z</time>
      </trkpt>
      <trkpt lat="45.31846" lon="5.94119">
        <ele>237.45</ele>
        <time>2022-07-02T10:41:41.000Z</time>
      </trkpt>
      <trkpt lat="45.31829" lon="5.94146">
        <ele>239.07</ele>
        <time>2022-07-02T10:41:46.000Z</time>
      </trkpt>
      <trkpt lat="45.31809" lon="5.9417">
        <ele>237.58</ele>
        <time>2022-07-02T10:41:51.000Z</time>
      </trkpt>
      <trkpt lat="45.31794" lon="5.94193">
        <ele>236.73</ele>
        <time>2022-07-02T10:41:56.000Z</time>
      </trkpt>
      <trkpt lat="45.31777" lon="5.94223">
        <ele>238.35</ele>
        <time>2022-07-02T10:42:01.000Z</time>
      </trkpt>
      <trkpt lat="45.31758" lon="5.94248">
        <ele>238.11</ele>
        <time>2022-07-02T10:42:06.000Z</time>
      </trkpt>
      <trkpt lat="45.31738" lon="5.9428">
        <ele>238.47</ele>
        <time>2022-07-02T10:42:11.000Z</time>
      </trkpt>
      <trkpt lat="45.31718" lon="5.9431">
        <ele>239.44</ele>
        <time>2022-07-02T10:42:16.000Z</time>
      </trkpt>
      <trkpt lat="45.31698" lon="5.94344">
        <ele>238.38</ele>
        <time>2022-07-02T10:42:21.000Z</time>
      </trkpt>
      <trkpt lat="45.31675" lon="5.94378">
        <ele>237.72</ele>
        <time>2022-07-02T10:42:26.000Z</time>
      </trkpt>
      <trkpt lat="45.31653" lon="5.9441">
        <ele>234.93</ele>
        <time>2022-07-02T10:42:31.000Z</time>
      </trkpt>
      <trkpt lat="45.31632" lon="5.94447">
        <ele>233.09</ele>
        <time>2022-07-02T10:42:36.000Z</time>
      </trkpt>
      <trkpt lat="45.3161" lon="5.94475">
        <ele>230.3</ele>
        <time>2022-07-02T10:42:41.000Z</time>
      </trkpt>
      <trkpt lat="45.3159" lon="5.94502">
        <ele>228.61</ele>
        <time>2022-07-02T10:42:46.000Z</time>
      </trkpt>
      <trkpt lat="45.31573" lon="5.94533">
        <ele>229.88</ele>
        <time>2022-07-02T10:42:51.000Z</time>
      </trkpt>
      <trkpt lat="45.31556" lon="5.9456">
        <ele>229.56</ele>
        <time>2022-07-02T10:42:56.000Z</time>
      </trkpt>
      <trkpt lat="45.31539" lon="5.94588">
        <ele>229.59</ele>
        <time>2022-07-02T10:43:01.000Z</time>
      </trkpt>
      <trkpt lat="45.31516" lon="5.94615">
        <ele>223.89</ele>
        <time>2022-07-02T10:43:06.000Z</time>
      </trkpt>
      <trkpt lat="45.31497" lon="5.94646">
        <ele>220.54</ele>
        <time>2022-07-02T10:43:11.000Z</time>
      </trkpt>
      <trkpt lat="45.31474" lon="5.94686">
        <ele>220.66</ele>
        <time>2022-07-02T10:43:16.000Z</time>
      </trkpt>
      <trkpt lat="45.31448" lon="5.94726">
        <ele>219.43</ele>
        <time>2022-07-02T10:43:21.000Z</time>
      </trkpt>
      <trkpt lat="45.31423" lon="5.94771">
        <ele>219.86</ele>
        <time>2022-07-02T10:43:26.000Z</time>
      </trkpt>
      <trkpt lat="45.31399" lon="5.94817">
        <ele>220.11</ele>
        <time>2022-07-02T10:43:31.000Z</time>
      </trkpt>
      <trkpt lat="45.31379" lon="5.94852">
        <ele>221.82</ele>
        <time>2022-07-02T10:43:36.000Z</time>
      </trkpt>
      <trkpt lat="45.31354" lon="5.94882">
        <ele>221.73</ele>
        <time>2022-07-02T10:43:41.000Z</time>
      </trkpt>
      <trkpt lat="45.31332" lon="5.94911">
        <ele>223.31</ele>
        <time>2022-07-02T10:43:46.000Z</time>
      </trkpt>
      <trkpt lat="45.31313" lon="5.9494">
        <ele>223.71</ele>
        <time>2022-07-02T10:43:51.000Z</time>
      </trkpt>
      <trkpt lat="45.31295" lon="5.94968">
        <ele>224.15</ele>
        <time>2022-07-02T10:43:56.000Z</time>
      </trkpt>
      <trkpt lat="45.31279" lon="5.94996">
        <ele>224.58</ele>
        <time>2022-07-02T10:44:01.000Z</time>
      </trkpt>
      <trkpt lat="45.31262" lon="5.95025">
        <ele>225.34</ele>
        <time>2022-07-02T10:44:06.000Z</time>
      </trkpt>
      <trkpt lat="45.31245" lon="5.95051">
        <ele>225.5</ele>
        <time>2022-07-02T10:44:11.000Z</time>
      </trkpt>
      <trkpt lat="45.31226" lon="5.95082">
        <ele>227.23</ele>
        <time>2022-07-02T10:44:16.000Z</time>
      </trkpt>
      <trkpt lat="45.31209" lon="5.95115">
        <ele>229.31</ele>
        <time>2022-07-02T10:44:21.000Z</time>
      </trkpt>
      <trkpt lat="45.31191" lon="5.95141">
        <ele>231.77</ele>
        <time>2022-07-02T10:44:26.000Z</time>
      </trkpt>
      <trkpt lat="45.31172" lon="5.9517">
        <ele>232.01</ele>
        <time>2022-07-02T10:44:31.000Z</time>
      </trkpt>
      <trkpt lat="45.31153" lon="5.952">
        <ele>229.76</ele>
        <time>2022-07-02T10:44:36.000Z</time>
      </trkpt>
      <trkpt lat="45.31134" lon="5.95231">
        <ele>229.04</ele>
        <time>2022-07-02T10:44:41.000Z</time>
      </trkpt>
      <trkpt lat="45.31116" lon="5.95261">
        <ele>228.92</ele>
        <time>2022-07-02T10:44:46.000Z</time>
      </trkpt>
      <trkpt lat="45.31098" lon="5.95293">
        <ele>227.36</ele>
        <time>2022-07-02T10:44:51.000Z</time>
      </trkpt>
      <trkpt lat="45.31078" lon="5.95325">
        <ele>228.9</ele>
        <time>2022-07-02T10:44:56.000Z</time>
      </trkpt>
      <trkpt lat="45.31054" lon="5.95356">
        <ele>233.75</ele>
        <time>2022-07-02T10:45:01.000Z</time>
      </trkpt>
      <trkpt lat="45.31033" lon="5.95391">
        <ele>234.71</ele>
        <time>2022-07-02T10:45:06.000Z</time>
      </trkpt>
      <trkpt lat="45.31014" lon="5.95424">
        <ele>237.29</ele>
        <time>2022-07-02T10:45:11.000Z</time>
      </trkpt>
      <trkpt lat="45.30993" lon="5.95455">
        <ele>239.39</ele>
        <time>2022-07-02T10:45:16.000Z</time>
      </trkpt>
      <trkpt lat="45.30973" lon="5.95485">
        <ele>239.77</ele>
        <time>2022-07-02T10:45:21.000Z</time>
      </trkpt>
      <trkpt lat="45.30952" lon="5.9552">
        <ele>240.84</ele>
        <time>2022-07-02T10:45:26.000Z</time>
      </trkpt>
      <trkpt lat="45.30932" lon="5.95551">
        <ele>240.25</ele>
        <time>2022-07-02T10:45:31.000Z</time>
      </trkpt>
      <trkpt lat="45.30916" lon="5.95581">
        <ele>240.71</ele>
        <time>2022-07-02T10:45:36.000Z</time>
      </trkpt>
      <trkpt lat="45.30895" lon="5.95605">
        <ele>241.73</ele>
        <time>2022-07-02T10:45:41.000Z</time>
      </trkpt>
      <trkpt lat="45.30875" lon="5.95633">
        <ele>241</ele>
        <time>2022-07-02T10:45:46.000Z</time>
      </trkpt>
      <trkpt lat="45.30856" lon="5.95663">
        <ele>243.46</ele>
        <time>2022-07-02T10:45:51.000Z</time>
      </trkpt>
      <trkpt lat="45.30836" lon="5.95688">
        <ele>244.9</ele>
        <time>2022-07-02T10:45:56.000Z</time>
      </trkpt>
      <trkpt lat="45.30829" lon="5.95706">
        <ele>248.82</ele>
        <time>2022-07-02T10:46:01.000Z</time>
      </trkpt>
      <trkpt lat="45.30819" lon="5.95722">
        <ele>249.08</ele>
        <time>2022-07-02T10:46:06.000Z</time>
      </trkpt>
      <trkpt lat="45.30806" lon="5.9574">
        <ele>247.9</ele>
        <time>2022-07-02T10:46:11.000Z</time>
      </trkpt>
      <trkpt lat="45.30795" lon="5.95748">
        <ele>249.34</ele>
        <time>2022-07-02T10:46:16.000Z</time>
      </trkpt>
      <trkpt lat="45.30782" lon="5.95733">
        <ele>250.7</ele>
        <time>2022-07-02T10:46:21.000Z</time>
      </trkpt>
      <trkpt lat="45.30763" lon="5.95714">
        <ele>250.04</ele>
        <time>2022-07-02T10:46:26.000Z</time>
      </trkpt>
      <trkpt lat="45.30741" lon="5.95695">
        <ele>249.07</ele>
        <time>2022-07-02T10:46:31.000Z</time>
      </trkpt>
      <trkpt lat="45.30718" lon="5.95671">
        <ele>247.95</ele>
        <time>2022-07-02T10:46:36.000Z</time>
      </trkpt>
      <trkpt lat="45.30693" lon="5.95645">
        <ele>245.75</ele>
        <time>2022-07-02T10:46:41.000Z</time>
      </trkpt>
      <trkpt lat="45.30667" lon="5.95622">
        <ele>242.25</ele>
        <time>2022-07-02T10:46:46.000Z</time>
      </trkpt>
      <trkpt lat="45.30638" lon="5.95597">
        <ele>241.62</ele>
        <time>2022-07-02T10:46:51.000Z</time>
      </trkpt>
      <trkpt lat="45.30607" lon="5.95567">
        <ele>238.87</ele>
        <time>2022-07-02T10:46:56.000Z</time>
      </trkpt>
      <trkpt lat="45.30573" lon="5.95532">
        <ele>237.67</ele>
        <time>2022-07-02T10:47:01.000Z</time>
      </trkpt>
      <trkpt lat="45.3054" lon="5.95497">
        <ele>237.03</ele>
        <time>2022-07-02T10:47:06.000Z</time>
      </trkpt>
      <trkpt lat="45.30503" lon="5.95465">
        <ele>236.66</ele>
        <time>2022-07-02T10:47:11.000Z</time>
      </trkpt>
      <trkpt lat="45.30471" lon="5.95438">
        <ele>235.47</ele>
        <time>2022-07-02T10:47:16.000Z</time>
      </trkpt>
      <trkpt lat="45.30445" lon="5.95412">
        <ele>233.7</ele>
        <time>2022-07-02T10:47:21.000Z</time>
      </trkpt>
      <trkpt lat="45.30415" lon="5.95377">
        <ele>235.34</ele>
        <time>2022-07-02T10:47:26.000Z</time>
      </trkpt>
      <trkpt lat="45.30389" lon="5.95339">
        <ele>234.99</ele>
        <time>2022-07-02T10:47:31.000Z</time>
      </trkpt>
      <trkpt lat="45.30379" lon="5.9536">
        <ele>234.06</ele>
        <time>2022-07-02T10:47:36.000Z</time>
      </trkpt>
      <trkpt lat="45.30398" lon="5.95375">
        <ele>235.59</ele>
        <time>2022-07-02T10:47:41.000Z</time>
      </trkpt>
      <trkpt lat="45.30419" lon="5.95393">
        <ele>234.1</ele>
        <time>2022-07-02T10:47:46.000Z</time>
      </trkpt>
      <trkpt lat="45.30439" lon="5.95413">
        <ele>234.01</ele>
        <time>2022-07-02T10:47:51.000Z</time>
      </trkpt>
      <trkpt lat="45.3046" lon="5.95432">
        <ele>235.2</ele>
        <time>2022-07-02T10:47:56.000Z</time>
      </trkpt>
      <trkpt lat="45.30453" lon="5.95463">
        <ele>235.02</ele>
        <time>2022-07-02T10:48:01.000Z</time>
      </trkpt>
      <trkpt lat="45.30444" lon="5.95495">
        <ele>233.46</ele>
        <time>2022-07-02T10:48:06.000Z</time>
      </trkpt>
      <trkpt lat="45.30434" lon="5.95526">
        <ele>232.77</ele>
        <time>2022-07-02T10:48:11.000Z</time>
      </trkpt>
      <trkpt lat="45.30421" lon="5.95551">
        <ele>235.27</ele>
        <time>2022-07-02T10:48:16.000Z</time>
      </trkpt>
      <trkpt lat="45.30409" lon="5.95575">
        <ele>239.51</ele>
        <time>2022-07-02T10:48:21.000Z</time>
      </trkpt>
      <trkpt lat="45.30399" lon="5.95604">
        <ele>240.29</ele>
        <time>2022-07-02T10:48:26.000Z</time>
      </trkpt>
      <trkpt lat="45.30389" lon="5.95632">
        <ele>241.82</ele>
        <time>2022-07-02T10:48:31.000Z</time>
      </trkpt>
      <trkpt lat="45.30379" lon="5.95659">
        <ele>241.93</ele>
        <time>2022-07-02T10:48:36.000Z</time>
      </trkpt>
      <trkpt lat="45.3037" lon="5.95687">
        <ele>239.7</ele>
        <time>2022-07-02T10:48:41.000Z</time>
      </trkpt>
      <trkpt lat="45.30362" lon="5.95711">
        <ele>238.16</ele>
        <time>2022-07-02T10:48:46.000Z</time>
      </trkpt>
      <trkpt lat="45.30351" lon="5.95737">
        <ele>239.67</ele>
        <time>2022-07-02T10:48:51.000Z</time>
      </trkpt>
      <trkpt lat="45.30338" lon="5.95768">
        <ele>240.73</ele>
        <time>2022-07-02T10:48:56.000Z</time>
      </trkpt>
      <trkpt lat="45.30315" lon="5.95771">
        <ele>241.92</ele>
        <time>2022-07-02T10:49:01.000Z</time>
      </trkpt>
      <trkpt lat="45.30295" lon="5.95771">
        <ele>242.21</ele>
        <time>2022-07-02T10:49:06.000Z</time>
      </trkpt>
      <trkpt lat="45.30279" lon="5.95769">
        <ele>243.54</ele>
        <time>2022-07-02T10:49:11.000Z</time>
      </trkpt>
      <trkpt lat="45.30263" lon="5.95768">
        <ele>243.99</ele>
        <time>2022-07-02T10:49:16.000Z</time>
      </trkpt>
      <trkpt lat="45.30247" lon="5.95763">
        <ele>247.28</ele>
        <time>2022-07-02T10:49:21.000Z</time>
      </trkpt>
      <trkpt lat="45.30233" lon="5.9575">
        <ele>247.83</ele>
        <time>2022-07-02T10:49:26.000Z</time>
      </trkpt>
      <trkpt lat="45.30219" lon="5.95738">
        <ele>247.62</ele>
        <time>2022-07-02T10:49:31.000Z</time>
      </trkpt>
      <trkpt lat="45.30206" lon="5.95726">
        <ele>248.63</ele>
        <time>2022-07-02T10:49:36.000Z</time>
      </trkpt>
      <trkpt lat="45.30191" lon="5.95713">
        <ele>249.74</ele>
        <time>2022-07-02T10:49:41.000Z</time>
      </trkpt>
      <trkpt lat="45.30177" lon="5.95707">
        <ele>251.74</ele>
        <time>2022-07-02T10:49:46.000Z</time>
      </trkpt>
      <trkpt lat="45.30166" lon="5.95705">
        <ele>253.11</ele>
        <time>2022-07-02T10:49:51.000Z</time>
      </trkpt>
      <trkpt lat="45.30151" lon="5.95704">
        <ele>252.09</ele>
        <time>2022-07-02T10:49:56.000Z</time>
      </trkpt>
      <trkpt lat="45.30137" lon="5.95704">
        <ele>254.03</ele>
        <time>2022-07-02T10:50:01.000Z</time>
      </trkpt>
      <trkpt lat="45.3012" lon="5.957">
        <ele>251.99</ele>
        <time>2022-07-02T10:50:06.000Z</time>
      </trkpt>
      <trkpt lat="45.30103" lon="5.95696">
        <ele>250.3</ele>
        <time>2022-07-02T10:50:11.000Z</time>
      </trkpt>
      <trkpt lat="45.30088" lon="5.9569">
        <ele>244.27</ele>
        <time>2022-07-02T10:50:16.000Z</time>
      </trkpt>
      <trkpt lat="45.30071" lon="5.95687">
        <ele>246.67</ele>
        <time>2022-07-02T10:50:21.000Z</time>
      </trkpt>
      <trkpt lat="45.30055" lon="5.95692">
        <ele>240.83</ele>
        <time>2022-07-02T10:50:26.000Z</time>
      </trkpt>
      <trkpt lat="45.30035" lon="5.9568">
        <ele>242.52</ele>
        <time>2022-07-02T10:50:31.000Z</time>
      </trkpt>
      <trkpt lat="45.30017" lon="5.95659">
        <ele>245.23</ele>
        <time>2022-07-02T10:50:36.000Z</time>
      </trkpt>
      <trkpt lat="45.29996" lon="5.95644">
        <ele>255.32</ele>
        <time>2022-07-02T10:50:41.000Z</time>
      </trkpt>
      <trkpt lat="45.29979" lon="5.9563">
        <ele>257.97</ele>
        <time>2022-07-02T10:50:46.000Z</time>
      </trkpt>
      <trkpt lat="45.29965" lon="5.95619">
        <ele>262.14</ele>
        <time>2022-07-02T10:50:51.000Z</time>
      </trkpt>
      <trkpt lat="45.29953" lon="5.95611">
        <ele>263.26</ele>
        <time>2022-07-02T10:50:56.000Z</time>
      </trkpt>
      <trkpt lat="45.29939" lon="5.95607">
        <ele>262.16</ele>
        <time>2022-07-02T10:51:01.000Z</time>
      </trkpt>
      <trkpt lat="45.29926" lon="5.95604">
        <ele>261.89</ele>
        <time>2022-07-02T10:51:06.000Z</time>
      </trkpt>
      <trkpt lat="45.29912" lon="5.95595">
        <ele>263.92</ele>
        <time>2022-07-02T10:51:11.000Z</time>
      </trkpt>
      <trkpt lat="45.29895" lon="5.95582">
        <ele>263.85</ele>
        <time>2022-07-02T10:51:16.000Z</time>
      </trkpt>
      <trkpt lat="45.2988" lon="5.95568">
        <ele>265.88</ele>
        <time>2022-07-02T10:51:21.000Z</time>
      </trkpt>
      <trkpt lat="45.29865" lon="5.95559">
        <ele>265.88</ele>
        <time>2022-07-02T10:51:26.000Z</time>
      </trkpt>
      <trkpt lat="45.29849" lon="5.9555">
        <ele>267.19</ele>
        <time>2022-07-02T10:51:31.000Z</time>
      </trkpt>
      <trkpt lat="45.29833" lon="5.95543">
        <ele>262.84</ele>
        <time>2022-07-02T10:51:36.000Z</time>
      </trkpt>
      <trkpt lat="45.29817" lon="5.95539">
        <ele>261.35</ele>
        <time>2022-07-02T10:51:41.000Z</time>
      </trkpt>
      <trkpt lat="45.29801" lon="5.95533">
        <ele>262.22</ele>
        <time>2022-07-02T10:51:46.000Z</time>
      </trkpt>
      <trkpt lat="45.29783" lon="5.95532">
        <ele>261.71</ele>
        <time>2022-07-02T10:51:51.000Z</time>
      </trkpt>
      <trkpt lat="45.29764" lon="5.95535">
        <ele>258.03</ele>
        <time>2022-07-02T10:51:56.000Z</time>
      </trkpt>
      <trkpt lat="45.29738" lon="5.95536">
        <ele>264.93</ele>
        <time>2022-07-02T10:52:01.000Z</time>
      </trkpt>
      <trkpt lat="45.29716" lon="5.9555">
        <ele>264.91</ele>
        <time>2022-07-02T10:52:06.000Z</time>
      </trkpt>
      <trkpt lat="45.297" lon="5.95544">
        <ele>271.47</ele>
        <time>2022-07-02T10:52:11.000Z</time>
      </trkpt>
      <trkpt lat="45.29697" lon="5.95504">
        <ele>281.98</ele>
        <time>2022-07-02T10:52:16.000Z</time>
      </trkpt>
      <trkpt lat="45.29686" lon="5.95475">
        <ele>289.59</ele>
        <time>2022-07-02T10:52:21.000Z</time>
      </trkpt>
      <trkpt lat="45.2967" lon="5.95457">
        <ele>292.38</ele>
        <time>2022-07-02T10:52:26.000Z</time>
      </trkpt>
      <trkpt lat="45.29654" lon="5.9545">
        <ele>291.91</ele>
        <time>2022-07-02T10:52:31.000Z</time>
      </trkpt>
      <trkpt lat="45.29638" lon="5.95444">
        <ele>292.26</ele>
        <time>2022-07-02T10:52:36.000Z</time>
      </trkpt>
      <trkpt lat="45.29626" lon="5.95437">
        <ele>291.44</ele>
        <time>2022-07-02T10:52:41.000Z</time>
      </trkpt>
      <trkpt lat="45.2961" lon="5.95427">
        <ele>293.64</ele>
        <time>2022-07-02T10:52:46.000Z</time>
      </trkpt>
      <trkpt lat="45.29595" lon="5.95417">
        <ele>296.34</ele>
        <time>2022-07-02T10:52:51.000Z</time>
      </trkpt>
      <trkpt lat="45.29581" lon="5.9541">
        <ele>295.38</ele>
        <time>2022-07-02T10:52:56.000Z</time>
      </trkpt>
      <trkpt lat="45.29566" lon="5.95405">
        <ele>299.11</ele>
        <time>2022-07-02T10:53:01.000Z</time>
      </trkpt>
      <trkpt lat="45.29552" lon="5.954">
        <ele>302.71</ele>
        <time>2022-07-02T10:53:06.000Z</time>
      </trkpt>
      <trkpt lat="45.29537" lon="5.95392">
        <ele>305.27</ele>
        <time>2022-07-02T10:53:11.000Z</time>
      </trkpt>
      <trkpt lat="45.29518" lon="5.95386">
        <ele>307.25</ele>
        <time>2022-07-02T10:53:16.000Z</time>
      </trkpt>
      <trkpt lat="45.29498" lon="5.95377">
        <ele>308.78</ele>
        <time>2022-07-02T10:53:21.000Z</time>
      </trkpt>
      <trkpt lat="45.2948" lon="5.95367">
        <ele>314.22</ele>
        <time>2022-07-02T10:53:26.000Z</time>
      </trkpt>
      <trkpt lat="45.29464" lon="5.95356">
        <ele>315.59</ele>
        <time>2022-07-02T10:53:31.000Z</time>
      </trkpt>
      <trkpt lat="45.29443" lon="5.95353">
        <ele>315.94</ele>
        <time>2022-07-02T10:53:36.000Z</time>
      </trkpt>
      <trkpt lat="45.29428" lon="5.95355">
        <ele>317.54</ele>
        <time>2022-07-02T10:53:41.000Z</time>
      </trkpt>
      <trkpt lat="45.29413" lon="5.95336">
        <ele>318.32</ele>
        <time>2022-07-02T10:53:46.000Z</time>
      </trkpt>
      <trkpt lat="45.29396" lon="5.95319">
        <ele>320.83</ele>
        <time>2022-07-02T10:53:51.000Z</time>
      </trkpt>
      <trkpt lat="45.29377" lon="5.95306">
        <ele>326.38</ele>
        <time>2022-07-02T10:53:56.000Z</time>
      </trkpt>
      <trkpt lat="45.29355" lon="5.95286">
        <ele>334.44</ele>
        <time>2022-07-02T10:54:01.000Z</time>
      </trkpt>
      <trkpt lat="45.29335" lon="5.95273">
        <ele>336.66</ele>
        <time>2022-07-02T10:54:06.000Z</time>
      </trkpt>
      <trkpt lat="45.29321" lon="5.95261">
        <ele>342.69</ele>
        <time>2022-07-02T10:54:11.000Z</time>
      </trkpt>
      <trkpt lat="45.29305" lon="5.95274">
        <ele>342.09</ele>
        <time>2022-07-02T10:54:16.000Z</time>
      </trkpt>
      <trkpt lat="45.29309" lon="5.95296">
        <ele>343.85</ele>
        <time>2022-07-02T10:54:21.000Z</time>
      </trkpt>
      <trkpt lat="45.29331" lon="5.953">
        <ele>346.54</ele>
        <time>2022-07-02T10:54:26.000Z</time>
      </trkpt>
      <trkpt lat="45.29351" lon="5.95304">
        <ele>346.11</ele>
        <time>2022-07-02T10:54:31.000Z</time>
      </trkpt>
      <trkpt lat="45.29367" lon="5.95323">
        <ele>349.65</ele>
        <time>2022-07-02T10:54:36.000Z</time>
      </trkpt>
      <trkpt lat="45.29376" lon="5.95347">
        <ele>349.91</ele>
        <time>2022-07-02T10:54:41.000Z</time>
      </trkpt>
      <trkpt lat="45.29379" lon="5.95367">
        <ele>351.07</ele>
        <time>2022-07-02T10:54:46.000Z</time>
      </trkpt>
      <trkpt lat="45.29391" lon="5.95384">
        <ele>356.17</ele>
        <time>2022-07-02T10:54:51.000Z</time>
      </trkpt>
      <trkpt lat="45.29407" lon="5.95395">
        <ele>357.8</ele>
        <time>2022-07-02T10:54:56.000Z</time>
      </trkpt>
      <trkpt lat="45.29426" lon="5.95411">
        <ele>353.36</ele>
        <time>2022-07-02T10:55:01.000Z</time>
      </trkpt>
      <trkpt lat="45.29438" lon="5.95427">
        <ele>353.55</ele>
        <time>2022-07-02T10:55:06.000Z</time>
      </trkpt>
      <trkpt lat="45.29451" lon="5.95443">
        <ele>354.67</ele>
        <time>2022-07-02T10:55:11.000Z</time>
      </trkpt>
      <trkpt lat="45.29467" lon="5.95459">
        <ele>358.46</ele>
        <time>2022-07-02T10:55:16.000Z</time>
      </trkpt>
      <trkpt lat="45.29485" lon="5.95478">
        <ele>360.94</ele>
        <time>2022-07-02T10:55:21.000Z</time>
      </trkpt>
      <trkpt lat="45.295" lon="5.95491">
        <ele>365.07</ele>
        <time>2022-07-02T10:55:26.000Z</time>
      </trkpt>
      <trkpt lat="45.29517" lon="5.95507">
        <ele>364.74</ele>
        <time>2022-07-02T10:55:31.000Z</time>
      </trkpt>
      <trkpt lat="45.29534" lon="5.9552">
        <ele>366.27</ele>
        <time>2022-07-02T10:55:36.000Z</time>
      </trkpt>
      <trkpt lat="45.29548" lon="5.95531">
        <ele>366.71</ele>
        <time>2022-07-02T10:55:41.000Z</time>
      </trkpt>
      <trkpt lat="45.29566" lon="5.95545">
        <ele>367.61</ele>
        <time>2022-07-02T10:55:46.000Z</time>
      </trkpt>
      <trkpt lat="45.29582" lon="5.95563">
        <ele>369.83</ele>
        <time>2022-07-02T10:55:51.000Z</time>
      </trkpt>
      <trkpt lat="45.29595" lon="5.9558">
        <ele>368.31</ele>
        <time>2022-07-02T10:55:56.000Z</time>
      </trkpt>
      <trkpt lat="45.2961" lon="5.95598">
        <ele>370.01</ele>
        <time>2022-07-02T10:56:01.000Z</time>
      </trkpt>
      <trkpt lat="45.29622" lon="5.9561">
        <ele>372.66</ele>
        <time>2022-07-02T10:56:06.000Z</time>
      </trkpt>
      <trkpt lat="45.29638" lon="5.95628">
        <ele>374.62</ele>
        <time>2022-07-02T10:56:11.000Z</time>
      </trkpt>
      <trkpt lat="45.29648" lon="5.95646">
        <ele>374.91</ele>
        <time>2022-07-02T10:56:16.000Z</time>
      </trkpt>
      <trkpt lat="45.29649" lon="5.95668">
        <ele>371</ele>
        <time>2022-07-02T10:56:21.000Z</time>
      </trkpt>
      <trkpt lat="45.29652" lon="5.95692">
        <ele>375.29</ele>
        <time>2022-07-02T10:56:26.000Z</time>
      </trkpt>
      <trkpt lat="45.29657" lon="5.95712">
        <ele>378.86</ele>
        <time>2022-07-02T10:56:31.000Z</time>
      </trkpt>
      <trkpt lat="45.29667" lon="5.95733">
        <ele>382.23</ele>
        <time>2022-07-02T10:56:36.000Z</time>
      </trkpt>
      <trkpt lat="45.29687" lon="5.9575">
        <ele>383.94</ele>
        <time>2022-07-02T10:56:41.000Z</time>
      </trkpt>
      <trkpt lat="45.29704" lon="5.95762">
        <ele>383.91</ele>
        <time>2022-07-02T10:56:46.000Z</time>
      </trkpt>
      <trkpt lat="45.29719" lon="5.95771">
        <ele>385.78</ele>
        <time>2022-07-02T10:56:51.000Z</time>
      </trkpt>
      <trkpt lat="45.29737" lon="5.9578">
        <ele>385.24</ele>
        <time>2022-07-02T10:56:56.000Z</time>
      </trkpt>
      <trkpt lat="45.29757" lon="5.95789">
        <ele>386.21</ele>
        <time>2022-07-02T10:57:01.000Z</time>
      </trkpt>
      <trkpt lat="45.29774" lon="5.95798">
        <ele>387.69</ele>
        <time>2022-07-02T10:57:06.000Z</time>
      </trkpt>
      <trkpt lat="45.29777" lon="5.95823">
        <ele>392.24</ele>
        <time>2022-07-02T10:57:11.000Z</time>
      </trkpt>
      <trkpt lat="45.29765" lon="5.95837">
        <ele>395.58</ele>
        <time>2022-07-02T10:57:16.000Z</time>
      </trkpt>
      <trkpt lat="45.29745" lon="5.95809">
        <ele>393.53</ele>
        <time>2022-07-02T10:57:21.000Z</time>
      </trkpt>
      <trkpt lat="45.29729" lon="5.95805">
        <ele>392.79</ele>
        <time>2022-07-02T10:57:26.000Z</time>
      </trkpt>
      <trkpt lat="45.29715" lon="5.95804">
        <ele>392.97</ele>
        <time>2022-07-02T10:57:31.000Z</time>
      </trkpt>
      <trkpt lat="45.29699" lon="5.9581">
        <ele>397.02</ele>
        <time>2022-07-02T10:57:36.000Z</time>
      </trkpt>
      <trkpt lat="45.29683" lon="5.95816">
        <ele>397.38</ele>
        <time>2022-07-02T10:57:41.000Z</time>
      </trkpt>
      <trkpt lat="45.29666" lon="5.958">
        <ele>402.32</ele>
        <time>2022-07-02T10:57:46.000Z</time>
      </trkpt>
      <trkpt lat="45.29649" lon="5.95777">
        <ele>406.39</ele>
        <time>2022-07-02T10:57:51.000Z</time>
      </trkpt>
      <trkpt lat="45.29632" lon="5.95761">
        <ele>411.91</ele>
        <time>2022-07-02T10:57:56.000Z</time>
      </trkpt>
      <trkpt lat="45.29616" lon="5.9575">
        <ele>410.11</ele>
        <time>2022-07-02T10:58:01.000Z</time>
      </trkpt>
      <trkpt lat="45.29604" lon="5.95736">
        <ele>410.18</ele>
        <time>2022-07-02T10:58:06.000Z</time>
      </trkpt>
      <trkpt lat="45.2959" lon="5.95727">
        <ele>408.57</ele>
        <time>2022-07-02T10:58:11.000Z</time>
      </trkpt>
      <trkpt lat="45.29572" lon="5.95719">
        <ele>410.34</ele>
        <time>2022-07-02T10:58:16.000Z</time>
      </trkpt>
      <trkpt lat="45.29554" lon="5.95713">
        <ele>414.23</ele>
        <time>2022-07-02T10:58:21.000Z</time>
      </trkpt>
      <trkpt lat="45.29536" lon="5.95708">
        <ele>419.48</ele>
        <time>2022-07-02T10:58:26.000Z</time>
      </trkpt>
      <trkpt lat="45.29521" lon="5.95706">
        <ele>424.62</ele>
        <time>2022-07-02T10:58:31.000Z</time>
      </trkpt>
      <trkpt lat="45.29502" lon="5.95702">
        <ele>429.5</ele>
        <time>2022-07-02T10:58:36.000Z</time>
      </trkpt>
      <trkpt lat="45.29486" lon="5.957">
        <ele>428.65</ele>
        <time>2022-07-02T10:58:41.000Z</time>
      </trkpt>
      <trkpt lat="45.2947" lon="5.95696">
        <ele>428.74</ele>
        <time>2022-07-02T10:58:46.000Z</time>
      </trkpt>
      <trkpt lat="45.29452" lon="5.9569">
        <ele>429.58</ele>
        <time>2022-07-02T10:58:51.000Z</time>
      </trkpt>
      <trkpt lat="45.2944" lon="5.95679">
        <ele>428.45</ele>
        <time>2022-07-02T10:58:56.000Z</time>
      </trkpt>
      <trkpt lat="45.29427" lon="5.95665">
        <ele>430.08</ele>
        <time>2022-07-02T10:59:01.000Z</time>
      </trkpt>
      <trkpt lat="45.29414" lon="5.9565">
        <ele>435.01</ele>
        <time>2022-07-02T10:59:06.000Z</time>
      </trkpt>
      <trkpt lat="45.29399" lon="5.95636">
        <ele>436.25</ele>
        <time>2022-07-02T10:59:11.000Z</time>
      </trkpt>
      <trkpt lat="45.29379" lon="5.95629">
        <ele>437.54</ele>
        <time>2022-07-02T10:59:16.000Z</time>
      </trkpt>
      <trkpt lat="45.29362" lon="5.95621">
        <ele>441.79</ele>
        <time>2022-07-02T10:59:21.000Z</time>
      </trkpt>
      <trkpt lat="45.29345" lon="5.95608">
        <ele>443.03</ele>
        <time>2022-07-02T10:59:26.000Z</time>
      </trkpt>
      <trkpt lat="45.29328" lon="5.95595">
        <ele>442.63</ele>
        <time>2022-07-02T10:59:31.000Z</time>
      </trkpt>
      <trkpt lat="45.29313" lon="5.95584">
        <ele>443.86</ele>
        <time>2022-07-02T10:59:36.000Z</time>
      </trkpt>
      <trkpt lat="45.293" lon="5.95569">
        <ele>445.67</ele>
        <time>2022-07-02T10:59:41.000Z</time>
      </trkpt>
      <trkpt lat="45.29286" lon="5.95559">
        <ele>450.15</ele>
        <time>2022-07-02T10:59:46.000Z</time>
      </trkpt>
      <trkpt lat="45.2927" lon="5.95557">
        <ele>452.01</ele>
        <time>2022-07-02T10:59:51.000Z</time>
      </trkpt>
      <trkpt lat="45.29257" lon="5.95569">
        <ele>449.44</ele>
        <time>2022-07-02T10:59:56.000Z</time>
      </trkpt>
      <trkpt lat="45.29253" lon="5.95594">
        <ele>452.49</ele>
        <time>2022-07-02T11:00:01.000Z</time>
      </trkpt>
      <trkpt lat="45.29246" lon="5.95617">
        <ele>452.56</ele>
        <time>2022-07-02T11:00:06.000Z</time>
      </trkpt>
      <trkpt lat="45.29231" lon="5.95635">
        <ele>453.42</ele>
        <time>2022-07-02T11:00:11.000Z</time>
      </trkpt>
      <trkpt lat="45.29214" lon="5.95642">
        <ele>456.97</ele>
        <time>2022-07-02T11:00:16.000Z</time>
      </trkpt>
      <trkpt lat="45.29198" lon="5.95643">
        <ele>461.03</ele>
        <time>2022-07-02T11:00:21.000Z</time>
      </trkpt>
      <trkpt lat="45.29183" lon="5.95641">
        <ele>467.67</ele>
        <time>2022-07-02T11:00:26.000Z</time>
      </trkpt>
      <trkpt lat="45.29164" lon="5.95633">
        <ele>471.41</ele>
        <time>2022-07-02T11:00:31.000Z</time>
      </trkpt>
      <trkpt lat="45.2915" lon="5.95653">
        <ele>472.85</ele>
        <time>2022-07-02T11:00:36.000Z</time>
      </trkpt>
      <trkpt lat="45.29158" lon="5.95672">
        <ele>477.24</ele>
        <time>2022-07-02T11:00:41.000Z</time>
      </trkpt>
      <trkpt lat="45.29177" lon="5.9567">
        <ele>479.51</ele>
        <time>2022-07-02T11:00:46.000Z</time>
      </trkpt>
      <trkpt lat="45.29193" lon="5.95671">
        <ele>478.17</ele>
        <time>2022-07-02T11:00:51.000Z</time>
      </trkpt>
      <trkpt lat="45.29209" lon="5.9568">
        <ele>485.77</ele>
        <time>2022-07-02T11:00:56.000Z</time>
      </trkpt>
      <trkpt lat="45.29225" lon="5.95694">
        <ele>488.68</ele>
        <time>2022-07-02T11:01:01.000Z</time>
      </trkpt>
      <trkpt lat="45.29241" lon="5.95706">
        <ele>493.6</ele>
        <time>2022-07-02T11:01:06.000Z</time>
      </trkpt>
      <trkpt lat="45.29257" lon="5.95717">
        <ele>498.09</ele>
        <time>2022-07-02T11:01:11.000Z</time>
      </trkpt>
      <trkpt lat="45.29272" lon="5.9573">
        <ele>500.79</ele>
        <time>2022-07-02T11:01:16.000Z</time>
      </trkpt>
      <trkpt lat="45.29287" lon="5.95743">
        <ele>504.44</ele>
        <time>2022-07-02T11:01:21.000Z</time>
      </trkpt>
      <trkpt lat="45.29302" lon="5.95755">
        <ele>506.83</ele>
        <time>2022-07-02T11:01:26.000Z</time>
      </trkpt>
      <trkpt lat="45.2932" lon="5.95759">
        <ele>509.21</ele>
        <time>2022-07-02T11:01:31.000Z</time>
      </trkpt>
      <trkpt lat="45.29339" lon="5.9576">
        <ele>511.59</ele>
        <time>2022-07-02T11:01:36.000Z</time>
      </trkpt>
      <trkpt lat="45.29358" lon="5.95765">
        <ele>513.57</ele>
        <time>2022-07-02T11:01:41.000Z</time>
      </trkpt>
      <trkpt lat="45.2937" lon="5.95781">
        <ele>515.05</ele>
        <time>2022-07-02T11:01:46.000Z</time>
      </trkpt>
      <trkpt lat="45.29354" lon="5.95799">
        <ele>517.14</ele>
        <time>2022-07-02T11:01:51.000Z</time>
      </trkpt>
      <trkpt lat="45.29334" lon="5.95799">
        <ele>520.65</ele>
        <time>2022-07-02T11:01:56.000Z</time>
      </trkpt>
      <trkpt lat="45.29319" lon="5.95798">
        <ele>523.28</ele>
        <time>2022-07-02T11:02:01.000Z</time>
      </trkpt>
      <trkpt lat="45.2931" lon="5.95796">
        <ele>523.72</ele>
        <time>2022-07-02T11:06:44.000Z</time>
      </trkpt>
      <trkpt lat="45.29293" lon="5.95801">
        <ele>533.38</ele>
        <time>2022-07-02T11:06:49.000Z</time>
      </trkpt>
      <trkpt lat="45.29275" lon="5.9581">
        <ele>537.1</ele>
        <time>2022-07-02T11:06:54.000Z</time>
      </trkpt>
      <trkpt lat="45.29256" lon="5.95812">
        <ele>539.77</ele>
        <time>2022-07-02T11:06:59.000Z</time>
      </trkpt>
      <trkpt lat="45.2924" lon="5.9582">
        <ele>542.43</ele>
        <time>2022-07-02T11:07:04.000Z</time>
      </trkpt>
      <trkpt lat="45.29225" lon="5.95837">
        <ele>543.67</ele>
        <time>2022-07-02T11:07:09.000Z</time>
      </trkpt>
      <trkpt lat="45.29211" lon="5.95853">
        <ele>546.08</ele>
        <time>2022-07-02T11:07:14.000Z</time>
      </trkpt>
      <trkpt lat="45.29192" lon="5.95863">
        <ele>549.54</ele>
        <time>2022-07-02T11:07:19.000Z</time>
      </trkpt>
      <trkpt lat="45.29172" lon="5.9586">
        <ele>550.16</ele>
        <time>2022-07-02T11:07:24.000Z</time>
      </trkpt>
      <trkpt lat="45.29155" lon="5.95851">
        <ele>552.02</ele>
        <time>2022-07-02T11:07:29.000Z</time>
      </trkpt>
      <trkpt lat="45.29144" lon="5.9586">
        <ele>551.47</ele>
        <time>2022-07-02T11:07:34.000Z</time>
      </trkpt>
      <trkpt lat="45.29161" lon="5.95879">
        <ele>554.73</ele>
        <time>2022-07-02T11:07:39.000Z</time>
      </trkpt>
      <trkpt lat="45.29184" lon="5.95886">
        <ele>557.04</ele>
        <time>2022-07-02T11:07:44.000Z</time>
      </trkpt>
      <trkpt lat="45.29205" lon="5.95893">
        <ele>554.73</ele>
        <time>2022-07-02T11:07:49.000Z</time>
      </trkpt>
      <trkpt lat="45.29223" lon="5.95899">
        <ele>555.96</ele>
        <time>2022-07-02T11:07:54.000Z</time>
      </trkpt>
      <trkpt lat="45.29242" lon="5.95904">
        <ele>559.25</ele>
        <time>2022-07-02T11:07:59.000Z</time>
      </trkpt>
      <trkpt lat="45.29259" lon="5.95905">
        <ele>560.24</ele>
        <time>2022-07-02T11:08:04.000Z</time>
      </trkpt>
      <trkpt lat="45.29279" lon="5.95903">
        <ele>559.76</ele>
        <time>2022-07-02T11:08:09.000Z</time>
      </trkpt>
      <trkpt lat="45.29294" lon="5.95898">
        <ele>561.23</ele>
        <time>2022-07-02T11:08:14.000Z</time>
      </trkpt>
      <trkpt lat="45.2931" lon="5.95903">
        <ele>565.35</ele>
        <time>2022-07-02T11:08:19.000Z</time>
      </trkpt>
      <trkpt lat="45.29329" lon="5.95913">
        <ele>565.26</ele>
        <time>2022-07-02T11:08:24.000Z</time>
      </trkpt>
      <trkpt lat="45.29345" lon="5.95918">
        <ele>565.5</ele>
        <time>2022-07-02T11:08:29.000Z</time>
      </trkpt>
      <trkpt lat="45.29355" lon="5.95924">
        <ele>570.01</ele>
        <time>2022-07-02T11:51:11.000Z</time>
      </trkpt>
      <trkpt lat="45.29366" lon="5.95936">
        <ele>571.02</ele>
        <time>2022-07-02T11:51:16.000Z</time>
      </trkpt>
      <trkpt lat="45.29377" lon="5.95955">
        <ele>570.84</ele>
        <time>2022-07-02T11:51:21.000Z</time>
      </trkpt>
      <trkpt lat="45.29386" lon="5.95974">
        <ele>574.13</ele>
        <time>2022-07-02T11:51:26.000Z</time>
      </trkpt>
      <trkpt lat="45.29395" lon="5.95993">
        <ele>574.27</ele>
        <time>2022-07-02T11:51:31.000Z</time>
      </trkpt>
      <trkpt lat="45.29406" lon="5.96009">
        <ele>575.65</ele>
        <time>2022-07-02T11:51:36.000Z</time>
      </trkpt>
      <trkpt lat="45.2942" lon="5.96022">
        <ele>576.72</ele>
        <time>2022-07-02T11:51:41.000Z</time>
      </trkpt>
      <trkpt lat="45.29436" lon="5.96035">
        <ele>577.09</ele>
        <time>2022-07-02T11:51:46.000Z</time>
      </trkpt>
      <trkpt lat="45.29449" lon="5.96052">
        <ele>579.38</ele>
        <time>2022-07-02T11:51:51.000Z</time>
      </trkpt>
      <trkpt lat="45.29463" lon="5.96069">
        <ele>580.76</ele>
        <time>2022-07-02T11:51:56.000Z</time>
      </trkpt>
      <trkpt lat="45.29475" lon="5.96084">
        <ele>582.01</ele>
        <time>2022-07-02T11:52:01.000Z</time>
      </trkpt>
      <trkpt lat="45.29486" lon="5.96101">
        <ele>584.9</ele>
        <time>2022-07-02T11:52:06.000Z</time>
      </trkpt>
      <trkpt lat="45.29499" lon="5.96118">
        <ele>585.05</ele>
        <time>2022-07-02T11:52:11.000Z</time>
      </trkpt>
      <trkpt lat="45.29507" lon="5.96136">
        <ele>587.46</ele>
        <time>2022-07-02T11:52:16.000Z</time>
      </trkpt>
      <trkpt lat="45.29508" lon="5.96159">
        <ele>585.5</ele>
        <time>2022-07-02T11:52:21.000Z</time>
      </trkpt>
      <trkpt lat="45.29504" lon="5.96181">
        <ele>583.61</ele>
        <time>2022-07-02T11:52:26.000Z</time>
      </trkpt>
      <trkpt lat="45.29493" lon="5.96206">
        <ele>582.51</ele>
        <time>2022-07-02T11:52:31.000Z</time>
      </trkpt>
      <trkpt lat="45.29494" lon="5.96227">
        <ele>581.07</ele>
        <time>2022-07-02T11:52:36.000Z</time>
      </trkpt>
      <trkpt lat="45.295" lon="5.96247">
        <ele>582.9</ele>
        <time>2022-07-02T11:52:41.000Z</time>
      </trkpt>
      <trkpt lat="45.29513" lon="5.96268">
        <ele>586.39</ele>
        <time>2022-07-02T11:52:46.000Z</time>
      </trkpt>
      <trkpt lat="45.29517" lon="5.9629">
        <ele>586.43</ele>
        <time>2022-07-02T11:52:51.000Z</time>
      </trkpt>
      <trkpt lat="45.29528" lon="5.96309">
        <ele>588.81</ele>
        <time>2022-07-02T11:52:56.000Z</time>
      </trkpt>
      <trkpt lat="45.29546" lon="5.96321">
        <ele>591.31</ele>
        <time>2022-07-02T11:53:01.000Z</time>
      </trkpt>
      <trkpt lat="45.2956" lon="5.96331">
        <ele>589.32</ele>
        <time>2022-07-02T11:53:06.000Z</time>
      </trkpt>
      <trkpt lat="45.29567" lon="5.96346">
        <ele>589.32</ele>
        <time>2022-07-02T11:53:11.000Z</time>
      </trkpt>
      <trkpt lat="45.29555" lon="5.96355">
        <ele>591</ele>
        <time>2022-07-02T11:53:16.000Z</time>
      </trkpt>
      <trkpt lat="45.29538" lon="5.96346">
        <ele>592.95</ele>
        <time>2022-07-02T11:53:21.000Z</time>
      </trkpt>
      <trkpt lat="45.29525" lon="5.96335">
        <ele>594.55</ele>
        <time>2022-07-02T11:53:26.000Z</time>
      </trkpt>
      <trkpt lat="45.29516" lon="5.9633">
        <ele>596.23</ele>
        <time>2022-07-02T11:53:33.000Z</time>
      </trkpt>
      <trkpt lat="45.29506" lon="5.9632">
        <ele>593.42</ele>
        <time>2022-07-02T11:53:38.000Z</time>
      </trkpt>
      <trkpt lat="45.29501" lon="5.96304">
        <ele>592.56</ele>
        <time>2022-07-02T11:53:43.000Z</time>
      </trkpt>
      <trkpt lat="45.29494" lon="5.96292">
        <ele>594.37</ele>
        <time>2022-07-02T11:53:48.000Z</time>
      </trkpt>
      <trkpt lat="45.29482" lon="5.96276">
        <ele>600.81</ele>
        <time>2022-07-02T11:53:53.000Z</time>
      </trkpt>
      <trkpt lat="45.29469" lon="5.96258">
        <ele>602</ele>
        <time>2022-07-02T11:53:58.000Z</time>
      </trkpt>
      <trkpt lat="45.29458" lon="5.96243">
        <ele>603.4</ele>
        <time>2022-07-02T11:54:03.000Z</time>
      </trkpt>
      <trkpt lat="45.29444" lon="5.96228">
        <ele>603.83</ele>
        <time>2022-07-02T11:54:08.000Z</time>
      </trkpt>
      <trkpt lat="45.29431" lon="5.96209">
        <ele>604.33</ele>
        <time>2022-07-02T11:54:13.000Z</time>
      </trkpt>
      <trkpt lat="45.2941" lon="5.96192">
        <ele>604.34</ele>
        <time>2022-07-02T11:54:18.000Z</time>
      </trkpt>
      <trkpt lat="45.29394" lon="5.96178">
        <ele>615.32</ele>
        <time>2022-07-02T11:54:23.000Z</time>
      </trkpt>
      <trkpt lat="45.29381" lon="5.9616">
        <ele>617.64</ele>
        <time>2022-07-02T11:54:28.000Z</time>
      </trkpt>
      <trkpt lat="45.29361" lon="5.9615">
        <ele>623.13</ele>
        <time>2022-07-02T11:54:33.000Z</time>
      </trkpt>
      <trkpt lat="45.29344" lon="5.9614">
        <ele>627.2</ele>
        <time>2022-07-02T11:54:38.000Z</time>
      </trkpt>
      <trkpt lat="45.29325" lon="5.96133">
        <ele>631.42</ele>
        <time>2022-07-02T11:54:43.000Z</time>
      </trkpt>
      <trkpt lat="45.29304" lon="5.96127">
        <ele>630.29</ele>
        <time>2022-07-02T11:54:48.000Z</time>
      </trkpt>
      <trkpt lat="45.29285" lon="5.96122">
        <ele>631.89</ele>
        <time>2022-07-02T11:54:53.000Z</time>
      </trkpt>
      <trkpt lat="45.29265" lon="5.96116">
        <ele>634.28</ele>
        <time>2022-07-02T11:54:58.000Z</time>
      </trkpt>
      <trkpt lat="45.29249" lon="5.96109">
        <ele>636.89</ele>
        <time>2022-07-02T11:55:03.000Z</time>
      </trkpt>
      <trkpt lat="45.29235" lon="5.96104">
        <ele>635.53</ele>
        <time>2022-07-02T11:55:08.000Z</time>
      </trkpt>
      <trkpt lat="45.2922" lon="5.96099">
        <ele>639.66</ele>
        <time>2022-07-02T11:55:13.000Z</time>
      </trkpt>
      <trkpt lat="45.29202" lon="5.96103">
        <ele>643.58</ele>
        <time>2022-07-02T11:55:18.000Z</time>
      </trkpt>
      <trkpt lat="45.29185" lon="5.96108">
        <ele>648.1</ele>
        <time>2022-07-02T11:55:23.000Z</time>
      </trkpt>
      <trkpt lat="45.29169" lon="5.96116">
        <ele>650.08</ele>
        <time>2022-07-02T11:55:28.000Z</time>
      </trkpt>
      <trkpt lat="45.29155" lon="5.96129">
        <ele>654.87</ele>
        <time>2022-07-02T11:55:33.000Z</time>
      </trkpt>
      <trkpt lat="45.29145" lon="5.96149">
        <ele>656.11</ele>
        <time>2022-07-02T11:55:38.000Z</time>
      </trkpt>
      <trkpt lat="45.29137" lon="5.96171">
        <ele>657.39</ele>
        <time>2022-07-02T11:55:43.000Z</time>
      </trkpt>
      <trkpt lat="45.2913" lon="5.96192">
        <ele>658.96</ele>
        <time>2022-07-02T11:55:48.000Z</time>
      </trkpt>
      <trkpt lat="45.29124" lon="5.96215">
        <ele>658.75</ele>
        <time>2022-07-02T11:55:53.000Z</time>
      </trkpt>
      <trkpt lat="45.29117" lon="5.96237">
        <ele>659.43</ele>
        <time>2022-07-02T11:55:58.000Z</time>
      </trkpt>
      <trkpt lat="45.2911" lon="5.96263">
        <ele>661.43</ele>
        <time>2022-07-02T11:56:03.000Z</time>
      </trkpt>
      <trkpt lat="45.29104" lon="5.96286">
        <ele>661.37</ele>
        <time>2022-07-02T11:56:08.000Z</time>
      </trkpt>
      <trkpt lat="45.29094" lon="5.96308">
        <ele>663.25</ele>
        <time>2022-07-02T11:56:13.000Z</time>
      </trkpt>
      <trkpt lat="45.29085" lon="5.96329">
        <ele>663.51</ele>
        <time>2022-07-02T11:56:18.000Z</time>
      </trkpt>
      <trkpt lat="45.29077" lon="5.9635">
        <ele>664.56</ele>
        <time>2022-07-02T11:56:23.000Z</time>
      </trkpt>
      <trkpt lat="45.29069" lon="5.96372">
        <ele>664.2</ele>
        <time>2022-07-02T11:56:28.000Z</time>
      </trkpt>
      <trkpt lat="45.29063" lon="5.96396">
        <ele>662.17</ele>
        <time>2022-07-02T11:56:33.000Z</time>
      </trkpt>
      <trkpt lat="45.29057" lon="5.96417">
        <ele>660.73</ele>
        <time>2022-07-02T11:56:38.000Z</time>
      </trkpt>
      <trkpt lat="45.29052" lon="5.96443">
        <ele>657.9</ele>
        <time>2022-07-02T11:56:43.000Z</time>
      </trkpt>
      <trkpt lat="45.29047" lon="5.96472">
        <ele>655.91</ele>
        <time>2022-07-02T11:56:48.000Z</time>
      </trkpt>
      <trkpt lat="45.29043" lon="5.96493">
        <ele>653.87</ele>
        <time>2022-07-02T11:56:53.000Z</time>
      </trkpt>
      <trkpt lat="45.29036" lon="5.96517">
        <ele>656.32</ele>
        <time>2022-07-02T11:56:58.000Z</time>
      </trkpt>
      <trkpt lat="45.29029" lon="5.96539">
        <ele>656.21</ele>
        <time>2022-07-02T11:57:03.000Z</time>
      </trkpt>
      <trkpt lat="45.29017" lon="5.96562">
        <ele>660.08</ele>
        <time>2022-07-02T11:57:08.000Z</time>
      </trkpt>
      <trkpt lat="45.29005" lon="5.96583">
        <ele>659.96</ele>
        <time>2022-07-02T11:57:13.000Z</time>
      </trkpt>
      <trkpt lat="45.28993" lon="5.96606">
        <ele>666.18</ele>
        <time>2022-07-02T11:57:18.000Z</time>
      </trkpt>
      <trkpt lat="45.28987" lon="5.96627">
        <ele>666.33</ele>
        <time>2022-07-02T11:57:23.000Z</time>
      </trkpt>
      <trkpt lat="45.28984" lon="5.96648">
        <ele>665.57</ele>
        <time>2022-07-02T11:57:28.000Z</time>
      </trkpt>
      <trkpt lat="45.28978" lon="5.96662">
        <ele>666.37</ele>
        <time>2022-07-02T11:57:33.000Z</time>
      </trkpt>
      <trkpt lat="45.28983" lon="5.9665">
        <ele>668.72</ele>
        <time>2022-07-02T12:00:59.000Z</time>
      </trkpt>
      <trkpt lat="45.29006" lon="5.9663">
        <ele>662.26</ele>
        <time>2022-07-02T12:01:04.000Z</time>
      </trkpt>
      <trkpt lat="45.29029" lon="5.96612">
        <ele>665.28</ele>
        <time>2022-07-02T12:01:09.000Z</time>
      </trkpt>
      <trkpt lat="45.2905" lon="5.96592">
        <ele>667.83</ele>
        <time>2022-07-02T12:01:14.000Z</time>
      </trkpt>
      <trkpt lat="45.29065" lon="5.96562">
        <ele>672.1</ele>
        <time>2022-07-02T12:01:19.000Z</time>
      </trkpt>
      <trkpt lat="45.29085" lon="5.96549">
        <ele>673.11</ele>
        <time>2022-07-02T12:01:24.000Z</time>
      </trkpt>
      <trkpt lat="45.29099" lon="5.96521">
        <ele>674.05</ele>
        <time>2022-07-02T12:01:29.000Z</time>
      </trkpt>
      <trkpt lat="45.29105" lon="5.96492">
        <ele>673.53</ele>
        <time>2022-07-02T12:01:34.000Z</time>
      </trkpt>
      <trkpt lat="45.29116" lon="5.96465">
        <ele>670.13</ele>
        <time>2022-07-02T12:01:39.000Z</time>
      </trkpt>
      <trkpt lat="45.29128" lon="5.96446">
        <ele>676.38</ele>
        <time>2022-07-02T12:01:44.000Z</time>
      </trkpt>
      <trkpt lat="45.29143" lon="5.96426">
        <ele>682.97</ele>
        <time>2022-07-02T12:01:49.000Z</time>
      </trkpt>
      <trkpt lat="45.29156" lon="5.96406">
        <ele>688.48</ele>
        <time>2022-07-02T12:01:54.000Z</time>
      </trkpt>
      <trkpt lat="45.29172" lon="5.96386">
        <ele>692.55</ele>
        <time>2022-07-02T12:01:59.000Z</time>
      </trkpt>
      <trkpt lat="45.29191" lon="5.96377">
        <ele>697.92</ele>
        <time>2022-07-02T12:02:04.000Z</time>
      </trkpt>
      <trkpt lat="45.29212" lon="5.96374">
        <ele>701.28</ele>
        <time>2022-07-02T12:02:09.000Z</time>
      </trkpt>
      <trkpt lat="45.29227" lon="5.96377">
        <ele>704.73</ele>
        <time>2022-07-02T12:02:14.000Z</time>
      </trkpt>
      <trkpt lat="45.29247" lon="5.96377">
        <ele>703.44</ele>
        <time>2022-07-02T12:02:19.000Z</time>
      </trkpt>
      <trkpt lat="45.29263" lon="5.96379">
        <ele>704.65</ele>
        <time>2022-07-02T12:02:24.000Z</time>
      </trkpt>
      <trkpt lat="45.29279" lon="5.96384">
        <ele>703.4</ele>
        <time>2022-07-02T12:02:29.000Z</time>
      </trkpt>
      <trkpt lat="45.29301" lon="5.96394">
        <ele>705.94</ele>
        <time>2022-07-02T12:02:34.000Z</time>
      </trkpt>
      <trkpt lat="45.29321" lon="5.96406">
        <ele>704.72</ele>
        <time>2022-07-02T12:02:39.000Z</time>
      </trkpt>
      <trkpt lat="45.29339" lon="5.96426">
        <ele>702.35</ele>
        <time>2022-07-02T12:02:44.000Z</time>
      </trkpt>
      <trkpt lat="45.29364" lon="5.96455">
        <ele>702.95</ele>
        <time>2022-07-02T12:02:49.000Z</time>
      </trkpt>
      <trkpt lat="45.29387" lon="5.96484">
        <ele>703.45</ele>
        <time>2022-07-02T12:02:54.000Z</time>
      </trkpt>
      <trkpt lat="45.29423" lon="5.9651">
        <ele>700.74</ele>
        <time>2022-07-02T12:02:59.000Z</time>
      </trkpt>
      <trkpt lat="45.2946" lon="5.96543">
        <ele>702.15</ele>
        <time>2022-07-02T12:03:04.000Z</time>
      </trkpt>
      <trkpt lat="45.29493" lon="5.96578">
        <ele>700.49</ele>
        <time>2022-07-02T12:03:09.000Z</time>
      </trkpt>
      <trkpt lat="45.29531" lon="5.96581">
        <ele>699.31</ele>
        <time>2022-07-02T12:03:14.000Z</time>
      </trkpt>
      <trkpt lat="45.29556" lon="5.966">
        <ele>702.07</ele>
        <time>2022-07-02T12:03:19.000Z</time>
      </trkpt>
      <trkpt lat="45.29582" lon="5.96605">
        <ele>701.95</ele>
        <time>2022-07-02T12:03:24.000Z</time>
      </trkpt>
      <trkpt lat="45.296" lon="5.96621">
        <ele>699.09</ele>
        <time>2022-07-02T12:03:29.000Z</time>
      </trkpt>
      <trkpt lat="45.29633" lon="5.96631">
        <ele>697.15</ele>
        <time>2022-07-02T12:03:34.000Z</time>
      </trkpt>
      <trkpt lat="45.2966" lon="5.96638">
        <ele>698.25</ele>
        <time>2022-07-02T12:03:39.000Z</time>
      </trkpt>
      <trkpt lat="45.29688" lon="5.96656">
        <ele>692.15</ele>
        <time>2022-07-02T12:03:44.000Z</time>
      </trkpt>
      <trkpt lat="45.29711" lon="5.96681">
        <ele>696.91</ele>
        <time>2022-07-02T12:03:49.000Z</time>
      </trkpt>
      <trkpt lat="45.29734" lon="5.96702">
        <ele>698.02</ele>
        <time>2022-07-02T12:03:54.000Z</time>
      </trkpt>
      <trkpt lat="45.29772" lon="5.96725">
        <ele>701.89</ele>
        <time>2022-07-02T12:03:59.000Z</time>
      </trkpt>
      <trkpt lat="45.29814" lon="5.9674">
        <ele>702.76</ele>
        <time>2022-07-02T12:04:04.000Z</time>
      </trkpt>
      <trkpt lat="45.29855" lon="5.9676">
        <ele>704.88</ele>
        <time>2022-07-02T12:04:09.000Z</time>
      </trkpt>
      <trkpt lat="45.29899" lon="5.96821">
        <ele>703.35</ele>
        <time>2022-07-02T12:04:14.000Z</time>
      </trkpt>
      <trkpt lat="45.2992" lon="5.96891">
        <ele>701.02</ele>
        <time>2022-07-02T12:04:19.000Z</time>
      </trkpt>
      <trkpt lat="45.2991" lon="5.9697">
        <ele>695.18</ele>
        <time>2022-07-02T12:04:24.000Z</time>
      </trkpt>
      <trkpt lat="45.29873" lon="5.97038">
        <ele>690.26</ele>
        <time>2022-07-02T12:04:29.000Z</time>
      </trkpt>
      <trkpt lat="45.29835" lon="5.97106">
        <ele>685.48</ele>
        <time>2022-07-02T12:04:34.000Z</time>
      </trkpt>
      <trkpt lat="45.29804" lon="5.97179">
        <ele>678.92</ele>
        <time>2022-07-02T12:04:39.000Z</time>
      </trkpt>
      <trkpt lat="45.29771" lon="5.97247">
        <ele>672.34</ele>
        <time>2022-07-02T12:04:44.000Z</time>
      </trkpt>
      <trkpt lat="45.29759" lon="5.97327">
        <ele>668.31</ele>
        <time>2022-07-02T12:04:49.000Z</time>
      </trkpt>
      <trkpt lat="45.29761" lon="5.97414">
        <ele>668.92</ele>
        <time>2022-07-02T12:04:54.000Z</time>
      </trkpt>
      <trkpt lat="45.29749" lon="5.97496">
        <ele>669.25</ele>
        <time>2022-07-02T12:04:59.000Z</time>
      </trkpt>
      <trkpt lat="45.29737" lon="5.97576">
        <ele>667.28</ele>
        <time>2022-07-02T12:05:04.000Z</time>
      </trkpt>
      <trkpt lat="45.29736" lon="5.97646">
        <ele>658.63</ele>
        <time>2022-07-02T12:05:09.000Z</time>
      </trkpt>
      <trkpt lat="45.29748" lon="5.9773">
        <ele>658.43</ele>
        <time>2022-07-02T12:05:14.000Z</time>
      </trkpt>
      <trkpt lat="45.29772" lon="5.97798">
        <ele>656.62</ele>
        <time>2022-07-02T12:05:19.000Z</time>
      </trkpt>
      <trkpt lat="45.29802" lon="5.97868">
        <ele>654.58</ele>
        <time>2022-07-02T12:05:24.000Z</time>
      </trkpt>
      <trkpt lat="45.29817" lon="5.97947">
        <ele>650.1</ele>
        <time>2022-07-02T12:05:29.000Z</time>
      </trkpt>
      <trkpt lat="45.29834" lon="5.98026">
        <ele>646.94</ele>
        <time>2022-07-02T12:05:34.000Z</time>
      </trkpt>
      <trkpt lat="45.29835" lon="5.98083">
        <ele>642.28</ele>
        <time>2022-07-02T12:05:39.000Z</time>
      </trkpt>
      <trkpt lat="45.29839" lon="5.98114">
        <ele>637.47</ele>
        <time>2022-07-02T12:05:44.000Z</time>
      </trkpt>
      <trkpt lat="45.29841" lon="5.98164">
        <ele>633.43</ele>
        <time>2022-07-02T12:05:49.000Z</time>
      </trkpt>
      <trkpt lat="45.29853" lon="5.98219">
        <ele>629.77</ele>
        <time>2022-07-02T12:05:54.000Z</time>
      </trkpt>
      <trkpt lat="45.29865" lon="5.98277">
        <ele>630.67</ele>
        <time>2022-07-02T12:05:59.000Z</time>
      </trkpt>
      <trkpt lat="45.29871" lon="5.98341">
        <ele>629.48</ele>
        <time>2022-07-02T12:06:04.000Z</time>
      </trkpt>
      <trkpt lat="45.29868" lon="5.98382">
        <ele>624.1</ele>
        <time>2022-07-02T12:06:09.000Z</time>
      </trkpt>
      <trkpt lat="45.2985" lon="5.98405">
        <ele>620.1</ele>
        <time>2022-07-02T12:06:14.000Z</time>
      </trkpt>
      <trkpt lat="45.29843" lon="5.98419">
        <ele>622.4</ele>
        <time>2022-07-02T12:06:19.000Z</time>
      </trkpt>
      <trkpt lat="45.29838" lon="5.98442">
        <ele>628.17</ele>
        <time>2022-07-02T12:06:24.000Z</time>
      </trkpt>
      <trkpt lat="45.29827" lon="5.9846">
        <ele>629.26</ele>
        <time>2022-07-02T12:06:29.000Z</time>
      </trkpt>
      <trkpt lat="45.29809" lon="5.9847">
        <ele>629.45</ele>
        <time>2022-07-02T12:06:34.000Z</time>
      </trkpt>
      <trkpt lat="45.29792" lon="5.98476">
        <ele>628.98</ele>
        <time>2022-07-02T12:06:39.000Z</time>
      </trkpt>
      <trkpt lat="45.29777" lon="5.98482">
        <ele>626.61</ele>
        <time>2022-07-02T12:06:44.000Z</time>
      </trkpt>
      <trkpt lat="45.29762" lon="5.98494">
        <ele>629.29</ele>
        <time>2022-07-02T12:06:49.000Z</time>
      </trkpt>
      <trkpt lat="45.29744" lon="5.98506">
        <ele>627.96</ele>
        <time>2022-07-02T12:06:54.000Z</time>
      </trkpt>
      <trkpt lat="45.29728" lon="5.98517">
        <ele>628.35</ele>
        <time>2022-07-02T12:06:59.000Z</time>
      </trkpt>
      <trkpt lat="45.29714" lon="5.98533">
        <ele>630.37</ele>
        <time>2022-07-02T12:07:04.000Z</time>
      </trkpt>
      <trkpt lat="45.29698" lon="5.98544">
        <ele>633.36</ele>
        <time>2022-07-02T12:07:09.000Z</time>
      </trkpt>
      <trkpt lat="45.29682" lon="5.98553">
        <ele>631.54</ele>
        <time>2022-07-02T12:07:14.000Z</time>
      </trkpt>
      <trkpt lat="45.29671" lon="5.98561">
        <ele>636.18</ele>
        <time>2022-07-02T12:07:19.000Z</time>
      </trkpt>
      <trkpt lat="45.29658" lon="5.98572">
        <ele>639.35</ele>
        <time>2022-07-02T12:07:24.000Z</time>
      </trkpt>
      <trkpt lat="45.29644" lon="5.98582">
        <ele>639.45</ele>
        <time>2022-07-02T12:07:29.000Z</time>
      </trkpt>
      <trkpt lat="45.29631" lon="5.98585">
        <ele>640.83</ele>
        <time>2022-07-02T12:07:34.000Z</time>
      </trkpt>
      <trkpt lat="45.29622" lon="5.98586">
        <ele>645.51</ele>
        <time>2022-07-02T12:07:39.000Z</time>
      </trkpt>
      <trkpt lat="45.29607" lon="5.98587">
        <ele>645.72</ele>
        <time>2022-07-02T12:07:44.000Z</time>
      </trkpt>
      <trkpt lat="45.29597" lon="5.98589">
        <ele>649.34</ele>
        <time>2022-07-02T12:07:49.000Z</time>
      </trkpt>
      <trkpt lat="45.29585" lon="5.98592">
        <ele>651.07</ele>
        <time>2022-07-02T12:07:54.000Z</time>
      </trkpt>
      <trkpt lat="45.29575" lon="5.98591">
        <ele>653.49</ele>
        <time>2022-07-02T12:07:59.000Z</time>
      </trkpt>
      <trkpt lat="45.29562" lon="5.98588">
        <ele>652.03</ele>
        <time>2022-07-02T12:08:04.000Z</time>
      </trkpt>
      <trkpt lat="45.29549" lon="5.9859">
        <ele>651.15</ele>
        <time>2022-07-02T12:08:09.000Z</time>
      </trkpt>
      <trkpt lat="45.29535" lon="5.98588">
        <ele>652.66</ele>
        <time>2022-07-02T12:08:14.000Z</time>
      </trkpt>
      <trkpt lat="45.29517" lon="5.98589">
        <ele>657.12</ele>
        <time>2022-07-02T12:08:19.000Z</time>
      </trkpt>
      <trkpt lat="45.29499" lon="5.986">
        <ele>657.09</ele>
        <time>2022-07-02T12:08:24.000Z</time>
      </trkpt>
      <trkpt lat="45.29486" lon="5.98608">
        <ele>658.7</ele>
        <time>2022-07-02T12:08:29.000Z</time>
      </trkpt>
      <trkpt lat="45.29473" lon="5.98624">
        <ele>656.82</ele>
        <time>2022-07-02T12:08:34.000Z</time>
      </trkpt>
      <trkpt lat="45.29442" lon="5.98634">
        <ele>665.1</ele>
        <time>2022-07-02T12:08:39.000Z</time>
      </trkpt>
      <trkpt lat="45.29429" lon="5.9864">
        <ele>675.93</ele>
        <time>2022-07-02T12:08:44.000Z</time>
      </trkpt>
      <trkpt lat="45.29415" lon="5.98641">
        <ele>684.91</ele>
        <time>2022-07-02T12:08:49.000Z</time>
      </trkpt>
      <trkpt lat="45.29403" lon="5.98651">
        <ele>688.95</ele>
        <time>2022-07-02T12:08:54.000Z</time>
      </trkpt>
      <trkpt lat="45.29386" lon="5.98657">
        <ele>689.04</ele>
        <time>2022-07-02T12:08:59.000Z</time>
      </trkpt>
      <trkpt lat="45.29371" lon="5.98658">
        <ele>689.93</ele>
        <time>2022-07-02T12:09:04.000Z</time>
      </trkpt>
      <trkpt lat="45.29357" lon="5.9866">
        <ele>694.02</ele>
        <time>2022-07-02T12:09:09.000Z</time>
      </trkpt>
      <trkpt lat="45.2934" lon="5.98657">
        <ele>694.73</ele>
        <time>2022-07-02T12:09:14.000Z</time>
      </trkpt>
      <trkpt lat="45.29325" lon="5.98665">
        <ele>692.11</ele>
        <time>2022-07-02T12:09:19.000Z</time>
      </trkpt>
      <trkpt lat="45.2931" lon="5.98672">
        <ele>696.42</ele>
        <time>2022-07-02T12:09:24.000Z</time>
      </trkpt>
      <trkpt lat="45.29293" lon="5.98682">
        <ele>699.72</ele>
        <time>2022-07-02T12:09:29.000Z</time>
      </trkpt>
      <trkpt lat="45.29278" lon="5.98684">
        <ele>698.47</ele>
        <time>2022-07-02T12:09:34.000Z</time>
      </trkpt>
      <trkpt lat="45.29265" lon="5.9868">
        <ele>699.65</ele>
        <time>2022-07-02T12:09:39.000Z</time>
      </trkpt>
      <trkpt lat="45.29251" lon="5.98678">
        <ele>705.09</ele>
        <time>2022-07-02T12:09:44.000Z</time>
      </trkpt>
      <trkpt lat="45.29236" lon="5.98684">
        <ele>704.25</ele>
        <time>2022-07-02T12:09:49.000Z</time>
      </trkpt>
      <trkpt lat="45.29219" lon="5.98692">
        <ele>708.61</ele>
        <time>2022-07-02T12:09:54.000Z</time>
      </trkpt>
      <trkpt lat="45.29205" lon="5.98708">
        <ele>709.28</ele>
        <time>2022-07-02T12:09:59.000Z</time>
      </trkpt>
      <trkpt lat="45.29194" lon="5.98722">
        <ele>711.5</ele>
        <time>2022-07-02T12:10:04.000Z</time>
      </trkpt>
      <trkpt lat="45.29181" lon="5.98735">
        <ele>711.68</ele>
        <time>2022-07-02T12:10:09.000Z</time>
      </trkpt>
      <trkpt lat="45.29168" lon="5.98744">
        <ele>712.72</ele>
        <time>2022-07-02T12:10:14.000Z</time>
      </trkpt>
      <trkpt lat="45.29156" lon="5.98753">
        <ele>713.48</ele>
        <time>2022-07-02T12:10:19.000Z</time>
      </trkpt>
      <trkpt lat="45.29139" lon="5.98762">
        <ele>713.38</ele>
        <time>2022-07-02T12:10:24.000Z</time>
      </trkpt>
      <trkpt lat="45.29126" lon="5.98778">
        <ele>715.5</ele>
        <time>2022-07-02T12:10:29.000Z</time>
      </trkpt>
      <trkpt lat="45.29112" lon="5.98792">
        <ele>715.05</ele>
        <time>2022-07-02T12:10:34.000Z</time>
      </trkpt>
      <trkpt lat="45.29097" lon="5.98809">
        <ele>715.73</ele>
        <time>2022-07-02T12:10:39.000Z</time>
      </trkpt>
      <trkpt lat="45.29083" lon="5.98827">
        <ele>716.04</ele>
        <time>2022-07-02T12:10:44.000Z</time>
      </trkpt>
      <trkpt lat="45.29066" lon="5.98845">
        <ele>719.47</ele>
        <time>2022-07-02T12:10:49.000Z</time>
      </trkpt>
      <trkpt lat="45.2905" lon="5.98862">
        <ele>722.27</ele>
        <time>2022-07-02T12:10:54.000Z</time>
      </trkpt>
      <trkpt lat="45.29033" lon="5.9888">
        <ele>723.76</ele>
        <time>2022-07-02T12:10:59.000Z</time>
      </trkpt>
      <trkpt lat="45.29018" lon="5.98899">
        <ele>726.43</ele>
        <time>2022-07-02T12:11:04.000Z</time>
      </trkpt>
      <trkpt lat="45.29001" lon="5.98915">
        <ele>729.44</ele>
        <time>2022-07-02T12:11:09.000Z</time>
      </trkpt>
      <trkpt lat="45.28984" lon="5.98927">
        <ele>731.02</ele>
        <time>2022-07-02T12:11:14.000Z</time>
      </trkpt>
      <trkpt lat="45.28965" lon="5.98938">
        <ele>730.1</ele>
        <time>2022-07-02T12:11:19.000Z</time>
      </trkpt>
      <trkpt lat="45.2895" lon="5.98949">
        <ele>734.46</ele>
        <time>2022-07-02T12:11:24.000Z</time>
      </trkpt>
      <trkpt lat="45.28941" lon="5.98947">
        <ele>732.93</ele>
        <time>2022-07-02T12:14:41.000Z</time>
      </trkpt>
      <trkpt lat="45.2893" lon="5.9895">
        <ele>734.84</ele>
        <time>2022-07-02T12:14:57.000Z</time>
      </trkpt>
      <trkpt lat="45.28914" lon="5.98957">
        <ele>732.34</ele>
        <time>2022-07-02T12:15:02.000Z</time>
      </trkpt>
      <trkpt lat="45.28897" lon="5.98966">
        <ele>733.14</ele>
        <time>2022-07-02T12:15:07.000Z</time>
      </trkpt>
      <trkpt lat="45.28881" lon="5.98976">
        <ele>732.91</ele>
        <time>2022-07-02T12:15:12.000Z</time>
      </trkpt>
      <trkpt lat="45.28865" lon="5.98985">
        <ele>737.31</ele>
        <time>2022-07-02T12:15:17.000Z</time>
      </trkpt>
      <trkpt lat="45.2885" lon="5.99">
        <ele>741.4</ele>
        <time>2022-07-02T12:15:22.000Z</time>
      </trkpt>
      <trkpt lat="45.28836" lon="5.99017">
        <ele>743.89</ele>
        <time>2022-07-02T12:15:27.000Z</time>
      </trkpt>
      <trkpt lat="45.28823" lon="5.99032">
        <ele>745.35</ele>
        <time>2022-07-02T12:15:32.000Z</time>
      </trkpt>
      <trkpt lat="45.28807" lon="5.99046">
        <ele>748.12</ele>
        <time>2022-07-02T12:15:37.000Z</time>
      </trkpt>
      <trkpt lat="45.2879" lon="5.99055">
        <ele>747.78</ele>
        <time>2022-07-02T12:15:42.000Z</time>
      </trkpt>
      <trkpt lat="45.28773" lon="5.99064">
        <ele>747.65</ele>
        <time>2022-07-02T12:15:47.000Z</time>
      </trkpt>
      <trkpt lat="45.28756" lon="5.99068">
        <ele>748.93</ele>
        <time>2022-07-02T12:15:52.000Z</time>
      </trkpt>
      <trkpt lat="45.28742" lon="5.99075">
        <ele>749.94</ele>
        <time>2022-07-02T12:15:57.000Z</time>
      </trkpt>
      <trkpt lat="45.28728" lon="5.99076">
        <ele>755.3</ele>
        <time>2022-07-02T12:16:02.000Z</time>
      </trkpt>
      <trkpt lat="45.28713" lon="5.99077">
        <ele>758.14</ele>
        <time>2022-07-02T12:16:07.000Z</time>
      </trkpt>
      <trkpt lat="45.28697" lon="5.99078">
        <ele>762.38</ele>
        <time>2022-07-02T12:16:12.000Z</time>
      </trkpt>
      <trkpt lat="45.28683" lon="5.99088">
        <ele>764.26</ele>
        <time>2022-07-02T12:16:17.000Z</time>
      </trkpt>
      <trkpt lat="45.28669" lon="5.99094">
        <ele>763.95</ele>
        <time>2022-07-02T12:16:22.000Z</time>
      </trkpt>
      <trkpt lat="45.28654" lon="5.99102">
        <ele>766.1</ele>
        <time>2022-07-02T12:16:27.000Z</time>
      </trkpt>
      <trkpt lat="45.28641" lon="5.99114">
        <ele>764.81</ele>
        <time>2022-07-02T12:16:32.000Z</time>
      </trkpt>
      <trkpt lat="45.28627" lon="5.99126">
        <ele>768.04</ele>
        <time>2022-07-02T12:16:37.000Z</time>
      </trkpt>
      <trkpt lat="45.28613" lon="5.99133">
        <ele>773.96</ele>
        <time>2022-07-02T12:16:42.000Z</time>
      </trkpt>
      <trkpt lat="45.286" lon="5.99139">
        <ele>779.53</ele>
        <time>2022-07-02T12:16:47.000Z</time>
      </trkpt>
      <trkpt lat="45.28584" lon="5.99145">
        <ele>779.17</ele>
        <time>2022-07-02T12:16:52.000Z</time>
      </trkpt>
      <trkpt lat="45.2857" lon="5.99148">
        <ele>779.29</ele>
        <time>2022-07-02T12:16:57.000Z</time>
      </trkpt>
      <trkpt lat="45.28562" lon="5.99134">
        <ele>780.06</ele>
        <time>2022-07-02T12:17:02.000Z</time>
      </trkpt>
      <trkpt lat="45.28571" lon="5.99112">
        <ele>781.62</ele>
        <time>2022-07-02T12:17:07.000Z</time>
      </trkpt>
      <trkpt lat="45.2858" lon="5.99088">
        <ele>780.83</ele>
        <time>2022-07-02T12:17:12.000Z</time>
      </trkpt>
      <trkpt lat="45.28588" lon="5.99061">
        <ele>783.26</ele>
        <time>2022-07-02T12:17:17.000Z</time>
      </trkpt>
      <trkpt lat="45.28601" lon="5.99038">
        <ele>785.08</ele>
        <time>2022-07-02T12:17:22.000Z</time>
      </trkpt>
      <trkpt lat="45.28611" lon="5.99012">
        <ele>785.93</ele>
        <time>2022-07-02T12:17:27.000Z</time>
      </trkpt>
      <trkpt lat="45.2862" lon="5.98982">
        <ele>786.4</ele>
        <time>2022-07-02T12:17:32.000Z</time>
      </trkpt>
      <trkpt lat="45.28632" lon="5.98956">
        <ele>788.28</ele>
        <time>2022-07-02T12:17:37.000Z</time>
      </trkpt>
      <trkpt lat="45.28644" lon="5.9893">
        <ele>791.82</ele>
        <time>2022-07-02T12:17:42.000Z</time>
      </trkpt>
      <trkpt lat="45.28663" lon="5.98912">
        <ele>790.07</ele>
        <time>2022-07-02T12:17:47.000Z</time>
      </trkpt>
      <trkpt lat="45.2868" lon="5.98899">
        <ele>788.3</ele>
        <time>2022-07-02T12:17:52.000Z</time>
      </trkpt>
      <trkpt lat="45.28697" lon="5.98884">
        <ele>789.14</ele>
        <time>2022-07-02T12:17:57.000Z</time>
      </trkpt>
      <trkpt lat="45.28711" lon="5.98864">
        <ele>794.57</ele>
        <time>2022-07-02T12:18:02.000Z</time>
      </trkpt>
      <trkpt lat="45.28723" lon="5.98841">
        <ele>795.68</ele>
        <time>2022-07-02T12:18:07.000Z</time>
      </trkpt>
      <trkpt lat="45.28735" lon="5.98818">
        <ele>797</ele>
        <time>2022-07-02T12:18:12.000Z</time>
      </trkpt>
      <trkpt lat="45.2875" lon="5.98797">
        <ele>794.69</ele>
        <time>2022-07-02T12:18:17.000Z</time>
      </trkpt>
      <trkpt lat="45.28765" lon="5.9878">
        <ele>794.94</ele>
        <time>2022-07-02T12:18:22.000Z</time>
      </trkpt>
      <trkpt lat="45.28767" lon="5.98755">
        <ele>796.15</ele>
        <time>2022-07-02T12:18:27.000Z</time>
      </trkpt>
      <trkpt lat="45.28747" lon="5.98756">
        <ele>797.14</ele>
        <time>2022-07-02T12:18:32.000Z</time>
      </trkpt>
      <trkpt lat="45.28733" lon="5.98781">
        <ele>800.87</ele>
        <time>2022-07-02T12:18:37.000Z</time>
      </trkpt>
      <trkpt lat="45.28716" lon="5.98795">
        <ele>803.38</ele>
        <time>2022-07-02T12:18:42.000Z</time>
      </trkpt>
      <trkpt lat="45.28696" lon="5.98802">
        <ele>804.61</ele>
        <time>2022-07-02T12:18:47.000Z</time>
      </trkpt>
      <trkpt lat="45.28674" lon="5.98805">
        <ele>804.66</ele>
        <time>2022-07-02T12:18:52.000Z</time>
      </trkpt>
      <trkpt lat="45.2865" lon="5.98801">
        <ele>806.2</ele>
        <time>2022-07-02T12:18:57.000Z</time>
      </trkpt>
      <trkpt lat="45.2863" lon="5.98797">
        <ele>806.13</ele>
        <time>2022-07-02T12:19:02.000Z</time>
      </trkpt>
      <trkpt lat="45.28611" lon="5.98798">
        <ele>808</ele>
        <time>2022-07-02T12:19:07.000Z</time>
      </trkpt>
      <trkpt lat="45.2859" lon="5.98791">
        <ele>811.44</ele>
        <time>2022-07-02T12:19:12.000Z</time>
      </trkpt>
      <trkpt lat="45.28568" lon="5.98793">
        <ele>810.16</ele>
        <time>2022-07-02T12:19:17.000Z</time>
      </trkpt>
      <trkpt lat="45.2855" lon="5.98809">
        <ele>814.67</ele>
        <time>2022-07-02T12:19:22.000Z</time>
      </trkpt>
      <trkpt lat="45.28531" lon="5.98822">
        <ele>818.02</ele>
        <time>2022-07-02T12:19:27.000Z</time>
      </trkpt>
      <trkpt lat="45.28518" lon="5.9884">
        <ele>822.39</ele>
        <time>2022-07-02T12:19:32.000Z</time>
      </trkpt>
      <trkpt lat="45.28502" lon="5.98857">
        <ele>823.73</ele>
        <time>2022-07-02T12:19:37.000Z</time>
      </trkpt>
      <trkpt lat="45.28486" lon="5.98872">
        <ele>824.79</ele>
        <time>2022-07-02T12:19:42.000Z</time>
      </trkpt>
      <trkpt lat="45.28467" lon="5.98884">
        <ele>826.54</ele>
        <time>2022-07-02T12:19:47.000Z</time>
      </trkpt>
      <trkpt lat="45.28447" lon="5.98883">
        <ele>829.02</ele>
        <time>2022-07-02T12:19:52.000Z</time>
      </trkpt>
      <trkpt lat="45.28428" lon="5.98873">
        <ele>831.47</ele>
        <time>2022-07-02T12:19:57.000Z</time>
      </trkpt>
      <trkpt lat="45.28414" lon="5.98854">
        <ele>833.96</ele>
        <time>2022-07-02T12:20:02.000Z</time>
      </trkpt>
      <trkpt lat="45.28398" lon="5.9884">
        <ele>830.79</ele>
        <time>2022-07-02T12:20:07.000Z</time>
      </trkpt>
      <trkpt lat="45.28378" lon="5.9884">
        <ele>832.57</ele>
        <time>2022-07-02T12:20:12.000Z</time>
      </trkpt>
      <trkpt lat="45.28354" lon="5.98845">
        <ele>830.04</ele>
        <time>2022-07-02T12:20:17.000Z</time>
      </trkpt>
      <trkpt lat="45.28333" lon="5.98851">
        <ele>829.89</ele>
        <time>2022-07-02T12:20:22.000Z</time>
      </trkpt>
      <trkpt lat="45.28314" lon="5.98859">
        <ele>832.71</ele>
        <time>2022-07-02T12:20:27.000Z</time>
      </trkpt>
      <trkpt lat="45.28298" lon="5.98873">
        <ele>835.93</ele>
        <time>2022-07-02T12:20:32.000Z</time>
      </trkpt>
      <trkpt lat="45.28279" lon="5.9889">
        <ele>836</ele>
        <time>2022-07-02T12:20:37.000Z</time>
      </trkpt>
      <trkpt lat="45.28264" lon="5.98908">
        <ele>837.25</ele>
        <time>2022-07-02T12:20:42.000Z</time>
      </trkpt>
      <trkpt lat="45.28246" lon="5.98924">
        <ele>837.93</ele>
        <time>2022-07-02T12:20:47.000Z</time>
      </trkpt>
      <trkpt lat="45.28218" lon="5.98936">
        <ele>840.57</ele>
        <time>2022-07-02T12:20:52.000Z</time>
      </trkpt>
      <trkpt lat="45.28201" lon="5.98947">
        <ele>840.1</ele>
        <time>2022-07-02T12:20:57.000Z</time>
      </trkpt>
      <trkpt lat="45.28188" lon="5.98962">
        <ele>839.2</ele>
        <time>2022-07-02T12:21:02.000Z</time>
      </trkpt>
      <trkpt lat="45.2817" lon="5.98977">
        <ele>837.87</ele>
        <time>2022-07-02T12:21:07.000Z</time>
      </trkpt>
      <trkpt lat="45.28154" lon="5.98995">
        <ele>840</ele>
        <time>2022-07-02T12:21:12.000Z</time>
      </trkpt>
      <trkpt lat="45.2814" lon="5.99015">
        <ele>844</ele>
        <time>2022-07-02T12:21:17.000Z</time>
      </trkpt>
      <trkpt lat="45.28128" lon="5.99038">
        <ele>846.97</ele>
        <time>2022-07-02T12:21:22.000Z</time>
      </trkpt>
      <trkpt lat="45.28114" lon="5.9906">
        <ele>847.96</ele>
        <time>2022-07-02T12:21:27.000Z</time>
      </trkpt>
      <trkpt lat="45.28096" lon="5.99067">
        <ele>852.43</ele>
        <time>2022-07-02T12:21:32.000Z</time>
      </trkpt>
      <trkpt lat="45.28086" lon="5.99074">
        <ele>851.02</ele>
        <time>2022-07-02T12:22:15.000Z</time>
      </trkpt>
      <trkpt lat="45.2807" lon="5.99079">
        <ele>848.41</ele>
        <time>2022-07-02T12:22:20.000Z</time>
      </trkpt>
      <trkpt lat="45.28049" lon="5.99083">
        <ele>855.05</ele>
        <time>2022-07-02T12:22:25.000Z</time>
      </trkpt>
      <trkpt lat="45.28027" lon="5.99078">
        <ele>857.14</ele>
        <time>2022-07-02T12:22:30.000Z</time>
      </trkpt>
      <trkpt lat="45.28006" lon="5.99067">
        <ele>857.56</ele>
        <time>2022-07-02T12:22:35.000Z</time>
      </trkpt>
      <trkpt lat="45.27985" lon="5.9906">
        <ele>858.29</ele>
        <time>2022-07-02T12:22:40.000Z</time>
      </trkpt>
      <trkpt lat="45.27963" lon="5.99051">
        <ele>861.8</ele>
        <time>2022-07-02T12:22:45.000Z</time>
      </trkpt>
      <trkpt lat="45.27943" lon="5.99045">
        <ele>864.75</ele>
        <time>2022-07-02T12:22:50.000Z</time>
      </trkpt>
      <trkpt lat="45.2792" lon="5.99045">
        <ele>867.3</ele>
        <time>2022-07-02T12:22:55.000Z</time>
      </trkpt>
      <trkpt lat="45.27901" lon="5.99046">
        <ele>869.46</ele>
        <time>2022-07-02T12:23:00.000Z</time>
      </trkpt>
      <trkpt lat="45.27887" lon="5.99048">
        <ele>873.18</ele>
        <time>2022-07-02T12:23:05.000Z</time>
      </trkpt>
      <trkpt lat="45.27873" lon="5.99054">
        <ele>877.72</ele>
        <time>2022-07-02T12:23:10.000Z</time>
      </trkpt>
      <trkpt lat="45.27856" lon="5.99062">
        <ele>874.35</ele>
        <time>2022-07-02T12:23:15.000Z</time>
      </trkpt>
      <trkpt lat="45.27837" lon="5.9908">
        <ele>872.53</ele>
        <time>2022-07-02T12:23:20.000Z</time>
      </trkpt>
      <trkpt lat="45.2782" lon="5.99091">
        <ele>874.54</ele>
        <time>2022-07-02T12:23:25.000Z</time>
      </trkpt>
      <trkpt lat="45.27803" lon="5.99101">
        <ele>879.41</ele>
        <time>2022-07-02T12:23:30.000Z</time>
      </trkpt>
      <trkpt lat="45.27787" lon="5.99113">
        <ele>882.31</ele>
        <time>2022-07-02T12:23:35.000Z</time>
      </trkpt>
      <trkpt lat="45.2777" lon="5.99121">
        <ele>883.89</ele>
        <time>2022-07-02T12:23:40.000Z</time>
      </trkpt>
      <trkpt lat="45.27753" lon="5.99134">
        <ele>885.66</ele>
        <time>2022-07-02T12:23:45.000Z</time>
      </trkpt>
      <trkpt lat="45.27737" lon="5.9915">
        <ele>884.95</ele>
        <time>2022-07-02T12:23:50.000Z</time>
      </trkpt>
      <trkpt lat="45.27729" lon="5.99173">
        <ele>881.58</ele>
        <time>2022-07-02T12:23:55.000Z</time>
      </trkpt>
      <trkpt lat="45.27732" lon="5.99203">
        <ele>882.79</ele>
        <time>2022-07-02T12:24:00.000Z</time>
      </trkpt>
      <trkpt lat="45.2774" lon="5.99233">
        <ele>883.73</ele>
        <time>2022-07-02T12:24:05.000Z</time>
      </trkpt>
      <trkpt lat="45.27739" lon="5.99263">
        <ele>880.11</ele>
        <time>2022-07-02T12:24:10.000Z</time>
      </trkpt>
      <trkpt lat="45.27739" lon="5.99296">
        <ele>884.22</ele>
        <time>2022-07-02T12:24:15.000Z</time>
      </trkpt>
      <trkpt lat="45.27739" lon="5.99323">
        <ele>888.6</ele>
        <time>2022-07-02T12:24:20.000Z</time>
      </trkpt>
      <trkpt lat="45.27738" lon="5.99354">
        <ele>890.91</ele>
        <time>2022-07-02T12:24:25.000Z</time>
      </trkpt>
      <trkpt lat="45.2773" lon="5.99382">
        <ele>891.93</ele>
        <time>2022-07-02T12:24:30.000Z</time>
      </trkpt>
      <trkpt lat="45.27724" lon="5.9941">
        <ele>894.07</ele>
        <time>2022-07-02T12:24:35.000Z</time>
      </trkpt>
      <trkpt lat="45.27721" lon="5.99436">
        <ele>892.18</ele>
        <time>2022-07-02T12:24:40.000Z</time>
      </trkpt>
      <trkpt lat="45.2772" lon="5.9945">
        <ele>889.36</ele>
        <time>2022-07-02T12:24:45.000Z</time>
      </trkpt>
      <trkpt lat="45.27719" lon="5.99463">
        <ele>893.98</ele>
        <time>2022-07-02T12:25:28.000Z</time>
      </trkpt>
      <trkpt lat="45.27704" lon="5.9946">
        <ele>892.56</ele>
        <time>2022-07-02T12:25:33.000Z</time>
      </trkpt>
      <trkpt lat="45.27693" lon="5.99449">
        <ele>892.67</ele>
        <time>2022-07-02T12:25:38.000Z</time>
      </trkpt>
      <trkpt lat="45.27683" lon="5.9943">
        <ele>892.9</ele>
        <time>2022-07-02T12:25:43.000Z</time>
      </trkpt>
      <trkpt lat="45.2767" lon="5.99415">
        <ele>897.44</ele>
        <time>2022-07-02T12:25:48.000Z</time>
      </trkpt>
      <trkpt lat="45.27659" lon="5.99395">
        <ele>896.12</ele>
        <time>2022-07-02T12:25:53.000Z</time>
      </trkpt>
      <trkpt lat="45.27649" lon="5.99375">
        <ele>893.68</ele>
        <time>2022-07-02T12:25:58.000Z</time>
      </trkpt>
      <trkpt lat="45.27641" lon="5.99357">
        <ele>896.31</ele>
        <time>2022-07-02T12:26:03.000Z</time>
      </trkpt>
      <trkpt lat="45.27626" lon="5.99338">
        <ele>896.6</ele>
        <time>2022-07-02T12:26:08.000Z</time>
      </trkpt>
      <trkpt lat="45.2761" lon="5.99321">
        <ele>897.14</ele>
        <time>2022-07-02T12:26:13.000Z</time>
      </trkpt>
      <trkpt lat="45.27596" lon="5.99304">
        <ele>900.04</ele>
        <time>2022-07-02T12:26:18.000Z</time>
      </trkpt>
      <trkpt lat="45.27582" lon="5.99289">
        <ele>900.95</ele>
        <time>2022-07-02T12:26:23.000Z</time>
      </trkpt>
      <trkpt lat="45.2757" lon="5.99274">
        <ele>901.68</ele>
        <time>2022-07-02T12:26:28.000Z</time>
      </trkpt>
      <trkpt lat="45.27559" lon="5.99253">
        <ele>905.95</ele>
        <time>2022-07-02T12:26:33.000Z</time>
      </trkpt>
      <trkpt lat="45.27555" lon="5.99228">
        <ele>905.31</ele>
        <time>2022-07-02T12:26:38.000Z</time>
      </trkpt>
      <trkpt lat="45.27554" lon="5.99204">
        <ele>907.09</ele>
        <time>2022-07-02T12:26:43.000Z</time>
      </trkpt>
      <trkpt lat="45.27556" lon="5.99176">
        <ele>907.34</ele>
        <time>2022-07-02T12:26:48.000Z</time>
      </trkpt>
      <trkpt lat="45.27558" lon="5.9915">
        <ele>907.39</ele>
        <time>2022-07-02T12:26:53.000Z</time>
      </trkpt>
      <trkpt lat="45.27559" lon="5.99123">
        <ele>911.94</ele>
        <time>2022-07-02T12:26:58.000Z</time>
      </trkpt>
      <trkpt lat="45.2756" lon="5.99095">
        <ele>917.72</ele>
        <time>2022-07-02T12:27:03.000Z</time>
      </trkpt>
      <trkpt lat="45.27561" lon="5.99069">
        <ele>919.89</ele>
        <time>2022-07-02T12:27:08.000Z</time>
      </trkpt>
      <trkpt lat="45.27557" lon="5.99041">
        <ele>922.01</ele>
        <time>2022-07-02T12:27:13.000Z</time>
      </trkpt>
      <trkpt lat="45.2755" lon="5.99018">
        <ele>923.38</ele>
        <time>2022-07-02T12:27:18.000Z</time>
      </trkpt>
      <trkpt lat="45.27538" lon="5.98997">
        <ele>923.1</ele>
        <time>2022-07-02T12:27:23.000Z</time>
      </trkpt>
      <trkpt lat="45.27526" lon="5.98971">
        <ele>923.1</ele>
        <time>2022-07-02T12:27:28.000Z</time>
      </trkpt>
      <trkpt lat="45.27521" lon="5.98957">
        <ele>926.42</ele>
        <time>2022-07-02T12:27:33.000Z</time>
      </trkpt>
      <trkpt lat="45.27518" lon="5.98931">
        <ele>931.44</ele>
        <time>2022-07-02T12:27:38.000Z</time>
      </trkpt>
      <trkpt lat="45.27518" lon="5.98903">
        <ele>932.59</ele>
        <time>2022-07-02T12:27:43.000Z</time>
      </trkpt>
      <trkpt lat="45.27526" lon="5.98881">
        <ele>933.11</ele>
        <time>2022-07-02T12:27:48.000Z</time>
      </trkpt>
      <trkpt lat="45.27527" lon="5.98858">
        <ele>932.66</ele>
        <time>2022-07-02T12:27:53.000Z</time>
      </trkpt>
      <trkpt lat="45.27514" lon="5.98844">
        <ele>931</ele>
        <time>2022-07-02T12:27:58.000Z</time>
      </trkpt>
      <trkpt lat="45.27496" lon="5.98853">
        <ele>932.94</ele>
        <time>2022-07-02T12:28:03.000Z</time>
      </trkpt>
      <trkpt lat="45.27479" lon="5.98866">
        <ele>934.93</ele>
        <time>2022-07-02T12:28:08.000Z</time>
      </trkpt>
      <trkpt lat="45.27461" lon="5.9887">
        <ele>935.05</ele>
        <time>2022-07-02T12:28:13.000Z</time>
      </trkpt>
      <trkpt lat="45.27443" lon="5.98873">
        <ele>936.26</ele>
        <time>2022-07-02T12:28:18.000Z</time>
      </trkpt>
      <trkpt lat="45.27426" lon="5.98865">
        <ele>940.27</ele>
        <time>2022-07-02T12:28:23.000Z</time>
      </trkpt>
      <trkpt lat="45.27417" lon="5.98844">
        <ele>942.38</ele>
        <time>2022-07-02T12:28:28.000Z</time>
      </trkpt>
      <trkpt lat="45.27414" lon="5.98816">
        <ele>943.7</ele>
        <time>2022-07-02T12:28:33.000Z</time>
      </trkpt>
      <trkpt lat="45.27411" lon="5.9879">
        <ele>943.59</ele>
        <time>2022-07-02T12:28:38.000Z</time>
      </trkpt>
      <trkpt lat="45.27409" lon="5.98768">
        <ele>943.84</ele>
        <time>2022-07-02T12:28:43.000Z</time>
      </trkpt>
      <trkpt lat="45.27409" lon="5.98744">
        <ele>942.56</ele>
        <time>2022-07-02T12:28:48.000Z</time>
      </trkpt>
      <trkpt lat="45.274" lon="5.98719">
        <ele>941.62</ele>
        <time>2022-07-02T12:28:53.000Z</time>
      </trkpt>
      <trkpt lat="45.2741" lon="5.98721">
        <ele>949.89</ele>
        <time>2022-07-02T12:32:47.000Z</time>
      </trkpt>
      <trkpt lat="45.27414" lon="5.98709">
        <ele>949.39</ele>
        <time>2022-07-02T12:32:55.000Z</time>
      </trkpt>
      <trkpt lat="45.27416" lon="5.98697">
        <ele>948.81</ele>
        <time>2022-07-02T12:33:02.000Z</time>
      </trkpt>
      <trkpt lat="45.27417" lon="5.98678">
        <ele>944.92</ele>
        <time>2022-07-02T12:33:07.000Z</time>
      </trkpt>
      <trkpt lat="45.27416" lon="5.98639">
        <ele>943.49</ele>
        <time>2022-07-02T12:33:12.000Z</time>
      </trkpt>
      <trkpt lat="45.27412" lon="5.98596">
        <ele>940.93</ele>
        <time>2022-07-02T12:33:17.000Z</time>
      </trkpt>
      <trkpt lat="45.27406" lon="5.9854">
        <ele>938.11</ele>
        <time>2022-07-02T12:33:22.000Z</time>
      </trkpt>
      <trkpt lat="45.27423" lon="5.98478">
        <ele>936.66</ele>
        <time>2022-07-02T12:33:27.000Z</time>
      </trkpt>
      <trkpt lat="45.27424" lon="5.9843">
        <ele>934.35</ele>
        <time>2022-07-02T12:33:32.000Z</time>
      </trkpt>
      <trkpt lat="45.27393" lon="5.98452">
        <ele>931.13</ele>
        <time>2022-07-02T12:33:37.000Z</time>
      </trkpt>
      <trkpt lat="45.2735" lon="5.98449">
        <ele>927.19</ele>
        <time>2022-07-02T12:33:42.000Z</time>
      </trkpt>
      <trkpt lat="45.27303" lon="5.98456">
        <ele>924.06</ele>
        <time>2022-07-02T12:33:47.000Z</time>
      </trkpt>
      <trkpt lat="45.2725" lon="5.98445">
        <ele>919.56</ele>
        <time>2022-07-02T12:33:52.000Z</time>
      </trkpt>
      <trkpt lat="45.27196" lon="5.98434">
        <ele>910.77</ele>
        <time>2022-07-02T12:33:57.000Z</time>
      </trkpt>
      <trkpt lat="45.2714" lon="5.98387">
        <ele>905.38</ele>
        <time>2022-07-02T12:34:02.000Z</time>
      </trkpt>
      <trkpt lat="45.27098" lon="5.98322">
        <ele>904.36</ele>
        <time>2022-07-02T12:34:07.000Z</time>
      </trkpt>
      <trkpt lat="45.27057" lon="5.98314">
        <ele>899.97</ele>
        <time>2022-07-02T12:34:12.000Z</time>
      </trkpt>
      <trkpt lat="45.27031" lon="5.98306">
        <ele>901.01</ele>
        <time>2022-07-02T12:34:17.000Z</time>
      </trkpt>
      <trkpt lat="45.27006" lon="5.98334">
        <ele>901.94</ele>
        <time>2022-07-02T12:34:22.000Z</time>
      </trkpt>
      <trkpt lat="45.26973" lon="5.98363">
        <ele>898.59</ele>
        <time>2022-07-02T12:34:27.000Z</time>
      </trkpt>
      <trkpt lat="45.26938" lon="5.98385">
        <ele>896.32</ele>
        <time>2022-07-02T12:34:32.000Z</time>
      </trkpt>
      <trkpt lat="45.26899" lon="5.98389">
        <ele>895.39</ele>
        <time>2022-07-02T12:34:37.000Z</time>
      </trkpt>
      <trkpt lat="45.26862" lon="5.98369">
        <ele>895.96</ele>
        <time>2022-07-02T12:34:42.000Z</time>
      </trkpt>
      <trkpt lat="45.26825" lon="5.9835">
        <ele>893.62</ele>
        <time>2022-07-02T12:34:47.000Z</time>
      </trkpt>
      <trkpt lat="45.26784" lon="5.98373">
        <ele>895.34</ele>
        <time>2022-07-02T12:34:52.000Z</time>
      </trkpt>
      <trkpt lat="45.26749" lon="5.98424">
        <ele>892.88</ele>
        <time>2022-07-02T12:34:57.000Z</time>
      </trkpt>
      <trkpt lat="45.26725" lon="5.98443">
        <ele>892.72</ele>
        <time>2022-07-02T12:35:02.000Z</time>
      </trkpt>
      <trkpt lat="45.26735" lon="5.98388">
        <ele>890.68</ele>
        <time>2022-07-02T12:35:07.000Z</time>
      </trkpt>
      <trkpt lat="45.26739" lon="5.98358">
        <ele>888.45</ele>
        <time>2022-07-02T12:35:12.000Z</time>
      </trkpt>
      <trkpt lat="45.26736" lon="5.9833">
        <ele>885.9</ele>
        <time>2022-07-02T12:35:17.000Z</time>
      </trkpt>
      <trkpt lat="45.26738" lon="5.983">
        <ele>884.45</ele>
        <time>2022-07-02T12:35:22.000Z</time>
      </trkpt>
      <trkpt lat="45.2674" lon="5.9827">
        <ele>884.36</ele>
        <time>2022-07-02T12:35:27.000Z</time>
      </trkpt>
      <trkpt lat="45.2674" lon="5.98242">
        <ele>886.42</ele>
        <time>2022-07-02T12:35:32.000Z</time>
      </trkpt>
      <trkpt lat="45.26735" lon="5.98216">
        <ele>886.19</ele>
        <time>2022-07-02T12:35:37.000Z</time>
      </trkpt>
      <trkpt lat="45.26728" lon="5.98203">
        <ele>884.62</ele>
        <time>2022-07-02T12:35:42.000Z</time>
      </trkpt>
      <trkpt lat="45.26719" lon="5.98184">
        <ele>889.09</ele>
        <time>2022-07-02T12:35:47.000Z</time>
      </trkpt>
      <trkpt lat="45.26707" lon="5.98149">
        <ele>894.26</ele>
        <time>2022-07-02T12:35:52.000Z</time>
      </trkpt>
      <trkpt lat="45.26681" lon="5.98116">
        <ele>892.01</ele>
        <time>2022-07-02T12:35:57.000Z</time>
      </trkpt>
      <trkpt lat="45.2666" lon="5.98064">
        <ele>889.73</ele>
        <time>2022-07-02T12:36:02.000Z</time>
      </trkpt>
      <trkpt lat="45.2666" lon="5.98">
        <ele>886.71</ele>
        <time>2022-07-02T12:36:07.000Z</time>
      </trkpt>
      <trkpt lat="45.26633" lon="5.97948">
        <ele>888.3</ele>
        <time>2022-07-02T12:36:12.000Z</time>
      </trkpt>
      <trkpt lat="45.26608" lon="5.97902">
        <ele>886.33</ele>
        <time>2022-07-02T12:36:17.000Z</time>
      </trkpt>
      <trkpt lat="45.2658" lon="5.97876">
        <ele>887.07</ele>
        <time>2022-07-02T12:36:22.000Z</time>
      </trkpt>
      <trkpt lat="45.26559" lon="5.97861">
        <ele>887.05</ele>
        <time>2022-07-02T12:36:27.000Z</time>
      </trkpt>
      <trkpt lat="45.26541" lon="5.9785">
        <ele>887.68</ele>
        <time>2022-07-02T12:36:32.000Z</time>
      </trkpt>
      <trkpt lat="45.26522" lon="5.97837">
        <ele>885.76</ele>
        <time>2022-07-02T12:36:37.000Z</time>
      </trkpt>
      <trkpt lat="45.26502" lon="5.97825">
        <ele>889.52</ele>
        <time>2022-07-02T12:36:42.000Z</time>
      </trkpt>
      <trkpt lat="45.26477" lon="5.97816">
        <ele>885.36</ele>
        <time>2022-07-02T12:36:47.000Z</time>
      </trkpt>
      <trkpt lat="45.26456" lon="5.97815">
        <ele>887.05</ele>
        <time>2022-07-02T12:36:52.000Z</time>
      </trkpt>
      <trkpt lat="45.26437" lon="5.97821">
        <ele>887.71</ele>
        <time>2022-07-02T12:36:57.000Z</time>
      </trkpt>
      <trkpt lat="45.26419" lon="5.97833">
        <ele>889.38</ele>
        <time>2022-07-02T12:37:02.000Z</time>
      </trkpt>
      <trkpt lat="45.26396" lon="5.97837">
        <ele>891.59</ele>
        <time>2022-07-02T12:37:07.000Z</time>
      </trkpt>
      <trkpt lat="45.26372" lon="5.97847">
        <ele>895.03</ele>
        <time>2022-07-02T12:37:12.000Z</time>
      </trkpt>
      <trkpt lat="45.26352" lon="5.97857">
        <ele>898.98</ele>
        <time>2022-07-02T12:37:17.000Z</time>
      </trkpt>
      <trkpt lat="45.2633" lon="5.97866">
        <ele>901.58</ele>
        <time>2022-07-02T12:37:22.000Z</time>
      </trkpt>
      <trkpt lat="45.2631" lon="5.97867">
        <ele>905.22</ele>
        <time>2022-07-02T12:37:27.000Z</time>
      </trkpt>
      <trkpt lat="45.26289" lon="5.97867">
        <ele>905.56</ele>
        <time>2022-07-02T12:37:32.000Z</time>
      </trkpt>
      <trkpt lat="45.26268" lon="5.97863">
        <ele>905.95</ele>
        <time>2022-07-02T12:37:37.000Z</time>
      </trkpt>
      <trkpt lat="45.26248" lon="5.97859">
        <ele>910.8</ele>
        <time>2022-07-02T12:37:42.000Z</time>
      </trkpt>
      <trkpt lat="45.26229" lon="5.97855">
        <ele>915.5</ele>
        <time>2022-07-02T12:37:47.000Z</time>
      </trkpt>
      <trkpt lat="45.26209" lon="5.97849">
        <ele>920.04</ele>
        <time>2022-07-02T12:37:52.000Z</time>
      </trkpt>
      <trkpt lat="45.26188" lon="5.97845">
        <ele>921.77</ele>
        <time>2022-07-02T12:37:57.000Z</time>
      </trkpt>
      <trkpt lat="45.26166" lon="5.9784">
        <ele>918.54</ele>
        <time>2022-07-02T12:38:02.000Z</time>
      </trkpt>
      <trkpt lat="45.26145" lon="5.97836">
        <ele>919.01</ele>
        <time>2022-07-02T12:38:07.000Z</time>
      </trkpt>
      <trkpt lat="45.26124" lon="5.97833">
        <ele>915.49</ele>
        <time>2022-07-02T12:38:12.000Z</time>
      </trkpt>
      <trkpt lat="45.26103" lon="5.97831">
        <ele>918.37</ele>
        <time>2022-07-02T12:38:17.000Z</time>
      </trkpt>
      <trkpt lat="45.26081" lon="5.97828">
        <ele>922.26</ele>
        <time>2022-07-02T12:38:22.000Z</time>
      </trkpt>
      <trkpt lat="45.26059" lon="5.97823">
        <ele>926.5</ele>
        <time>2022-07-02T12:38:27.000Z</time>
      </trkpt>
      <trkpt lat="45.26036" lon="5.97822">
        <ele>923.07</ele>
        <time>2022-07-02T12:38:32.000Z</time>
      </trkpt>
      <trkpt lat="45.26015" lon="5.9782">
        <ele>924.32</ele>
        <time>2022-07-02T12:38:37.000Z</time>
      </trkpt>
      <trkpt lat="45.25995" lon="5.97809">
        <ele>926.41</ele>
        <time>2022-07-02T12:38:42.000Z</time>
      </trkpt>
      <trkpt lat="45.25976" lon="5.97791">
        <ele>928.2</ele>
        <time>2022-07-02T12:38:47.000Z</time>
      </trkpt>
      <trkpt lat="45.25959" lon="5.97771">
        <ele>931.24</ele>
        <time>2022-07-02T12:38:52.000Z</time>
      </trkpt>
      <trkpt lat="45.25944" lon="5.97755">
        <ele>930.96</ele>
        <time>2022-07-02T12:38:57.000Z</time>
      </trkpt>
      <trkpt lat="45.2593" lon="5.97739">
        <ele>930.1</ele>
        <time>2022-07-02T12:39:02.000Z</time>
      </trkpt>
      <trkpt lat="45.25913" lon="5.97721">
        <ele>928.04</ele>
        <time>2022-07-02T12:39:07.000Z</time>
      </trkpt>
      <trkpt lat="45.25896" lon="5.97704">
        <ele>930.75</ele>
        <time>2022-07-02T12:39:12.000Z</time>
      </trkpt>
      <trkpt lat="45.25874" lon="5.97691">
        <ele>933.47</ele>
        <time>2022-07-02T12:39:17.000Z</time>
      </trkpt>
      <trkpt lat="45.25853" lon="5.97678">
        <ele>935.94</ele>
        <time>2022-07-02T12:39:22.000Z</time>
      </trkpt>
      <trkpt lat="45.25832" lon="5.97666">
        <ele>937.86</ele>
        <time>2022-07-02T12:39:27.000Z</time>
      </trkpt>
      <trkpt lat="45.25814" lon="5.97653">
        <ele>940.79</ele>
        <time>2022-07-02T12:39:32.000Z</time>
      </trkpt>
      <trkpt lat="45.25794" lon="5.97639">
        <ele>944.27</ele>
        <time>2022-07-02T12:39:37.000Z</time>
      </trkpt>
      <trkpt lat="45.25776" lon="5.97622">
        <ele>948.32</ele>
        <time>2022-07-02T12:39:42.000Z</time>
      </trkpt>
      <trkpt lat="45.25757" lon="5.97608">
        <ele>952.48</ele>
        <time>2022-07-02T12:39:47.000Z</time>
      </trkpt>
      <trkpt lat="45.2574" lon="5.97594">
        <ele>956.33</ele>
        <time>2022-07-02T12:39:52.000Z</time>
      </trkpt>
      <trkpt lat="45.2572" lon="5.97579">
        <ele>955.38</ele>
        <time>2022-07-02T12:39:57.000Z</time>
      </trkpt>
      <trkpt lat="45.25699" lon="5.97565">
        <ele>956.3</ele>
        <time>2022-07-02T12:40:02.000Z</time>
      </trkpt>
      <trkpt lat="45.25684" lon="5.97549">
        <ele>955.79</ele>
        <time>2022-07-02T12:40:07.000Z</time>
      </trkpt>
      <trkpt lat="45.25671" lon="5.97524">
        <ele>957.6</ele>
        <time>2022-07-02T12:40:12.000Z</time>
      </trkpt>
      <trkpt lat="45.25655" lon="5.97503">
        <ele>959.37</ele>
        <time>2022-07-02T12:40:17.000Z</time>
      </trkpt>
      <trkpt lat="45.25643" lon="5.97476">
        <ele>962.15</ele>
        <time>2022-07-02T12:40:22.000Z</time>
      </trkpt>
      <trkpt lat="45.25627" lon="5.97449">
        <ele>957.32</ele>
        <time>2022-07-02T12:40:27.000Z</time>
      </trkpt>
      <trkpt lat="45.25613" lon="5.97422">
        <ele>958.32</ele>
        <time>2022-07-02T12:40:32.000Z</time>
      </trkpt>
      <trkpt lat="45.25603" lon="5.97397">
        <ele>962.73</ele>
        <time>2022-07-02T12:40:37.000Z</time>
      </trkpt>
      <trkpt lat="45.25594" lon="5.97371">
        <ele>965.22</ele>
        <time>2022-07-02T12:40:42.000Z</time>
      </trkpt>
      <trkpt lat="45.25583" lon="5.97342">
        <ele>967.39</ele>
        <time>2022-07-02T12:40:47.000Z</time>
      </trkpt>
      <trkpt lat="45.25572" lon="5.97313">
        <ele>968.71</ele>
        <time>2022-07-02T12:40:52.000Z</time>
      </trkpt>
      <trkpt lat="45.25565" lon="5.97284">
        <ele>969.69</ele>
        <time>2022-07-02T12:40:57.000Z</time>
      </trkpt>
      <trkpt lat="45.25566" lon="5.9726">
        <ele>971.18</ele>
        <time>2022-07-02T12:41:02.000Z</time>
      </trkpt>
      <trkpt lat="45.25564" lon="5.97221">
        <ele>970.64</ele>
        <time>2022-07-02T12:41:07.000Z</time>
      </trkpt>
      <trkpt lat="45.25564" lon="5.9719">
        <ele>973.46</ele>
        <time>2022-07-02T12:41:12.000Z</time>
      </trkpt>
      <trkpt lat="45.2556" lon="5.97158">
        <ele>972.73</ele>
        <time>2022-07-02T12:41:17.000Z</time>
      </trkpt>
      <trkpt lat="45.25551" lon="5.97123">
        <ele>971.6</ele>
        <time>2022-07-02T12:41:22.000Z</time>
      </trkpt>
      <trkpt lat="45.25547" lon="5.97098">
        <ele>972.4</ele>
        <time>2022-07-02T12:41:27.000Z</time>
      </trkpt>
      <trkpt lat="45.25533" lon="5.97073">
        <ele>974.36</ele>
        <time>2022-07-02T12:41:32.000Z</time>
      </trkpt>
      <trkpt lat="45.25517" lon="5.97059">
        <ele>980.05</ele>
        <time>2022-07-02T12:41:37.000Z</time>
      </trkpt>
      <trkpt lat="45.25504" lon="5.97045">
        <ele>981.81</ele>
        <time>2022-07-02T12:41:42.000Z</time>
      </trkpt>
      <trkpt lat="45.25495" lon="5.97048">
        <ele>982.85</ele>
        <time>2022-07-02T12:44:07.000Z</time>
      </trkpt>
      <trkpt lat="45.25486" lon="5.97036">
        <ele>980.49</ele>
        <time>2022-07-02T12:44:12.000Z</time>
      </trkpt>
      <trkpt lat="45.25471" lon="5.97019">
        <ele>977.3</ele>
        <time>2022-07-02T12:44:17.000Z</time>
      </trkpt>
      <trkpt lat="45.25455" lon="5.97004">
        <ele>979.73</ele>
        <time>2022-07-02T12:44:22.000Z</time>
      </trkpt>
      <trkpt lat="45.25436" lon="5.96989">
        <ele>982.1</ele>
        <time>2022-07-02T12:44:27.000Z</time>
      </trkpt>
      <trkpt lat="45.25418" lon="5.96977">
        <ele>986.36</ele>
        <time>2022-07-02T12:44:32.000Z</time>
      </trkpt>
      <trkpt lat="45.25398" lon="5.9697">
        <ele>988.54</ele>
        <time>2022-07-02T12:44:37.000Z</time>
      </trkpt>
      <trkpt lat="45.25379" lon="5.96972">
        <ele>986.91</ele>
        <time>2022-07-02T12:44:42.000Z</time>
      </trkpt>
      <trkpt lat="45.25356" lon="5.96972">
        <ele>988.01</ele>
        <time>2022-07-02T12:44:47.000Z</time>
      </trkpt>
      <trkpt lat="45.25332" lon="5.96972">
        <ele>990.35</ele>
        <time>2022-07-02T12:44:52.000Z</time>
      </trkpt>
      <trkpt lat="45.25309" lon="5.9697">
        <ele>987.73</ele>
        <time>2022-07-02T12:44:57.000Z</time>
      </trkpt>
      <trkpt lat="45.25285" lon="5.9697">
        <ele>987.56</ele>
        <time>2022-07-02T12:45:02.000Z</time>
      </trkpt>
      <trkpt lat="45.25261" lon="5.96972">
        <ele>988.43</ele>
        <time>2022-07-02T12:45:07.000Z</time>
      </trkpt>
      <trkpt lat="45.25238" lon="5.96972">
        <ele>989.4</ele>
        <time>2022-07-02T12:45:12.000Z</time>
      </trkpt>
      <trkpt lat="45.25219" lon="5.96979">
        <ele>992.97</ele>
        <time>2022-07-02T12:45:17.000Z</time>
      </trkpt>
      <trkpt lat="45.25204" lon="5.96999">
        <ele>993.09</ele>
        <time>2022-07-02T12:45:22.000Z</time>
      </trkpt>
      <trkpt lat="45.25191" lon="5.97025">
        <ele>991.96</ele>
        <time>2022-07-02T12:45:27.000Z</time>
      </trkpt>
      <trkpt lat="45.25169" lon="5.97027">
        <ele>990.98</ele>
        <time>2022-07-02T12:45:32.000Z</time>
      </trkpt>
      <trkpt lat="45.25149" lon="5.97027">
        <ele>989.72</ele>
        <time>2022-07-02T12:45:37.000Z</time>
      </trkpt>
      <trkpt lat="45.25126" lon="5.97039">
        <ele>991.72</ele>
        <time>2022-07-02T12:45:42.000Z</time>
      </trkpt>
      <trkpt lat="45.25105" lon="5.97055">
        <ele>994.37</ele>
        <time>2022-07-02T12:45:47.000Z</time>
      </trkpt>
      <trkpt lat="45.25089" lon="5.97079">
        <ele>995.56</ele>
        <time>2022-07-02T12:45:52.000Z</time>
      </trkpt>
      <trkpt lat="45.25076" lon="5.97109">
        <ele>993.69</ele>
        <time>2022-07-02T12:45:57.000Z</time>
      </trkpt>
      <trkpt lat="45.25071" lon="5.97141">
        <ele>993.27</ele>
        <time>2022-07-02T12:46:02.000Z</time>
      </trkpt>
      <trkpt lat="45.25064" lon="5.97171">
        <ele>992.26</ele>
        <time>2022-07-02T12:46:07.000Z</time>
      </trkpt>
      <trkpt lat="45.25059" lon="5.97186">
        <ele>993.56</ele>
        <time>2022-07-02T12:46:12.000Z</time>
      </trkpt>
      <trkpt lat="45.25053" lon="5.97199">
        <ele>994.53</ele>
        <time>2022-07-02T12:46:17.000Z</time>
      </trkpt>
      <trkpt lat="45.25046" lon="5.97214">
        <ele>996.58</ele>
        <time>2022-07-02T12:46:22.000Z</time>
      </trkpt>
      <trkpt lat="45.25037" lon="5.97225">
        <ele>997.56</ele>
        <time>2022-07-02T12:46:27.000Z</time>
      </trkpt>
      <trkpt lat="45.25027" lon="5.97229">
        <ele>996.9</ele>
        <time>2022-07-02T12:46:33.000Z</time>
      </trkpt>
      <trkpt lat="45.25016" lon="5.97232">
        <ele>998.76</ele>
        <time>2022-07-02T12:46:38.000Z</time>
      </trkpt>
      <trkpt lat="45.25002" lon="5.97235">
        <ele>996.15</ele>
        <time>2022-07-02T12:46:43.000Z</time>
      </trkpt>
      <trkpt lat="45.24981" lon="5.97237">
        <ele>993.74</ele>
        <time>2022-07-02T12:46:48.000Z</time>
      </trkpt>
      <trkpt lat="45.24955" lon="5.9724">
        <ele>996.25</ele>
        <time>2022-07-02T12:46:53.000Z</time>
      </trkpt>
      <trkpt lat="45.24924" lon="5.97238">
        <ele>997.52</ele>
        <time>2022-07-02T12:46:58.000Z</time>
      </trkpt>
      <trkpt lat="45.24883" lon="5.97241">
        <ele>995.51</ele>
        <time>2022-07-02T12:47:03.000Z</time>
      </trkpt>
      <trkpt lat="45.24839" lon="5.97257">
        <ele>992.19</ele>
        <time>2022-07-02T12:47:08.000Z</time>
      </trkpt>
      <trkpt lat="45.24787" lon="5.97267">
        <ele>988.04</ele>
        <time>2022-07-02T12:47:13.000Z</time>
      </trkpt>
      <trkpt lat="45.24727" lon="5.97263">
        <ele>982.63</ele>
        <time>2022-07-02T12:47:18.000Z</time>
      </trkpt>
      <trkpt lat="45.24662" lon="5.97271">
        <ele>981.92</ele>
        <time>2022-07-02T12:47:23.000Z</time>
      </trkpt>
      <trkpt lat="45.24596" lon="5.97284">
        <ele>978.98</ele>
        <time>2022-07-02T12:47:28.000Z</time>
      </trkpt>
      <trkpt lat="45.24541" lon="5.97283">
        <ele>969.55</ele>
        <time>2022-07-02T12:47:33.000Z</time>
      </trkpt>
      <trkpt lat="45.24492" lon="5.97329">
        <ele>969.21</ele>
        <time>2022-07-02T12:47:38.000Z</time>
      </trkpt>
      <trkpt lat="45.24434" lon="5.9733">
        <ele>966.04</ele>
        <time>2022-07-02T12:47:43.000Z</time>
      </trkpt>
      <trkpt lat="45.24385" lon="5.97364">
        <ele>956.6</ele>
        <time>2022-07-02T12:47:48.000Z</time>
      </trkpt>
      <trkpt lat="45.24339" lon="5.97426">
        <ele>951.42</ele>
        <time>2022-07-02T12:47:53.000Z</time>
      </trkpt>
      <trkpt lat="45.24273" lon="5.97428">
        <ele>948.07</ele>
        <time>2022-07-02T12:47:58.000Z</time>
      </trkpt>
      <trkpt lat="45.24207" lon="5.97461">
        <ele>940.01</ele>
        <time>2022-07-02T12:48:03.000Z</time>
      </trkpt>
      <trkpt lat="45.24144" lon="5.97498">
        <ele>932.71</ele>
        <time>2022-07-02T12:48:08.000Z</time>
      </trkpt>
      <trkpt lat="45.24077" lon="5.97515">
        <ele>927.18</ele>
        <time>2022-07-02T12:48:13.000Z</time>
      </trkpt>
      <trkpt lat="45.2402" lon="5.97484">
        <ele>917.85</ele>
        <time>2022-07-02T12:48:18.000Z</time>
      </trkpt>
      <trkpt lat="45.23998" lon="5.97429">
        <ele>911.94</ele>
        <time>2022-07-02T12:48:23.000Z</time>
      </trkpt>
      <trkpt lat="45.23998" lon="5.97363">
        <ele>905.82</ele>
        <time>2022-07-02T12:48:28.000Z</time>
      </trkpt>
      <trkpt lat="45.23972" lon="5.97345">
        <ele>905.42</ele>
        <time>2022-07-02T12:48:33.000Z</time>
      </trkpt>
      <trkpt lat="45.23944" lon="5.97353">
        <ele>907.06</ele>
        <time>2022-07-02T12:48:38.000Z</time>
      </trkpt>
      <trkpt lat="45.2392" lon="5.97362">
        <ele>908.17</ele>
        <time>2022-07-02T12:48:43.000Z</time>
      </trkpt>
      <trkpt lat="45.23898" lon="5.97367">
        <ele>905.73</ele>
        <time>2022-07-02T12:48:48.000Z</time>
      </trkpt>
      <trkpt lat="45.23877" lon="5.97374">
        <ele>907.18</ele>
        <time>2022-07-02T12:48:53.000Z</time>
      </trkpt>
      <trkpt lat="45.23854" lon="5.97376">
        <ele>906.17</ele>
        <time>2022-07-02T12:48:58.000Z</time>
      </trkpt>
      <trkpt lat="45.23835" lon="5.97373">
        <ele>907.62</ele>
        <time>2022-07-02T12:49:03.000Z</time>
      </trkpt>
      <trkpt lat="45.23815" lon="5.97368">
        <ele>906.28</ele>
        <time>2022-07-02T12:49:08.000Z</time>
      </trkpt>
      <trkpt lat="45.23798" lon="5.97354">
        <ele>909.37</ele>
        <time>2022-07-02T12:49:13.000Z</time>
      </trkpt>
      <trkpt lat="45.23781" lon="5.97342">
        <ele>911.12</ele>
        <time>2022-07-02T12:49:18.000Z</time>
      </trkpt>
      <trkpt lat="45.23762" lon="5.97332">
        <ele>912.44</ele>
        <time>2022-07-02T12:49:23.000Z</time>
      </trkpt>
      <trkpt lat="45.2374" lon="5.97319">
        <ele>915.59</ele>
        <time>2022-07-02T12:49:28.000Z</time>
      </trkpt>
      <trkpt lat="45.23722" lon="5.97302">
        <ele>917.39</ele>
        <time>2022-07-02T12:49:33.000Z</time>
      </trkpt>
      <trkpt lat="45.23711" lon="5.97276">
        <ele>917.42</ele>
        <time>2022-07-02T12:49:38.000Z</time>
      </trkpt>
      <trkpt lat="45.23704" lon="5.97245">
        <ele>917.03</ele>
        <time>2022-07-02T12:49:43.000Z</time>
      </trkpt>
      <trkpt lat="45.23706" lon="5.97213">
        <ele>917.4</ele>
        <time>2022-07-02T12:49:48.000Z</time>
      </trkpt>
      <trkpt lat="45.23715" lon="5.97182">
        <ele>919.15</ele>
        <time>2022-07-02T12:49:53.000Z</time>
      </trkpt>
      <trkpt lat="45.23726" lon="5.9715">
        <ele>921.37</ele>
        <time>2022-07-02T12:49:58.000Z</time>
      </trkpt>
      <trkpt lat="45.23737" lon="5.97118">
        <ele>921.08</ele>
        <time>2022-07-02T12:50:03.000Z</time>
      </trkpt>
      <trkpt lat="45.23749" lon="5.97086">
        <ele>920.59</ele>
        <time>2022-07-02T12:50:08.000Z</time>
      </trkpt>
      <trkpt lat="45.23762" lon="5.97053">
        <ele>919.62</ele>
        <time>2022-07-02T12:50:13.000Z</time>
      </trkpt>
      <trkpt lat="45.23779" lon="5.97021">
        <ele>923.32</ele>
        <time>2022-07-02T12:50:18.000Z</time>
      </trkpt>
      <trkpt lat="45.23793" lon="5.96991">
        <ele>926.78</ele>
        <time>2022-07-02T12:50:23.000Z</time>
      </trkpt>
      <trkpt lat="45.23805" lon="5.96966">
        <ele>930.71</ele>
        <time>2022-07-02T12:50:28.000Z</time>
      </trkpt>
      <trkpt lat="45.23815" lon="5.96938">
        <ele>929.76</ele>
        <time>2022-07-02T12:50:33.000Z</time>
      </trkpt>
      <trkpt lat="45.23824" lon="5.96915">
        <ele>930.26</ele>
        <time>2022-07-02T12:50:38.000Z</time>
      </trkpt>
      <trkpt lat="45.23831" lon="5.96888">
        <ele>934.27</ele>
        <time>2022-07-02T12:50:43.000Z</time>
      </trkpt>
      <trkpt lat="45.23835" lon="5.96858">
        <ele>932.72</ele>
        <time>2022-07-02T12:50:48.000Z</time>
      </trkpt>
      <trkpt lat="45.23836" lon="5.96824">
        <ele>931.76</ele>
        <time>2022-07-02T12:50:53.000Z</time>
      </trkpt>
      <trkpt lat="45.23841" lon="5.96793">
        <ele>933.96</ele>
        <time>2022-07-02T12:50:58.000Z</time>
      </trkpt>
      <trkpt lat="45.23853" lon="5.96769">
        <ele>936.29</ele>
        <time>2022-07-02T12:51:03.000Z</time>
      </trkpt>
      <trkpt lat="45.23864" lon="5.9675">
        <ele>936.11</ele>
        <time>2022-07-02T12:51:08.000Z</time>
      </trkpt>
      <trkpt lat="45.23878" lon="5.96737">
        <ele>936.15</ele>
        <time>2022-07-02T12:51:13.000Z</time>
      </trkpt>
      <trkpt lat="45.23893" lon="5.96724">
        <ele>937.24</ele>
        <time>2022-07-02T12:51:18.000Z</time>
      </trkpt>
      <trkpt lat="45.23908" lon="5.96709">
        <ele>939.33</ele>
        <time>2022-07-02T12:51:23.000Z</time>
      </trkpt>
      <trkpt lat="45.23922" lon="5.9669">
        <ele>940.59</ele>
        <time>2022-07-02T12:51:28.000Z</time>
      </trkpt>
      <trkpt lat="45.23933" lon="5.96669">
        <ele>945.56</ele>
        <time>2022-07-02T12:51:33.000Z</time>
      </trkpt>
      <trkpt lat="45.23938" lon="5.96641">
        <ele>947.79</ele>
        <time>2022-07-02T12:51:38.000Z</time>
      </trkpt>
      <trkpt lat="45.23939" lon="5.96614">
        <ele>949.2</ele>
        <time>2022-07-02T12:51:43.000Z</time>
      </trkpt>
      <trkpt lat="45.23935" lon="5.96587">
        <ele>948.32</ele>
        <time>2022-07-02T12:51:48.000Z</time>
      </trkpt>
      <trkpt lat="45.23935" lon="5.96558">
        <ele>948.77</ele>
        <time>2022-07-02T12:51:53.000Z</time>
      </trkpt>
      <trkpt lat="45.23941" lon="5.9653">
        <ele>950.96</ele>
        <time>2022-07-02T12:51:58.000Z</time>
      </trkpt>
      <trkpt lat="45.2395" lon="5.96507">
        <ele>954.72</ele>
        <time>2022-07-02T12:52:03.000Z</time>
      </trkpt>
      <trkpt lat="45.2396" lon="5.96484">
        <ele>955.39</ele>
        <time>2022-07-02T12:52:08.000Z</time>
      </trkpt>
      <trkpt lat="45.23972" lon="5.96464">
        <ele>958.41</ele>
        <time>2022-07-02T12:52:13.000Z</time>
      </trkpt>
      <trkpt lat="45.23978" lon="5.96438">
        <ele>958.22</ele>
        <time>2022-07-02T12:52:18.000Z</time>
      </trkpt>
      <trkpt lat="45.2398" lon="5.96413">
        <ele>960.16</ele>
        <time>2022-07-02T12:52:23.000Z</time>
      </trkpt>
      <trkpt lat="45.23978" lon="5.96391">
        <ele>960.18</ele>
        <time>2022-07-02T12:52:28.000Z</time>
      </trkpt>
      <trkpt lat="45.23976" lon="5.96363">
        <ele>964.18</ele>
        <time>2022-07-02T12:52:33.000Z</time>
      </trkpt>
      <trkpt lat="45.23977" lon="5.9634">
        <ele>966.7</ele>
        <time>2022-07-02T12:52:38.000Z</time>
      </trkpt>
      <trkpt lat="45.2398" lon="5.96317">
        <ele>965</ele>
        <time>2022-07-02T12:52:43.000Z</time>
      </trkpt>
      <trkpt lat="45.23986" lon="5.9629">
        <ele>966.93</ele>
        <time>2022-07-02T12:52:48.000Z</time>
      </trkpt>
      <trkpt lat="45.23991" lon="5.96261">
        <ele>969.32</ele>
        <time>2022-07-02T12:52:53.000Z</time>
      </trkpt>
      <trkpt lat="45.23999" lon="5.96234">
        <ele>972.55</ele>
        <time>2022-07-02T12:52:58.000Z</time>
      </trkpt>
      <trkpt lat="45.24007" lon="5.96212">
        <ele>972.17</ele>
        <time>2022-07-02T12:53:03.000Z</time>
      </trkpt>
      <trkpt lat="45.24015" lon="5.96188">
        <ele>977.86</ele>
        <time>2022-07-02T12:53:08.000Z</time>
      </trkpt>
      <trkpt lat="45.24026" lon="5.96167">
        <ele>980.11</ele>
        <time>2022-07-02T12:53:13.000Z</time>
      </trkpt>
      <trkpt lat="45.24036" lon="5.96145">
        <ele>978.62</ele>
        <time>2022-07-02T12:53:18.000Z</time>
      </trkpt>
      <trkpt lat="45.24048" lon="5.96121">
        <ele>977.58</ele>
        <time>2022-07-02T12:53:23.000Z</time>
      </trkpt>
      <trkpt lat="45.24056" lon="5.96096">
        <ele>980.66</ele>
        <time>2022-07-02T12:53:28.000Z</time>
      </trkpt>
      <trkpt lat="45.24059" lon="5.96071">
        <ele>983.6</ele>
        <time>2022-07-02T12:53:33.000Z</time>
      </trkpt>
      <trkpt lat="45.24063" lon="5.96049">
        <ele>984.12</ele>
        <time>2022-07-02T12:53:38.000Z</time>
      </trkpt>
      <trkpt lat="45.24072" lon="5.96023">
        <ele>987.35</ele>
        <time>2022-07-02T12:53:43.000Z</time>
      </trkpt>
      <trkpt lat="45.24082" lon="5.96001">
        <ele>987.91</ele>
        <time>2022-07-02T12:53:48.000Z</time>
      </trkpt>
      <trkpt lat="45.24091" lon="5.95984">
        <ele>991.7</ele>
        <time>2022-07-02T12:53:53.000Z</time>
      </trkpt>
      <trkpt lat="45.24102" lon="5.95964">
        <ele>992.03</ele>
        <time>2022-07-02T12:53:58.000Z</time>
      </trkpt>
      <trkpt lat="45.24111" lon="5.95937">
        <ele>994.34</ele>
        <time>2022-07-02T12:54:03.000Z</time>
      </trkpt>
      <trkpt lat="45.24115" lon="5.95909">
        <ele>995.59</ele>
        <time>2022-07-02T12:54:08.000Z</time>
      </trkpt>
      <trkpt lat="45.24121" lon="5.95884">
        <ele>999.55</ele>
        <time>2022-07-02T12:54:13.000Z</time>
      </trkpt>
      <trkpt lat="45.24131" lon="5.95854">
        <ele>1003.63</ele>
        <time>2022-07-02T12:54:18.000Z</time>
      </trkpt>
      <trkpt lat="45.24135" lon="5.95817">
        <ele>1004.54</ele>
        <time>2022-07-02T12:54:23.000Z</time>
      </trkpt>
      <trkpt lat="45.24136" lon="5.95773">
        <ele>1002.56</ele>
        <time>2022-07-02T12:54:28.000Z</time>
      </trkpt>
      <trkpt lat="45.24148" lon="5.95734">
        <ele>1000.08</ele>
        <time>2022-07-02T12:54:33.000Z</time>
      </trkpt>
      <trkpt lat="45.24152" lon="5.95695">
        <ele>1001.96</ele>
        <time>2022-07-02T12:54:38.000Z</time>
      </trkpt>
      <trkpt lat="45.24156" lon="5.95653">
        <ele>999.2</ele>
        <time>2022-07-02T12:54:43.000Z</time>
      </trkpt>
      <trkpt lat="45.24154" lon="5.95609">
        <ele>1001.03</ele>
        <time>2022-07-02T12:54:48.000Z</time>
      </trkpt>
      <trkpt lat="45.24138" lon="5.95564">
        <ele>1001.35</ele>
        <time>2022-07-02T12:54:53.000Z</time>
      </trkpt>
      <trkpt lat="45.2412" lon="5.95539">
        <ele>1002.85</ele>
        <time>2022-07-02T12:54:58.000Z</time>
      </trkpt>
      <trkpt lat="45.24105" lon="5.95516">
        <ele>1008.4</ele>
        <time>2022-07-02T12:55:03.000Z</time>
      </trkpt>
      <trkpt lat="45.24088" lon="5.9549">
        <ele>1009.47</ele>
        <time>2022-07-02T12:55:08.000Z</time>
      </trkpt>
      <trkpt lat="45.24074" lon="5.95461">
        <ele>1008.25</ele>
        <time>2022-07-02T12:55:13.000Z</time>
      </trkpt>
      <trkpt lat="45.24064" lon="5.9543">
        <ele>1012.18</ele>
        <time>2022-07-02T12:55:18.000Z</time>
      </trkpt>
      <trkpt lat="45.24057" lon="5.95399">
        <ele>1011.71</ele>
        <time>2022-07-02T12:55:23.000Z</time>
      </trkpt>
      <trkpt lat="45.24051" lon="5.95365">
        <ele>1012.99</ele>
        <time>2022-07-02T12:55:28.000Z</time>
      </trkpt>
      <trkpt lat="45.24044" lon="5.9533">
        <ele>1010.15</ele>
        <time>2022-07-02T12:55:33.000Z</time>
      </trkpt>
      <trkpt lat="45.24032" lon="5.95294">
        <ele>1011.41</ele>
        <time>2022-07-02T12:55:38.000Z</time>
      </trkpt>
      <trkpt lat="45.24019" lon="5.95262">
        <ele>1012.67</ele>
        <time>2022-07-02T12:55:43.000Z</time>
      </trkpt>
      <trkpt lat="45.24003" lon="5.95234">
        <ele>1017.18</ele>
        <time>2022-07-02T12:55:48.000Z</time>
      </trkpt>
      <trkpt lat="45.23986" lon="5.95211">
        <ele>1020.45</ele>
        <time>2022-07-02T12:55:53.000Z</time>
      </trkpt>
      <trkpt lat="45.23977" lon="5.95191">
        <ele>1020.22</ele>
        <time>2022-07-02T12:55:58.000Z</time>
      </trkpt>
      <trkpt lat="45.23966" lon="5.95173">
        <ele>1020.76</ele>
        <time>2022-07-02T12:56:03.000Z</time>
      </trkpt>
      <trkpt lat="45.23956" lon="5.95159">
        <ele>1022.58</ele>
        <time>2022-07-02T12:56:08.000Z</time>
      </trkpt>
      <trkpt lat="45.23946" lon="5.95149">
        <ele>1025.79</ele>
        <time>2022-07-02T12:56:13.000Z</time>
      </trkpt>
      <trkpt lat="45.23943" lon="5.95133">
        <ele>1023.02</ele>
        <time>2022-07-02T13:04:33.000Z</time>
      </trkpt>
      <trkpt lat="45.23931" lon="5.95107">
        <ele>1018.89</ele>
        <time>2022-07-02T13:04:38.000Z</time>
      </trkpt>
      <trkpt lat="45.23915" lon="5.95072">
        <ele>1019.02</ele>
        <time>2022-07-02T13:04:43.000Z</time>
      </trkpt>
      <trkpt lat="45.23896" lon="5.95041">
        <ele>1021.46</ele>
        <time>2022-07-02T13:04:48.000Z</time>
      </trkpt>
      <trkpt lat="45.23881" lon="5.94988">
        <ele>1021.97</ele>
        <time>2022-07-02T13:04:53.000Z</time>
      </trkpt>
      <trkpt lat="45.23864" lon="5.94932">
        <ele>1019.73</ele>
        <time>2022-07-02T13:04:58.000Z</time>
      </trkpt>
      <trkpt lat="45.23856" lon="5.94868">
        <ele>1017.61</ele>
        <time>2022-07-02T13:05:03.000Z</time>
      </trkpt>
      <trkpt lat="45.23851" lon="5.94792">
        <ele>1015.35</ele>
        <time>2022-07-02T13:05:08.000Z</time>
      </trkpt>
      <trkpt lat="45.2383" lon="5.94716">
        <ele>1017.9</ele>
        <time>2022-07-02T13:05:13.000Z</time>
      </trkpt>
      <trkpt lat="45.23808" lon="5.94633">
        <ele>1014.24</ele>
        <time>2022-07-02T13:05:18.000Z</time>
      </trkpt>
      <trkpt lat="45.23779" lon="5.9456">
        <ele>1014.34</ele>
        <time>2022-07-02T13:05:23.000Z</time>
      </trkpt>
      <trkpt lat="45.23747" lon="5.94484">
        <ele>1009.87</ele>
        <time>2022-07-02T13:05:28.000Z</time>
      </trkpt>
      <trkpt lat="45.23738" lon="5.94393">
        <ele>1007.1</ele>
        <time>2022-07-02T13:05:33.000Z</time>
      </trkpt>
      <trkpt lat="45.23716" lon="5.94303">
        <ele>1002.01</ele>
        <time>2022-07-02T13:05:38.000Z</time>
      </trkpt>
      <trkpt lat="45.237" lon="5.94242">
        <ele>1004.27</ele>
        <time>2022-07-02T13:05:43.000Z</time>
      </trkpt>
      <trkpt lat="45.23675" lon="5.94282">
        <ele>1002.01</ele>
        <time>2022-07-02T13:05:48.000Z</time>
      </trkpt>
      <trkpt lat="45.23688" lon="5.94355">
        <ele>999.78</ele>
        <time>2022-07-02T13:05:53.000Z</time>
      </trkpt>
      <trkpt lat="45.23673" lon="5.94424">
        <ele>996.05</ele>
        <time>2022-07-02T13:05:58.000Z</time>
      </trkpt>
      <trkpt lat="45.23646" lon="5.94485">
        <ele>993.14</ele>
        <time>2022-07-02T13:06:03.000Z</time>
      </trkpt>
      <trkpt lat="45.23586" lon="5.94511">
        <ele>989.65</ele>
        <time>2022-07-02T13:06:08.000Z</time>
      </trkpt>
      <trkpt lat="45.23532" lon="5.94502">
        <ele>977.44</ele>
        <time>2022-07-02T13:06:13.000Z</time>
      </trkpt>
      <trkpt lat="45.23534" lon="5.94445">
        <ele>964.45</ele>
        <time>2022-07-02T13:06:18.000Z</time>
      </trkpt>
      <trkpt lat="45.23571" lon="5.9443">
        <ele>951.51</ele>
        <time>2022-07-02T13:06:23.000Z</time>
      </trkpt>
      <trkpt lat="45.23604" lon="5.94386">
        <ele>950.06</ele>
        <time>2022-07-02T13:06:28.000Z</time>
      </trkpt>
      <trkpt lat="45.23596" lon="5.94313">
        <ele>945.84</ele>
        <time>2022-07-02T13:06:33.000Z</time>
      </trkpt>
      <trkpt lat="45.23583" lon="5.94241">
        <ele>945.52</ele>
        <time>2022-07-02T13:06:38.000Z</time>
      </trkpt>
      <trkpt lat="45.23569" lon="5.94166">
        <ele>944.89</ele>
        <time>2022-07-02T13:06:43.000Z</time>
      </trkpt>
      <trkpt lat="45.2359" lon="5.94091">
        <ele>941</ele>
        <time>2022-07-02T13:06:48.000Z</time>
      </trkpt>
      <trkpt lat="45.236" lon="5.9401">
        <ele>936.86</ele>
        <time>2022-07-02T13:06:53.000Z</time>
      </trkpt>
      <trkpt lat="45.23618" lon="5.93932">
        <ele>932.76</ele>
        <time>2022-07-02T13:06:58.000Z</time>
      </trkpt>
      <trkpt lat="45.23619" lon="5.93893">
        <ele>931.24</ele>
        <time>2022-07-02T13:07:03.000Z</time>
      </trkpt>
      <trkpt lat="45.23593" lon="5.93969">
        <ele>930.78</ele>
        <time>2022-07-02T13:07:08.000Z</time>
      </trkpt>
      <trkpt lat="45.23573" lon="5.94034">
        <ele>928.99</ele>
        <time>2022-07-02T13:07:13.000Z</time>
      </trkpt>
      <trkpt lat="45.23532" lon="5.94084">
        <ele>924.36</ele>
        <time>2022-07-02T13:07:18.000Z</time>
      </trkpt>
      <trkpt lat="45.23498" lon="5.94123">
        <ele>920.19</ele>
        <time>2022-07-02T13:07:23.000Z</time>
      </trkpt>
      <trkpt lat="45.23481" lon="5.94088">
        <ele>916.26</ele>
        <time>2022-07-02T13:07:28.000Z</time>
      </trkpt>
      <trkpt lat="45.23522" lon="5.94026">
        <ele>907.62</ele>
        <time>2022-07-02T13:07:33.000Z</time>
      </trkpt>
      <trkpt lat="45.23525" lon="5.93944">
        <ele>906.2</ele>
        <time>2022-07-02T13:07:38.000Z</time>
      </trkpt>
      <trkpt lat="45.23504" lon="5.93863">
        <ele>905.27</ele>
        <time>2022-07-02T13:07:43.000Z</time>
      </trkpt>
      <trkpt lat="45.23502" lon="5.93784">
        <ele>897.22</ele>
        <time>2022-07-02T13:07:48.000Z</time>
      </trkpt>
      <trkpt lat="45.23507" lon="5.93692">
        <ele>890.41</ele>
        <time>2022-07-02T13:07:53.000Z</time>
      </trkpt>
      <trkpt lat="45.23495" lon="5.93608">
        <ele>884.75</ele>
        <time>2022-07-02T13:07:58.000Z</time>
      </trkpt>
      <trkpt lat="45.23513" lon="5.93525">
        <ele>877.42</ele>
        <time>2022-07-02T13:08:03.000Z</time>
      </trkpt>
      <trkpt lat="45.23536" lon="5.93451">
        <ele>872.67</ele>
        <time>2022-07-02T13:08:08.000Z</time>
      </trkpt>
      <trkpt lat="45.23557" lon="5.93374">
        <ele>863.63</ele>
        <time>2022-07-02T13:08:13.000Z</time>
      </trkpt>
      <trkpt lat="45.23571" lon="5.93302">
        <ele>857.46</ele>
        <time>2022-07-02T13:08:18.000Z</time>
      </trkpt>
      <trkpt lat="45.23605" lon="5.93241">
        <ele>850.47</ele>
        <time>2022-07-02T13:08:23.000Z</time>
      </trkpt>
      <trkpt lat="45.23646" lon="5.93183">
        <ele>842.93</ele>
        <time>2022-07-02T13:08:28.000Z</time>
      </trkpt>
      <trkpt lat="45.23686" lon="5.93127">
        <ele>836.68</ele>
        <time>2022-07-02T13:08:33.000Z</time>
      </trkpt>
      <trkpt lat="45.23732" lon="5.93067">
        <ele>828.42</ele>
        <time>2022-07-02T13:08:38.000Z</time>
      </trkpt>
      <trkpt lat="45.23762" lon="5.93">
        <ele>825.88</ele>
        <time>2022-07-02T13:08:43.000Z</time>
      </trkpt>
      <trkpt lat="45.23787" lon="5.92923">
        <ele>824</ele>
        <time>2022-07-02T13:08:48.000Z</time>
      </trkpt>
      <trkpt lat="45.23805" lon="5.92878">
        <ele>823.11</ele>
        <time>2022-07-02T13:08:53.000Z</time>
      </trkpt>
      <trkpt lat="45.23771" lon="5.92905">
        <ele>821.66</ele>
        <time>2022-07-02T13:08:58.000Z</time>
      </trkpt>
      <trkpt lat="45.23737" lon="5.9296">
        <ele>819.69</ele>
        <time>2022-07-02T13:09:03.000Z</time>
      </trkpt>
      <trkpt lat="45.23706" lon="5.92997">
        <ele>814.1</ele>
        <time>2022-07-02T13:09:08.000Z</time>
      </trkpt>
      <trkpt lat="45.23691" lon="5.93014">
        <ele>811.46</ele>
        <time>2022-07-02T13:09:13.000Z</time>
      </trkpt>
      <trkpt lat="45.23676" lon="5.93016">
        <ele>807.46</ele>
        <time>2022-07-02T13:09:27.000Z</time>
      </trkpt>
      <trkpt lat="45.23643" lon="5.93032">
        <ele>802.81</ele>
        <time>2022-07-02T13:09:32.000Z</time>
      </trkpt>
      <trkpt lat="45.23602" lon="5.93052">
        <ele>799.87</ele>
        <time>2022-07-02T13:09:37.000Z</time>
      </trkpt>
      <trkpt lat="45.23565" lon="5.93056">
        <ele>793.71</ele>
        <time>2022-07-02T13:09:42.000Z</time>
      </trkpt>
      <trkpt lat="45.23528" lon="5.93064">
        <ele>794.11</ele>
        <time>2022-07-02T13:09:47.000Z</time>
      </trkpt>
      <trkpt lat="45.23518" lon="5.9307">
        <ele>791.24</ele>
        <time>2022-07-02T13:09:52.000Z</time>
      </trkpt>
      <trkpt lat="45.23509" lon="5.93081">
        <ele>789.99</ele>
        <time>2022-07-02T13:10:10.000Z</time>
      </trkpt>
      <trkpt lat="45.23489" lon="5.93104">
        <ele>789.47</ele>
        <time>2022-07-02T13:10:15.000Z</time>
      </trkpt>
      <trkpt lat="45.23462" lon="5.93138">
        <ele>784.03</ele>
        <time>2022-07-02T13:10:20.000Z</time>
      </trkpt>
      <trkpt lat="45.23424" lon="5.93182">
        <ele>778.25</ele>
        <time>2022-07-02T13:10:25.000Z</time>
      </trkpt>
      <trkpt lat="45.23379" lon="5.93228">
        <ele>772.01</ele>
        <time>2022-07-02T13:10:30.000Z</time>
      </trkpt>
      <trkpt lat="45.23324" lon="5.93277">
        <ele>765.46</ele>
        <time>2022-07-02T13:10:35.000Z</time>
      </trkpt>
      <trkpt lat="45.23262" lon="5.93329">
        <ele>765.57</ele>
        <time>2022-07-02T13:10:40.000Z</time>
      </trkpt>
      <trkpt lat="45.23209" lon="5.93391">
        <ele>761.64</ele>
        <time>2022-07-02T13:10:45.000Z</time>
      </trkpt>
      <trkpt lat="45.23161" lon="5.9344">
        <ele>758.61</ele>
        <time>2022-07-02T13:10:50.000Z</time>
      </trkpt>
      <trkpt lat="45.23109" lon="5.93419">
        <ele>756.38</ele>
        <time>2022-07-02T13:10:55.000Z</time>
      </trkpt>
      <trkpt lat="45.23053" lon="5.93391">
        <ele>755.8</ele>
        <time>2022-07-02T13:11:00.000Z</time>
      </trkpt>
      <trkpt lat="45.23024" lon="5.93357">
        <ele>752.66</ele>
        <time>2022-07-02T13:11:05.000Z</time>
      </trkpt>
      <trkpt lat="45.23002" lon="5.93349">
        <ele>751.78</ele>
        <time>2022-07-02T13:11:10.000Z</time>
      </trkpt>
      <trkpt lat="45.22986" lon="5.93345">
        <ele>752.05</ele>
        <time>2022-07-02T13:11:15.000Z</time>
      </trkpt>
      <trkpt lat="45.22969" lon="5.93346">
        <ele>754.71</ele>
        <time>2022-07-02T13:11:20.000Z</time>
      </trkpt>
      <trkpt lat="45.2295" lon="5.93345">
        <ele>758.4</ele>
        <time>2022-07-02T13:11:25.000Z</time>
      </trkpt>
      <trkpt lat="45.22932" lon="5.93348">
        <ele>758.26</ele>
        <time>2022-07-02T13:11:30.000Z</time>
      </trkpt>
      <trkpt lat="45.22914" lon="5.93355">
        <ele>758.76</ele>
        <time>2022-07-02T13:11:35.000Z</time>
      </trkpt>
      <trkpt lat="45.22894" lon="5.93353">
        <ele>759.36</ele>
        <time>2022-07-02T13:11:40.000Z</time>
      </trkpt>
      <trkpt lat="45.22878" lon="5.93338">
        <ele>759.64</ele>
        <time>2022-07-02T13:11:45.000Z</time>
      </trkpt>
      <trkpt lat="45.22862" lon="5.93327">
        <ele>761.03</ele>
        <time>2022-07-02T13:11:50.000Z</time>
      </trkpt>
      <trkpt lat="45.22844" lon="5.93324">
        <ele>762.37</ele>
        <time>2022-07-02T13:11:55.000Z</time>
      </trkpt>
      <trkpt lat="45.22826" lon="5.93323">
        <ele>763.56</ele>
        <time>2022-07-02T13:12:00.000Z</time>
      </trkpt>
      <trkpt lat="45.22808" lon="5.93326">
        <ele>768.51</ele>
        <time>2022-07-02T13:12:05.000Z</time>
      </trkpt>
      <trkpt lat="45.22788" lon="5.93331">
        <ele>769.89</ele>
        <time>2022-07-02T13:12:10.000Z</time>
      </trkpt>
      <trkpt lat="45.22768" lon="5.93342">
        <ele>771.13</ele>
        <time>2022-07-02T13:12:15.000Z</time>
      </trkpt>
      <trkpt lat="45.22751" lon="5.93362">
        <ele>769.06</ele>
        <time>2022-07-02T13:12:20.000Z</time>
      </trkpt>
      <trkpt lat="45.22732" lon="5.93383">
        <ele>766.03</ele>
        <time>2022-07-02T13:12:25.000Z</time>
      </trkpt>
      <trkpt lat="45.22714" lon="5.9341">
        <ele>766.48</ele>
        <time>2022-07-02T13:12:30.000Z</time>
      </trkpt>
      <trkpt lat="45.22694" lon="5.9343">
        <ele>768.32</ele>
        <time>2022-07-02T13:12:35.000Z</time>
      </trkpt>
      <trkpt lat="45.22678" lon="5.93442">
        <ele>768</ele>
        <time>2022-07-02T13:12:40.000Z</time>
      </trkpt>
      <trkpt lat="45.22658" lon="5.93452">
        <ele>770.56</ele>
        <time>2022-07-02T13:12:45.000Z</time>
      </trkpt>
      <trkpt lat="45.22649" lon="5.93457">
        <ele>771.86</ele>
        <time>2022-07-02T13:12:50.000Z</time>
      </trkpt>
      <trkpt lat="45.22639" lon="5.93459">
        <ele>772.39</ele>
        <time>2022-07-02T13:12:55.000Z</time>
      </trkpt>
      <trkpt lat="45.22631" lon="5.93465">
        <ele>772.11</ele>
        <time>2022-07-02T13:13:00.000Z</time>
      </trkpt>
      <trkpt lat="45.22621" lon="5.93466">
        <ele>770.68</ele>
        <time>2022-07-02T13:13:05.000Z</time>
      </trkpt>
      <trkpt lat="45.22603" lon="5.93464">
        <ele>773.21</ele>
        <time>2022-07-02T13:13:10.000Z</time>
      </trkpt>
      <trkpt lat="45.22582" lon="5.93464">
        <ele>775.62</ele>
        <time>2022-07-02T13:13:15.000Z</time>
      </trkpt>
      <trkpt lat="45.2256" lon="5.93462">
        <ele>773.38</ele>
        <time>2022-07-02T13:13:20.000Z</time>
      </trkpt>
      <trkpt lat="45.22531" lon="5.93455">
        <ele>770.81</ele>
        <time>2022-07-02T13:13:25.000Z</time>
      </trkpt>
      <trkpt lat="45.22498" lon="5.93446">
        <ele>771.08</ele>
        <time>2022-07-02T13:13:30.000Z</time>
      </trkpt>
      <trkpt lat="45.22462" lon="5.93419">
        <ele>769.32</ele>
        <time>2022-07-02T13:13:35.000Z</time>
      </trkpt>
      <trkpt lat="45.22425" lon="5.93378">
        <ele>768.56</ele>
        <time>2022-07-02T13:13:40.000Z</time>
      </trkpt>
      <trkpt lat="45.22381" lon="5.93347">
        <ele>769.18</ele>
        <time>2022-07-02T13:13:45.000Z</time>
      </trkpt>
      <trkpt lat="45.22327" lon="5.93323">
        <ele>767.85</ele>
        <time>2022-07-02T13:13:50.000Z</time>
      </trkpt>
      <trkpt lat="45.22274" lon="5.93296">
        <ele>768.3</ele>
        <time>2022-07-02T13:13:55.000Z</time>
      </trkpt>
      <trkpt lat="45.22225" lon="5.93314">
        <ele>763.94</ele>
        <time>2022-07-02T13:14:00.000Z</time>
      </trkpt>
      <trkpt lat="45.22185" lon="5.93351">
        <ele>760.62</ele>
        <time>2022-07-02T13:14:05.000Z</time>
      </trkpt>
      <trkpt lat="45.22142" lon="5.93336">
        <ele>757.16</ele>
        <time>2022-07-02T13:14:10.000Z</time>
      </trkpt>
      <trkpt lat="45.22103" lon="5.93313">
        <ele>756.48</ele>
        <time>2022-07-02T13:14:15.000Z</time>
      </trkpt>
      <trkpt lat="45.22075" lon="5.93286">
        <ele>757.72</ele>
        <time>2022-07-02T13:14:20.000Z</time>
      </trkpt>
      <trkpt lat="45.22048" lon="5.93262">
        <ele>758.02</ele>
        <time>2022-07-02T13:14:25.000Z</time>
      </trkpt>
      <trkpt lat="45.22026" lon="5.93244">
        <ele>759.62</ele>
        <time>2022-07-02T13:14:30.000Z</time>
      </trkpt>
      <trkpt lat="45.22004" lon="5.93227">
        <ele>762.21</ele>
        <time>2022-07-02T13:14:35.000Z</time>
      </trkpt>
      <trkpt lat="45.21981" lon="5.93221">
        <ele>762.52</ele>
        <time>2022-07-02T13:14:40.000Z</time>
      </trkpt>
      <trkpt lat="45.21955" lon="5.93231">
        <ele>763.95</ele>
        <time>2022-07-02T13:14:45.000Z</time>
      </trkpt>
      <trkpt lat="45.21935" lon="5.93242">
        <ele>762.18</ele>
        <time>2022-07-02T13:14:50.000Z</time>
      </trkpt>
      <trkpt lat="45.2192" lon="5.93264">
        <ele>762.78</ele>
        <time>2022-07-02T13:14:55.000Z</time>
      </trkpt>
      <trkpt lat="45.21906" lon="5.93289">
        <ele>762.79</ele>
        <time>2022-07-02T13:15:00.000Z</time>
      </trkpt>
      <trkpt lat="45.21884" lon="5.93306">
        <ele>761.49</ele>
        <time>2022-07-02T13:15:05.000Z</time>
      </trkpt>
      <trkpt lat="45.2186" lon="5.93318">
        <ele>760.11</ele>
        <time>2022-07-02T13:15:10.000Z</time>
      </trkpt>
      <trkpt lat="45.21835" lon="5.93337">
        <ele>761.54</ele>
        <time>2022-07-02T13:15:15.000Z</time>
      </trkpt>
      <trkpt lat="45.21809" lon="5.93353">
        <ele>757.74</ele>
        <time>2022-07-02T13:15:20.000Z</time>
      </trkpt>
      <trkpt lat="45.21782" lon="5.93365">
        <ele>758.08</ele>
        <time>2022-07-02T13:15:25.000Z</time>
      </trkpt>
      <trkpt lat="45.21759" lon="5.93382">
        <ele>761.48</ele>
        <time>2022-07-02T13:15:30.000Z</time>
      </trkpt>
      <trkpt lat="45.21736" lon="5.93386">
        <ele>758.66</ele>
        <time>2022-07-02T13:15:35.000Z</time>
      </trkpt>
      <trkpt lat="45.21714" lon="5.93385">
        <ele>759.04</ele>
        <time>2022-07-02T13:15:40.000Z</time>
      </trkpt>
      <trkpt lat="45.21688" lon="5.93374">
        <ele>760.44</ele>
        <time>2022-07-02T13:15:45.000Z</time>
      </trkpt>
      <trkpt lat="45.21663" lon="5.93366">
        <ele>759.44</ele>
        <time>2022-07-02T13:15:50.000Z</time>
      </trkpt>
      <trkpt lat="45.2164" lon="5.93372">
        <ele>757.94</ele>
        <time>2022-07-02T13:15:55.000Z</time>
      </trkpt>
      <trkpt lat="45.21617" lon="5.93399">
        <ele>758.32</ele>
        <time>2022-07-02T13:16:00.000Z</time>
      </trkpt>
      <trkpt lat="45.21595" lon="5.93427">
        <ele>756.07</ele>
        <time>2022-07-02T13:16:05.000Z</time>
      </trkpt>
      <trkpt lat="45.21569" lon="5.93458">
        <ele>755.88</ele>
        <time>2022-07-02T13:16:10.000Z</time>
      </trkpt>
      <trkpt lat="45.21539" lon="5.93488">
        <ele>755.15</ele>
        <time>2022-07-02T13:16:15.000Z</time>
      </trkpt>
      <trkpt lat="45.21512" lon="5.93509">
        <ele>752.81</ele>
        <time>2022-07-02T13:16:20.000Z</time>
      </trkpt>
      <trkpt lat="45.21472" lon="5.93522">
        <ele>755.71</ele>
        <time>2022-07-02T13:16:25.000Z</time>
      </trkpt>
      <trkpt lat="45.21436" lon="5.93521">
        <ele>755.96</ele>
        <time>2022-07-02T13:16:30.000Z</time>
      </trkpt>
      <trkpt lat="45.21413" lon="5.93498">
        <ele>758.57</ele>
        <time>2022-07-02T13:16:35.000Z</time>
      </trkpt>
      <trkpt lat="45.21397" lon="5.93467">
        <ele>760.99</ele>
        <time>2022-07-02T13:16:40.000Z</time>
      </trkpt>
      <trkpt lat="45.21387" lon="5.93438">
        <ele>762.86</ele>
        <time>2022-07-02T13:16:45.000Z</time>
      </trkpt>
      <trkpt lat="45.21377" lon="5.93409">
        <ele>765.55</ele>
        <time>2022-07-02T13:16:50.000Z</time>
      </trkpt>
      <trkpt lat="45.21374" lon="5.93382">
        <ele>766.67</ele>
        <time>2022-07-02T13:16:55.000Z</time>
      </trkpt>
      <trkpt lat="45.21368" lon="5.9335">
        <ele>767.86</ele>
        <time>2022-07-02T13:17:00.000Z</time>
      </trkpt>
      <trkpt lat="45.21369" lon="5.9332">
        <ele>767.24</ele>
        <time>2022-07-02T13:17:05.000Z</time>
      </trkpt>
      <trkpt lat="45.21383" lon="5.93305">
        <ele>766.09</ele>
        <time>2022-07-02T13:17:10.000Z</time>
      </trkpt>
      <trkpt lat="45.21394" lon="5.93291">
        <ele>765.98</ele>
        <time>2022-07-02T13:17:15.000Z</time>
      </trkpt>
      <trkpt lat="45.21405" lon="5.93279">
        <ele>766.9</ele>
        <time>2022-07-02T13:17:20.000Z</time>
      </trkpt>
      <trkpt lat="45.21422" lon="5.93268">
        <ele>766.11</ele>
        <time>2022-07-02T13:17:25.000Z</time>
      </trkpt>
      <trkpt lat="45.21445" lon="5.93263">
        <ele>766.6</ele>
        <time>2022-07-02T13:17:30.000Z</time>
      </trkpt>
      <trkpt lat="45.21466" lon="5.93257">
        <ele>766.98</ele>
        <time>2022-07-02T13:17:35.000Z</time>
      </trkpt>
      <trkpt lat="45.21486" lon="5.93249">
        <ele>766.42</ele>
        <time>2022-07-02T13:17:40.000Z</time>
      </trkpt>
      <trkpt lat="45.2151" lon="5.9324">
        <ele>766.23</ele>
        <time>2022-07-02T13:17:45.000Z</time>
      </trkpt>
      <trkpt lat="45.2154" lon="5.93221">
        <ele>767.07</ele>
        <time>2022-07-02T13:17:50.000Z</time>
      </trkpt>
      <trkpt lat="45.21563" lon="5.93208">
        <ele>765.49</ele>
        <time>2022-07-02T13:17:55.000Z</time>
      </trkpt>
      <trkpt lat="45.21588" lon="5.93193">
        <ele>769.99</ele>
        <time>2022-07-02T13:18:00.000Z</time>
      </trkpt>
      <trkpt lat="45.21609" lon="5.93171">
        <ele>765.04</ele>
        <time>2022-07-02T13:18:05.000Z</time>
      </trkpt>
      <trkpt lat="45.21631" lon="5.9314">
        <ele>759.24</ele>
        <time>2022-07-02T13:18:10.000Z</time>
      </trkpt>
      <trkpt lat="45.21653" lon="5.93116">
        <ele>761.3</ele>
        <time>2022-07-02T13:18:15.000Z</time>
      </trkpt>
      <trkpt lat="45.21675" lon="5.93092">
        <ele>760.43</ele>
        <time>2022-07-02T13:18:20.000Z</time>
      </trkpt>
      <trkpt lat="45.21707" lon="5.93074">
        <ele>763.89</ele>
        <time>2022-07-02T13:18:25.000Z</time>
      </trkpt>
      <trkpt lat="45.21748" lon="5.93053">
        <ele>760.66</ele>
        <time>2022-07-02T13:18:30.000Z</time>
      </trkpt>
      <trkpt lat="45.21793" lon="5.93023">
        <ele>761.96</ele>
        <time>2022-07-02T13:18:35.000Z</time>
      </trkpt>
      <trkpt lat="45.21832" lon="5.92992">
        <ele>758.35</ele>
        <time>2022-07-02T13:18:40.000Z</time>
      </trkpt>
      <trkpt lat="45.21863" lon="5.9295">
        <ele>757.04</ele>
        <time>2022-07-02T13:18:45.000Z</time>
      </trkpt>
      <trkpt lat="45.2189" lon="5.92915">
        <ele>754.5</ele>
        <time>2022-07-02T13:18:50.000Z</time>
      </trkpt>
      <trkpt lat="45.2192" lon="5.92889">
        <ele>754.34</ele>
        <time>2022-07-02T13:18:55.000Z</time>
      </trkpt>
      <trkpt lat="45.21948" lon="5.92872">
        <ele>757.42</ele>
        <time>2022-07-02T13:19:00.000Z</time>
      </trkpt>
      <trkpt lat="45.21971" lon="5.92859">
        <ele>757.05</ele>
        <time>2022-07-02T13:19:05.000Z</time>
      </trkpt>
      <trkpt lat="45.21993" lon="5.92843">
        <ele>757.77</ele>
        <time>2022-07-02T13:19:10.000Z</time>
      </trkpt>
      <trkpt lat="45.22016" lon="5.92827">
        <ele>755.75</ele>
        <time>2022-07-02T13:19:15.000Z</time>
      </trkpt>
      <trkpt lat="45.22042" lon="5.92812">
        <ele>754.13</ele>
        <time>2022-07-02T13:19:20.000Z</time>
      </trkpt>
      <trkpt lat="45.22071" lon="5.92806">
        <ele>755.91</ele>
        <time>2022-07-02T13:19:25.000Z</time>
      </trkpt>
      <trkpt lat="45.22096" lon="5.92802">
        <ele>752.86</ele>
        <time>2022-07-02T13:19:30.000Z</time>
      </trkpt>
      <trkpt lat="45.22123" lon="5.92799">
        <ele>752.52</ele>
        <time>2022-07-02T13:19:35.000Z</time>
      </trkpt>
      <trkpt lat="45.22151" lon="5.92797">
        <ele>755.2</ele>
        <time>2022-07-02T13:19:40.000Z</time>
      </trkpt>
      <trkpt lat="45.2218" lon="5.92791">
        <ele>755.08</ele>
        <time>2022-07-02T13:19:45.000Z</time>
      </trkpt>
      <trkpt lat="45.22208" lon="5.92782">
        <ele>753.85</ele>
        <time>2022-07-02T13:19:50.000Z</time>
      </trkpt>
      <trkpt lat="45.22234" lon="5.92773">
        <ele>752.01</ele>
        <time>2022-07-02T13:19:55.000Z</time>
      </trkpt>
      <trkpt lat="45.22263" lon="5.92759">
        <ele>745.39</ele>
        <time>2022-07-02T13:20:00.000Z</time>
      </trkpt>
      <trkpt lat="45.22294" lon="5.9276">
        <ele>746.48</ele>
        <time>2022-07-02T13:20:05.000Z</time>
      </trkpt>
      <trkpt lat="45.22326" lon="5.92772">
        <ele>746.8</ele>
        <time>2022-07-02T13:20:10.000Z</time>
      </trkpt>
      <trkpt lat="45.22361" lon="5.92787">
        <ele>749.13</ele>
        <time>2022-07-02T13:20:15.000Z</time>
      </trkpt>
      <trkpt lat="45.22397" lon="5.92789">
        <ele>748.9</ele>
        <time>2022-07-02T13:20:20.000Z</time>
      </trkpt>
      <trkpt lat="45.2243" lon="5.92785">
        <ele>749.29</ele>
        <time>2022-07-02T13:20:25.000Z</time>
      </trkpt>
      <trkpt lat="45.22464" lon="5.9278">
        <ele>749.3</ele>
        <time>2022-07-02T13:20:30.000Z</time>
      </trkpt>
      <trkpt lat="45.22495" lon="5.92773">
        <ele>749.96</ele>
        <time>2022-07-02T13:20:35.000Z</time>
      </trkpt>
      <trkpt lat="45.22525" lon="5.92755">
        <ele>747.91</ele>
        <time>2022-07-02T13:20:40.000Z</time>
      </trkpt>
      <trkpt lat="45.22554" lon="5.92723">
        <ele>751.21</ele>
        <time>2022-07-02T13:20:45.000Z</time>
      </trkpt>
      <trkpt lat="45.22573" lon="5.92695">
        <ele>751.39</ele>
        <time>2022-07-02T13:20:50.000Z</time>
      </trkpt>
      <trkpt lat="45.22587" lon="5.92671">
        <ele>752.17</ele>
        <time>2022-07-02T13:20:55.000Z</time>
      </trkpt>
      <trkpt lat="45.22597" lon="5.92638">
        <ele>754.38</ele>
        <time>2022-07-02T13:21:00.000Z</time>
      </trkpt>
      <trkpt lat="45.22595" lon="5.92609">
        <ele>755.79</ele>
        <time>2022-07-02T13:21:05.000Z</time>
      </trkpt>
      <trkpt lat="45.22591" lon="5.92574">
        <ele>755.47</ele>
        <time>2022-07-02T13:21:10.000Z</time>
      </trkpt>
      <trkpt lat="45.2259" lon="5.92541">
        <ele>753.36</ele>
        <time>2022-07-02T13:21:15.000Z</time>
      </trkpt>
      <trkpt lat="45.22597" lon="5.92509">
        <ele>753.35</ele>
        <time>2022-07-02T13:21:20.000Z</time>
      </trkpt>
      <trkpt lat="45.22604" lon="5.92479">
        <ele>753.9</ele>
        <time>2022-07-02T13:21:25.000Z</time>
      </trkpt>
      <trkpt lat="45.22608" lon="5.92451">
        <ele>754.72</ele>
        <time>2022-07-02T13:21:30.000Z</time>
      </trkpt>
      <trkpt lat="45.22614" lon="5.92421">
        <ele>753.95</ele>
        <time>2022-07-02T13:21:35.000Z</time>
      </trkpt>
      <trkpt lat="45.22617" lon="5.92389">
        <ele>754.47</ele>
        <time>2022-07-02T13:21:40.000Z</time>
      </trkpt>
      <trkpt lat="45.22621" lon="5.92363">
        <ele>753.24</ele>
        <time>2022-07-02T13:21:45.000Z</time>
      </trkpt>
      <trkpt lat="45.22629" lon="5.9234">
        <ele>749.86</ele>
        <time>2022-07-02T13:21:50.000Z</time>
      </trkpt>
      <trkpt lat="45.22637" lon="5.92319">
        <ele>750.24</ele>
        <time>2022-07-02T13:21:55.000Z</time>
      </trkpt>
      <trkpt lat="45.22648" lon="5.92294">
        <ele>747.97</ele>
        <time>2022-07-02T13:22:00.000Z</time>
      </trkpt>
      <trkpt lat="45.22664" lon="5.92267">
        <ele>749.89</ele>
        <time>2022-07-02T13:22:05.000Z</time>
      </trkpt>
      <trkpt lat="45.22687" lon="5.92237">
        <ele>748.93</ele>
        <time>2022-07-02T13:22:10.000Z</time>
      </trkpt>
      <trkpt lat="45.22709" lon="5.92188">
        <ele>748.86</ele>
        <time>2022-07-02T13:22:15.000Z</time>
      </trkpt>
      <trkpt lat="45.22731" lon="5.92141">
        <ele>745.17</ele>
        <time>2022-07-02T13:22:20.000Z</time>
      </trkpt>
      <trkpt lat="45.22754" lon="5.92091">
        <ele>746.11</ele>
        <time>2022-07-02T13:22:25.000Z</time>
      </trkpt>
      <trkpt lat="45.2277" lon="5.92038">
        <ele>750.34</ele>
        <time>2022-07-02T13:22:30.000Z</time>
      </trkpt>
      <trkpt lat="45.22769" lon="5.91984">
        <ele>751.99</ele>
        <time>2022-07-02T13:22:35.000Z</time>
      </trkpt>
      <trkpt lat="45.22793" lon="5.91953">
        <ele>751.57</ele>
        <time>2022-07-02T13:22:40.000Z</time>
      </trkpt>
      <trkpt lat="45.22827" lon="5.9194">
        <ele>746.99</ele>
        <time>2022-07-02T13:22:45.000Z</time>
      </trkpt>
      <trkpt lat="45.22852" lon="5.91922">
        <ele>746.99</ele>
        <time>2022-07-02T13:22:50.000Z</time>
      </trkpt>
      <trkpt lat="45.22876" lon="5.919">
        <ele>746.73</ele>
        <time>2022-07-02T13:22:55.000Z</time>
      </trkpt>
      <trkpt lat="45.2289" lon="5.91878">
        <ele>742.74</ele>
        <time>2022-07-02T13:23:00.000Z</time>
      </trkpt>
      <trkpt lat="45.22908" lon="5.91852">
        <ele>742.76</ele>
        <time>2022-07-02T13:23:05.000Z</time>
      </trkpt>
      <trkpt lat="45.22924" lon="5.91821">
        <ele>741</ele>
        <time>2022-07-02T13:23:10.000Z</time>
      </trkpt>
      <trkpt lat="45.22943" lon="5.91792">
        <ele>743.04</ele>
        <time>2022-07-02T13:23:15.000Z</time>
      </trkpt>
      <trkpt lat="45.2296" lon="5.91763">
        <ele>745.12</ele>
        <time>2022-07-02T13:23:20.000Z</time>
      </trkpt>
      <trkpt lat="45.22974" lon="5.91729">
        <ele>746.38</ele>
        <time>2022-07-02T13:23:25.000Z</time>
      </trkpt>
      <trkpt lat="45.22977" lon="5.917">
        <ele>745.9</ele>
        <time>2022-07-02T13:23:30.000Z</time>
      </trkpt>
      <trkpt lat="45.22979" lon="5.91668">
        <ele>745.1</ele>
        <time>2022-07-02T13:23:35.000Z</time>
      </trkpt>
      <trkpt lat="45.22981" lon="5.91638">
        <ele>745.71</ele>
        <time>2022-07-02T13:23:40.000Z</time>
      </trkpt>
      <trkpt lat="45.22972" lon="5.91602">
        <ele>743.54</ele>
        <time>2022-07-02T13:23:45.000Z</time>
      </trkpt>
      <trkpt lat="45.22963" lon="5.91567">
        <ele>741.92</ele>
        <time>2022-07-02T13:23:50.000Z</time>
      </trkpt>
      <trkpt lat="45.2295" lon="5.91542">
        <ele>742.72</ele>
        <time>2022-07-02T13:23:55.000Z</time>
      </trkpt>
      <trkpt lat="45.22943" lon="5.91516">
        <ele>741.85</ele>
        <time>2022-07-02T13:24:00.000Z</time>
      </trkpt>
      <trkpt lat="45.22946" lon="5.91484">
        <ele>745.39</ele>
        <time>2022-07-02T13:24:05.000Z</time>
      </trkpt>
      <trkpt lat="45.22947" lon="5.91451">
        <ele>744.53</ele>
        <time>2022-07-02T13:24:10.000Z</time>
      </trkpt>
      <trkpt lat="45.22956" lon="5.9142">
        <ele>746.74</ele>
        <time>2022-07-02T13:24:15.000Z</time>
      </trkpt>
      <trkpt lat="45.22973" lon="5.91393">
        <ele>746.72</ele>
        <time>2022-07-02T13:24:20.000Z</time>
      </trkpt>
      <trkpt lat="45.22987" lon="5.91369">
        <ele>746.83</ele>
        <time>2022-07-02T13:24:25.000Z</time>
      </trkpt>
      <trkpt lat="45.23" lon="5.91337">
        <ele>750.72</ele>
        <time>2022-07-02T13:24:30.000Z</time>
      </trkpt>
      <trkpt lat="45.23026" lon="5.91305">
        <ele>749.87</ele>
        <time>2022-07-02T13:24:35.000Z</time>
      </trkpt>
      <trkpt lat="45.23051" lon="5.91276">
        <ele>750.37</ele>
        <time>2022-07-02T13:24:40.000Z</time>
      </trkpt>
      <trkpt lat="45.23097" lon="5.91245">
        <ele>751.75</ele>
        <time>2022-07-02T13:24:45.000Z</time>
      </trkpt>
      <trkpt lat="45.23151" lon="5.91209">
        <ele>751.27</ele>
        <time>2022-07-02T13:24:50.000Z</time>
      </trkpt>
      <trkpt lat="45.232" lon="5.91155">
        <ele>743.61</ele>
        <time>2022-07-02T13:24:55.000Z</time>
      </trkpt>
      <trkpt lat="45.23225" lon="5.91076">
        <ele>734.79</ele>
        <time>2022-07-02T13:25:00.000Z</time>
      </trkpt>
      <trkpt lat="45.23275" lon="5.91026">
        <ele>734.52</ele>
        <time>2022-07-02T13:25:05.000Z</time>
      </trkpt>
      <trkpt lat="45.23319" lon="5.90958">
        <ele>732.52</ele>
        <time>2022-07-02T13:25:10.000Z</time>
      </trkpt>
      <trkpt lat="45.23356" lon="5.90879">
        <ele>729.5</ele>
        <time>2022-07-02T13:25:15.000Z</time>
      </trkpt>
      <trkpt lat="45.2339" lon="5.9079">
        <ele>725.28</ele>
        <time>2022-07-02T13:25:20.000Z</time>
      </trkpt>
      <trkpt lat="45.2343" lon="5.90713">
        <ele>722.49</ele>
        <time>2022-07-02T13:25:25.000Z</time>
      </trkpt>
      <trkpt lat="45.23457" lon="5.90647">
        <ele>720.39</ele>
        <time>2022-07-02T13:25:30.000Z</time>
      </trkpt>
      <trkpt lat="45.23466" lon="5.90557">
        <ele>717.48</ele>
        <time>2022-07-02T13:25:35.000Z</time>
      </trkpt>
      <trkpt lat="45.23484" lon="5.90488">
        <ele>715.23</ele>
        <time>2022-07-02T13:25:40.000Z</time>
      </trkpt>
      <trkpt lat="45.23492" lon="5.90442">
        <ele>714.36</ele>
        <time>2022-07-02T13:25:45.000Z</time>
      </trkpt>
      <trkpt lat="45.23501" lon="5.90395">
        <ele>710.07</ele>
        <time>2022-07-02T13:25:50.000Z</time>
      </trkpt>
      <trkpt lat="45.23502" lon="5.90351">
        <ele>708.26</ele>
        <time>2022-07-02T13:25:55.000Z</time>
      </trkpt>
      <trkpt lat="45.23493" lon="5.90305">
        <ele>705.56</ele>
        <time>2022-07-02T13:26:00.000Z</time>
      </trkpt>
      <trkpt lat="45.23473" lon="5.90267">
        <ele>701.43</ele>
        <time>2022-07-02T13:26:05.000Z</time>
      </trkpt>
      <trkpt lat="45.23451" lon="5.9025">
        <ele>700.37</ele>
        <time>2022-07-02T13:26:10.000Z</time>
      </trkpt>
      <trkpt lat="45.23441" lon="5.9025">
        <ele>705.43</ele>
        <time>2022-07-02T13:31:35.000Z</time>
      </trkpt>
      <trkpt lat="45.23426" lon="5.90255">
        <ele>705.3</ele>
        <time>2022-07-02T13:31:40.000Z</time>
      </trkpt>
      <trkpt lat="45.23399" lon="5.90266">
        <ele>705.33</ele>
        <time>2022-07-02T13:31:45.000Z</time>
      </trkpt>
      <trkpt lat="45.23368" lon="5.90281">
        <ele>703.3</ele>
        <time>2022-07-02T13:31:50.000Z</time>
      </trkpt>
      <trkpt lat="45.23329" lon="5.90301">
        <ele>700.42</ele>
        <time>2022-07-02T13:31:55.000Z</time>
      </trkpt>
      <trkpt lat="45.23285" lon="5.90326">
        <ele>696.74</ele>
        <time>2022-07-02T13:32:00.000Z</time>
      </trkpt>
      <trkpt lat="45.23243" lon="5.90327">
        <ele>693.48</ele>
        <time>2022-07-02T13:32:05.000Z</time>
      </trkpt>
      <trkpt lat="45.23202" lon="5.90325">
        <ele>692.15</ele>
        <time>2022-07-02T13:32:10.000Z</time>
      </trkpt>
      <trkpt lat="45.23164" lon="5.90328">
        <ele>689.5</ele>
        <time>2022-07-02T13:32:15.000Z</time>
      </trkpt>
      <trkpt lat="45.23124" lon="5.90318">
        <ele>685.96</ele>
        <time>2022-07-02T13:32:20.000Z</time>
      </trkpt>
      <trkpt lat="45.23085" lon="5.90322">
        <ele>685.93</ele>
        <time>2022-07-02T13:32:25.000Z</time>
      </trkpt>
      <trkpt lat="45.23046" lon="5.90329">
        <ele>683.01</ele>
        <time>2022-07-02T13:32:30.000Z</time>
      </trkpt>
      <trkpt lat="45.23003" lon="5.9034">
        <ele>680.65</ele>
        <time>2022-07-02T13:32:35.000Z</time>
      </trkpt>
      <trkpt lat="45.22968" lon="5.9036">
        <ele>682.61</ele>
        <time>2022-07-02T13:32:40.000Z</time>
      </trkpt>
      <trkpt lat="45.22929" lon="5.90328">
        <ele>682.68</ele>
        <time>2022-07-02T13:32:48.000Z</time>
      </trkpt>
      <trkpt lat="45.22924" lon="5.90312">
        <ele>683.89</ele>
        <time>2022-07-02T13:32:53.000Z</time>
      </trkpt>
      <trkpt lat="45.2291" lon="5.90304">
        <ele>683.86</ele>
        <time>2022-07-02T13:32:58.000Z</time>
      </trkpt>
      <trkpt lat="45.22886" lon="5.90281">
        <ele>686.94</ele>
        <time>2022-07-02T13:33:03.000Z</time>
      </trkpt>
      <trkpt lat="45.22866" lon="5.9026">
        <ele>689.87</ele>
        <time>2022-07-02T13:33:08.000Z</time>
      </trkpt>
      <trkpt lat="45.22843" lon="5.90243">
        <ele>692.21</ele>
        <time>2022-07-02T13:33:13.000Z</time>
      </trkpt>
      <trkpt lat="45.22819" lon="5.9024">
        <ele>693.95</ele>
        <time>2022-07-02T13:33:18.000Z</time>
      </trkpt>
      <trkpt lat="45.22799" lon="5.90241">
        <ele>696.27</ele>
        <time>2022-07-02T13:33:23.000Z</time>
      </trkpt>
      <trkpt lat="45.22776" lon="5.9024">
        <ele>696.76</ele>
        <time>2022-07-02T13:33:28.000Z</time>
      </trkpt>
      <trkpt lat="45.22752" lon="5.9024">
        <ele>698.05</ele>
        <time>2022-07-02T13:33:33.000Z</time>
      </trkpt>
      <trkpt lat="45.22727" lon="5.90242">
        <ele>693.09</ele>
        <time>2022-07-02T13:33:38.000Z</time>
      </trkpt>
      <trkpt lat="45.22705" lon="5.90244">
        <ele>691.55</ele>
        <time>2022-07-02T13:33:43.000Z</time>
      </trkpt>
      <trkpt lat="45.22677" lon="5.90253">
        <ele>689.51</ele>
        <time>2022-07-02T13:33:48.000Z</time>
      </trkpt>
      <trkpt lat="45.22649" lon="5.90266">
        <ele>691.86</ele>
        <time>2022-07-02T13:33:53.000Z</time>
      </trkpt>
      <trkpt lat="45.22627" lon="5.90283">
        <ele>692.91</ele>
        <time>2022-07-02T13:33:58.000Z</time>
      </trkpt>
      <trkpt lat="45.22617" lon="5.9031">
        <ele>694.77</ele>
        <time>2022-07-02T13:34:03.000Z</time>
      </trkpt>
      <trkpt lat="45.22609" lon="5.90336">
        <ele>695.33</ele>
        <time>2022-07-02T13:34:08.000Z</time>
      </trkpt>
      <trkpt lat="45.22598" lon="5.90362">
        <ele>692.74</ele>
        <time>2022-07-02T13:34:13.000Z</time>
      </trkpt>
      <trkpt lat="45.22594" lon="5.9039">
        <ele>692.57</ele>
        <time>2022-07-02T13:34:18.000Z</time>
      </trkpt>
      <trkpt lat="45.22587" lon="5.9042">
        <ele>691.16</ele>
        <time>2022-07-02T13:34:23.000Z</time>
      </trkpt>
      <trkpt lat="45.22581" lon="5.90447">
        <ele>687.51</ele>
        <time>2022-07-02T13:34:28.000Z</time>
      </trkpt>
      <trkpt lat="45.22576" lon="5.90483">
        <ele>684.81</ele>
        <time>2022-07-02T13:34:33.000Z</time>
      </trkpt>
      <trkpt lat="45.22563" lon="5.90514">
        <ele>684.44</ele>
        <time>2022-07-02T13:34:38.000Z</time>
      </trkpt>
      <trkpt lat="45.22546" lon="5.90518">
        <ele>688.56</ele>
        <time>2022-07-02T13:34:43.000Z</time>
      </trkpt>
      <trkpt lat="45.22539" lon="5.905">
        <ele>691.45</ele>
        <time>2022-07-02T13:34:48.000Z</time>
      </trkpt>
      <trkpt lat="45.22533" lon="5.90482">
        <ele>692.7</ele>
        <time>2022-07-02T13:34:53.000Z</time>
      </trkpt>
      <trkpt lat="45.22522" lon="5.90457">
        <ele>694.41</ele>
        <time>2022-07-02T13:34:58.000Z</time>
      </trkpt>
      <trkpt lat="45.2251" lon="5.90433">
        <ele>695.84</ele>
        <time>2022-07-02T13:35:03.000Z</time>
      </trkpt>
      <trkpt lat="45.22497" lon="5.9041">
        <ele>699.3</ele>
        <time>2022-07-02T13:35:08.000Z</time>
      </trkpt>
      <trkpt lat="45.22478" lon="5.90396">
        <ele>700.69</ele>
        <time>2022-07-02T13:35:13.000Z</time>
      </trkpt>
      <trkpt lat="45.22457" lon="5.90379">
        <ele>705.28</ele>
        <time>2022-07-02T13:35:18.000Z</time>
      </trkpt>
      <trkpt lat="45.2244" lon="5.90359">
        <ele>709.29</ele>
        <time>2022-07-02T13:35:23.000Z</time>
      </trkpt>
      <trkpt lat="45.22423" lon="5.90335">
        <ele>711.46</ele>
        <time>2022-07-02T13:35:28.000Z</time>
      </trkpt>
      <trkpt lat="45.22407" lon="5.9031">
        <ele>711.11</ele>
        <time>2022-07-02T13:35:33.000Z</time>
      </trkpt>
      <trkpt lat="45.22397" lon="5.90281">
        <ele>713.49</ele>
        <time>2022-07-02T13:35:38.000Z</time>
      </trkpt>
      <trkpt lat="45.22386" lon="5.90255">
        <ele>714.7</ele>
        <time>2022-07-02T13:35:43.000Z</time>
      </trkpt>
      <trkpt lat="45.22376" lon="5.90223">
        <ele>712.31</ele>
        <time>2022-07-02T13:35:48.000Z</time>
      </trkpt>
      <trkpt lat="45.22358" lon="5.90197">
        <ele>712.63</ele>
        <time>2022-07-02T13:35:53.000Z</time>
      </trkpt>
      <trkpt lat="45.22338" lon="5.90175">
        <ele>710.72</ele>
        <time>2022-07-02T13:35:58.000Z</time>
      </trkpt>
      <trkpt lat="45.22315" lon="5.90155">
        <ele>713.32</ele>
        <time>2022-07-02T13:36:03.000Z</time>
      </trkpt>
      <trkpt lat="45.2229" lon="5.90144">
        <ele>710.75</ele>
        <time>2022-07-02T13:36:08.000Z</time>
      </trkpt>
      <trkpt lat="45.22267" lon="5.9012">
        <ele>713.38</ele>
        <time>2022-07-02T13:36:13.000Z</time>
      </trkpt>
      <trkpt lat="45.22239" lon="5.90111">
        <ele>713.45</ele>
        <time>2022-07-02T13:36:18.000Z</time>
      </trkpt>
      <trkpt lat="45.22215" lon="5.90125">
        <ele>713.22</ele>
        <time>2022-07-02T13:36:23.000Z</time>
      </trkpt>
      <trkpt lat="45.22193" lon="5.90154">
        <ele>715.7</ele>
        <time>2022-07-02T13:36:28.000Z</time>
      </trkpt>
      <trkpt lat="45.22171" lon="5.9018">
        <ele>713.17</ele>
        <time>2022-07-02T13:36:33.000Z</time>
      </trkpt>
      <trkpt lat="45.2215" lon="5.90204">
        <ele>717.13</ele>
        <time>2022-07-02T13:36:38.000Z</time>
      </trkpt>
      <trkpt lat="45.22127" lon="5.9022">
        <ele>713.93</ele>
        <time>2022-07-02T13:36:43.000Z</time>
      </trkpt>
      <trkpt lat="45.22097" lon="5.90242">
        <ele>715.45</ele>
        <time>2022-07-02T13:36:48.000Z</time>
      </trkpt>
      <trkpt lat="45.22069" lon="5.90252">
        <ele>714.68</ele>
        <time>2022-07-02T13:36:53.000Z</time>
      </trkpt>
      <trkpt lat="45.22038" lon="5.90252">
        <ele>715.83</ele>
        <time>2022-07-02T13:36:58.000Z</time>
      </trkpt>
      <trkpt lat="45.22009" lon="5.90237">
        <ele>718</ele>
        <time>2022-07-02T13:37:03.000Z</time>
      </trkpt>
      <trkpt lat="45.21988" lon="5.90217">
        <ele>723.41</ele>
        <time>2022-07-02T13:37:08.000Z</time>
      </trkpt>
      <trkpt lat="45.21969" lon="5.90201">
        <ele>723.2</ele>
        <time>2022-07-02T13:37:13.000Z</time>
      </trkpt>
      <trkpt lat="45.2195" lon="5.9018">
        <ele>723.89</ele>
        <time>2022-07-02T13:37:18.000Z</time>
      </trkpt>
      <trkpt lat="45.21933" lon="5.90156">
        <ele>721.92</ele>
        <time>2022-07-02T13:37:23.000Z</time>
      </trkpt>
      <trkpt lat="45.21925" lon="5.90123">
        <ele>722.16</ele>
        <time>2022-07-02T13:37:28.000Z</time>
      </trkpt>
      <trkpt lat="45.21935" lon="5.90091">
        <ele>722.76</ele>
        <time>2022-07-02T13:37:33.000Z</time>
      </trkpt>
      <trkpt lat="45.21931" lon="5.90059">
        <ele>724.11</ele>
        <time>2022-07-02T13:37:38.000Z</time>
      </trkpt>
      <trkpt lat="45.21914" lon="5.90039">
        <ele>725.93</ele>
        <time>2022-07-02T13:37:43.000Z</time>
      </trkpt>
      <trkpt lat="45.21892" lon="5.90026">
        <ele>725.63</ele>
        <time>2022-07-02T13:37:48.000Z</time>
      </trkpt>
      <trkpt lat="45.21872" lon="5.9">
        <ele>725.61</ele>
        <time>2022-07-02T13:37:53.000Z</time>
      </trkpt>
      <trkpt lat="45.21846" lon="5.8999">
        <ele>729.31</ele>
        <time>2022-07-02T13:37:58.000Z</time>
      </trkpt>
      <trkpt lat="45.21822" lon="5.89977">
        <ele>729.76</ele>
        <time>2022-07-02T13:38:03.000Z</time>
      </trkpt>
      <trkpt lat="45.21797" lon="5.89966">
        <ele>729.68</ele>
        <time>2022-07-02T13:38:08.000Z</time>
      </trkpt>
      <trkpt lat="45.21775" lon="5.8995">
        <ele>729.4</ele>
        <time>2022-07-02T13:38:13.000Z</time>
      </trkpt>
      <trkpt lat="45.21744" lon="5.89933">
        <ele>729.62</ele>
        <time>2022-07-02T13:38:18.000Z</time>
      </trkpt>
      <trkpt lat="45.21726" lon="5.89914">
        <ele>730.57</ele>
        <time>2022-07-02T13:38:23.000Z</time>
      </trkpt>
      <trkpt lat="45.21702" lon="5.89898">
        <ele>727.6</ele>
        <time>2022-07-02T13:38:28.000Z</time>
      </trkpt>
      <trkpt lat="45.21673" lon="5.89873">
        <ele>729.23</ele>
        <time>2022-07-02T13:38:33.000Z</time>
      </trkpt>
      <trkpt lat="45.21644" lon="5.89846">
        <ele>735.59</ele>
        <time>2022-07-02T13:38:38.000Z</time>
      </trkpt>
      <trkpt lat="45.21618" lon="5.89826">
        <ele>740.28</ele>
        <time>2022-07-02T13:38:43.000Z</time>
      </trkpt>
      <trkpt lat="45.21588" lon="5.89808">
        <ele>740.19</ele>
        <time>2022-07-02T13:38:48.000Z</time>
      </trkpt>
      <trkpt lat="45.21558" lon="5.89788">
        <ele>739.23</ele>
        <time>2022-07-02T13:38:53.000Z</time>
      </trkpt>
      <trkpt lat="45.21529" lon="5.89766">
        <ele>741.41</ele>
        <time>2022-07-02T13:38:58.000Z</time>
      </trkpt>
      <trkpt lat="45.21498" lon="5.89747">
        <ele>743.56</ele>
        <time>2022-07-02T13:39:03.000Z</time>
      </trkpt>
      <trkpt lat="45.21468" lon="5.89732">
        <ele>747.28</ele>
        <time>2022-07-02T13:39:08.000Z</time>
      </trkpt>
      <trkpt lat="45.21438" lon="5.89725">
        <ele>749.85</ele>
        <time>2022-07-02T13:39:13.000Z</time>
      </trkpt>
      <trkpt lat="45.21405" lon="5.8973">
        <ele>750.51</ele>
        <time>2022-07-02T13:39:18.000Z</time>
      </trkpt>
      <trkpt lat="45.21375" lon="5.89742">
        <ele>749.19</ele>
        <time>2022-07-02T13:39:23.000Z</time>
      </trkpt>
      <trkpt lat="45.21344" lon="5.8976">
        <ele>749.99</ele>
        <time>2022-07-02T13:39:28.000Z</time>
      </trkpt>
      <trkpt lat="45.21313" lon="5.89779">
        <ele>749.61</ele>
        <time>2022-07-02T13:39:33.000Z</time>
      </trkpt>
      <trkpt lat="45.21287" lon="5.89789">
        <ele>751.16</ele>
        <time>2022-07-02T13:39:38.000Z</time>
      </trkpt>
      <trkpt lat="45.2126" lon="5.89789">
        <ele>753.61</ele>
        <time>2022-07-02T13:39:43.000Z</time>
      </trkpt>
      <trkpt lat="45.21236" lon="5.89793">
        <ele>757.1</ele>
        <time>2022-07-02T13:39:48.000Z</time>
      </trkpt>
      <trkpt lat="45.21227" lon="5.89791">
        <ele>757</ele>
        <time>2022-07-02T13:39:53.000Z</time>
      </trkpt>
      <trkpt lat="45.2122" lon="5.898">
        <ele>764.08</ele>
        <time>2022-07-02T13:41:03.000Z</time>
      </trkpt>
      <trkpt lat="45.21212" lon="5.89795">
        <ele>761.25</ele>
        <time>2022-07-02T13:42:56.000Z</time>
      </trkpt>
      <trkpt lat="45.21198" lon="5.8978">
        <ele>757.41</ele>
        <time>2022-07-02T13:43:01.000Z</time>
      </trkpt>
      <trkpt lat="45.2118" lon="5.89765">
        <ele>757.07</ele>
        <time>2022-07-02T13:43:06.000Z</time>
      </trkpt>
      <trkpt lat="45.21163" lon="5.89756">
        <ele>757.66</ele>
        <time>2022-07-02T13:43:11.000Z</time>
      </trkpt>
      <trkpt lat="45.21145" lon="5.89758">
        <ele>755.8</ele>
        <time>2022-07-02T13:43:16.000Z</time>
      </trkpt>
      <trkpt lat="45.21128" lon="5.89772">
        <ele>755.86</ele>
        <time>2022-07-02T13:43:21.000Z</time>
      </trkpt>
      <trkpt lat="45.21111" lon="5.89782">
        <ele>756.82</ele>
        <time>2022-07-02T13:43:26.000Z</time>
      </trkpt>
      <trkpt lat="45.21097" lon="5.89784">
        <ele>756.39</ele>
        <time>2022-07-02T13:43:31.000Z</time>
      </trkpt>
      <trkpt lat="45.21084" lon="5.8978">
        <ele>756.78</ele>
        <time>2022-07-02T13:43:36.000Z</time>
      </trkpt>
      <trkpt lat="45.21064" lon="5.89762">
        <ele>756.99</ele>
        <time>2022-07-02T13:43:41.000Z</time>
      </trkpt>
      <trkpt lat="45.21031" lon="5.8977">
        <ele>756.23</ele>
        <time>2022-07-02T13:43:46.000Z</time>
      </trkpt>
      <trkpt lat="45.20998" lon="5.89781">
        <ele>755.63</ele>
        <time>2022-07-02T13:43:51.000Z</time>
      </trkpt>
      <trkpt lat="45.20972" lon="5.89767">
        <ele>757.46</ele>
        <time>2022-07-02T13:43:56.000Z</time>
      </trkpt>
      <trkpt lat="45.20968" lon="5.89738">
        <ele>756.78</ele>
        <time>2022-07-02T13:44:01.000Z</time>
      </trkpt>
      <trkpt lat="45.20983" lon="5.89712">
        <ele>755.87</ele>
        <time>2022-07-02T13:44:06.000Z</time>
      </trkpt>
      <trkpt lat="45.20998" lon="5.89684">
        <ele>751.73</ele>
        <time>2022-07-02T13:44:11.000Z</time>
      </trkpt>
      <trkpt lat="45.21015" lon="5.89658">
        <ele>753.02</ele>
        <time>2022-07-02T13:44:16.000Z</time>
      </trkpt>
      <trkpt lat="45.21023" lon="5.89624">
        <ele>751.79</ele>
        <time>2022-07-02T13:44:21.000Z</time>
      </trkpt>
      <trkpt lat="45.21022" lon="5.89588">
        <ele>750.56</ele>
        <time>2022-07-02T13:44:26.000Z</time>
      </trkpt>
      <trkpt lat="45.21022" lon="5.89546">
        <ele>752.81</ele>
        <time>2022-07-02T13:44:31.000Z</time>
      </trkpt>
      <trkpt lat="45.21021" lon="5.89509">
        <ele>752.28</ele>
        <time>2022-07-02T13:44:36.000Z</time>
      </trkpt>
      <trkpt lat="45.21031" lon="5.8947">
        <ele>752.64</ele>
        <time>2022-07-02T13:44:41.000Z</time>
      </trkpt>
      <trkpt lat="45.21045" lon="5.89437">
        <ele>752.97</ele>
        <time>2022-07-02T13:44:46.000Z</time>
      </trkpt>
      <trkpt lat="45.21063" lon="5.89404">
        <ele>753.9</ele>
        <time>2022-07-02T13:44:51.000Z</time>
      </trkpt>
      <trkpt lat="45.21085" lon="5.89368">
        <ele>753.72</ele>
        <time>2022-07-02T13:44:56.000Z</time>
      </trkpt>
      <trkpt lat="45.21109" lon="5.89334">
        <ele>755.14</ele>
        <time>2022-07-02T13:45:01.000Z</time>
      </trkpt>
      <trkpt lat="45.21129" lon="5.89307">
        <ele>755.8</ele>
        <time>2022-07-02T13:45:06.000Z</time>
      </trkpt>
      <trkpt lat="45.21149" lon="5.89302">
        <ele>757.06</ele>
        <time>2022-07-02T13:45:11.000Z</time>
      </trkpt>
      <trkpt lat="45.21174" lon="5.89288">
        <ele>758.1</ele>
        <time>2022-07-02T13:45:16.000Z</time>
      </trkpt>
      <trkpt lat="45.21186" lon="5.89258">
        <ele>755.81</ele>
        <time>2022-07-02T13:45:21.000Z</time>
      </trkpt>
      <trkpt lat="45.21202" lon="5.89226">
        <ele>754.86</ele>
        <time>2022-07-02T13:45:26.000Z</time>
      </trkpt>
      <trkpt lat="45.21204" lon="5.89202">
        <ele>756.08</ele>
        <time>2022-07-02T13:45:31.000Z</time>
      </trkpt>
      <trkpt lat="45.21233" lon="5.89186">
        <ele>758.27</ele>
        <time>2022-07-02T13:45:36.000Z</time>
      </trkpt>
      <trkpt lat="45.21247" lon="5.89177">
        <ele>763.96</ele>
        <time>2022-07-02T13:45:41.000Z</time>
      </trkpt>
      <trkpt lat="45.21263" lon="5.89168">
        <ele>764.63</ele>
        <time>2022-07-02T13:45:46.000Z</time>
      </trkpt>
      <trkpt lat="45.2128" lon="5.89154">
        <ele>743.88</ele>
        <time>2022-07-02T13:45:51.000Z</time>
      </trkpt>
      <trkpt lat="45.21305" lon="5.89127">
        <ele>733.82</ele>
        <time>2022-07-02T13:45:56.000Z</time>
      </trkpt>
      <trkpt lat="45.2133" lon="5.89106">
        <ele>722.96</ele>
        <time>2022-07-02T13:46:01.000Z</time>
      </trkpt>
      <trkpt lat="45.21358" lon="5.89078">
        <ele>699.96</ele>
        <time>2022-07-02T13:46:06.000Z</time>
      </trkpt>
      <trkpt lat="45.21379" lon="5.89056">
        <ele>692.78</ele>
        <time>2022-07-02T13:46:11.000Z</time>
      </trkpt>
      <trkpt lat="45.21403" lon="5.89038">
        <ele>689.69</ele>
        <time>2022-07-02T13:46:16.000Z</time>
      </trkpt>
      <trkpt lat="45.21422" lon="5.89028">
        <ele>690.81</ele>
        <time>2022-07-02T13:46:21.000Z</time>
      </trkpt>
      <trkpt lat="45.21444" lon="5.89021">
        <ele>694.66</ele>
        <time>2022-07-02T13:46:26.000Z</time>
      </trkpt>
      <trkpt lat="45.21465" lon="5.89015">
        <ele>699.61</ele>
        <time>2022-07-02T13:46:31.000Z</time>
      </trkpt>
      <trkpt lat="45.21488" lon="5.88992">
        <ele>694.08</ele>
        <time>2022-07-02T13:46:36.000Z</time>
      </trkpt>
      <trkpt lat="45.2151" lon="5.88977">
        <ele>692.34</ele>
        <time>2022-07-02T13:46:41.000Z</time>
      </trkpt>
      <trkpt lat="45.21531" lon="5.88966">
        <ele>688.98</ele>
        <time>2022-07-02T13:46:46.000Z</time>
      </trkpt>
      <trkpt lat="45.21553" lon="5.88953">
        <ele>688.52</ele>
        <time>2022-07-02T13:46:51.000Z</time>
      </trkpt>
      <trkpt lat="45.21574" lon="5.88946">
        <ele>693.55</ele>
        <time>2022-07-02T13:46:56.000Z</time>
      </trkpt>
      <trkpt lat="45.21598" lon="5.88944">
        <ele>706.58</ele>
        <time>2022-07-02T13:47:01.000Z</time>
      </trkpt>
      <trkpt lat="45.2162" lon="5.88939">
        <ele>720.54</ele>
        <time>2022-07-02T13:47:06.000Z</time>
      </trkpt>
      <trkpt lat="45.21637" lon="5.88925">
        <ele>723.56</ele>
        <time>2022-07-02T13:47:11.000Z</time>
      </trkpt>
      <trkpt lat="45.21658" lon="5.88906">
        <ele>729.4</ele>
        <time>2022-07-02T13:47:16.000Z</time>
      </trkpt>
      <trkpt lat="45.21679" lon="5.88884">
        <ele>732.65</ele>
        <time>2022-07-02T13:47:21.000Z</time>
      </trkpt>
      <trkpt lat="45.21685" lon="5.88858">
        <ele>732.19</ele>
        <time>2022-07-02T13:47:26.000Z</time>
      </trkpt>
      <trkpt lat="45.21681" lon="5.88842">
        <ele>731.3</ele>
        <time>2022-07-02T13:47:31.000Z</time>
      </trkpt>
      <trkpt lat="45.21686" lon="5.88853">
        <ele>758.49</ele>
        <time>2022-07-02T13:50:49.000Z</time>
      </trkpt>
      <trkpt lat="45.21677" lon="5.88854">
        <ele>773.76</ele>
        <time>2022-07-02T13:51:02.000Z</time>
      </trkpt>
      <trkpt lat="45.21666" lon="5.88851">
        <ele>777.84</ele>
        <time>2022-07-02T13:51:08.000Z</time>
      </trkpt>
      <trkpt lat="45.21651" lon="5.88842">
        <ele>776.15</ele>
        <time>2022-07-02T13:51:13.000Z</time>
      </trkpt>
      <trkpt lat="45.21625" lon="5.8883">
        <ele>771.15</ele>
        <time>2022-07-02T13:51:18.000Z</time>
      </trkpt>
      <trkpt lat="45.21592" lon="5.8879">
        <ele>773.57</ele>
        <time>2022-07-02T13:51:23.000Z</time>
      </trkpt>
      <trkpt lat="45.2155" lon="5.88739">
        <ele>773.12</ele>
        <time>2022-07-02T13:51:28.000Z</time>
      </trkpt>
      <trkpt lat="45.21509" lon="5.88675">
        <ele>773.38</ele>
        <time>2022-07-02T13:51:33.000Z</time>
      </trkpt>
      <trkpt lat="45.21477" lon="5.88599">
        <ele>771.78</ele>
        <time>2022-07-02T13:51:38.000Z</time>
      </trkpt>
      <trkpt lat="45.2144" lon="5.88515">
        <ele>770.18</ele>
        <time>2022-07-02T13:51:43.000Z</time>
      </trkpt>
      <trkpt lat="45.2142" lon="5.88422">
        <ele>765.01</ele>
        <time>2022-07-02T13:51:48.000Z</time>
      </trkpt>
      <trkpt lat="45.21411" lon="5.88348">
        <ele>748.83</ele>
        <time>2022-07-02T13:51:53.000Z</time>
      </trkpt>
      <trkpt lat="45.21366" lon="5.88315">
        <ele>744.55</ele>
        <time>2022-07-02T13:51:58.000Z</time>
      </trkpt>
      <trkpt lat="45.21321" lon="5.88342">
        <ele>745.97</ele>
        <time>2022-07-02T13:52:03.000Z</time>
      </trkpt>
      <trkpt lat="45.21271" lon="5.88356">
        <ele>746.12</ele>
        <time>2022-07-02T13:52:08.000Z</time>
      </trkpt>
      <trkpt lat="45.21221" lon="5.88358">
        <ele>745.88</ele>
        <time>2022-07-02T13:52:13.000Z</time>
      </trkpt>
      <trkpt lat="45.21174" lon="5.88353">
        <ele>746.37</ele>
        <time>2022-07-02T13:52:18.000Z</time>
      </trkpt>
      <trkpt lat="45.21131" lon="5.88343">
        <ele>742.51</ele>
        <time>2022-07-02T13:52:23.000Z</time>
      </trkpt>
      <trkpt lat="45.2109" lon="5.88329">
        <ele>740.19</ele>
        <time>2022-07-02T13:52:28.000Z</time>
      </trkpt>
      <trkpt lat="45.21057" lon="5.88303">
        <ele>742.59</ele>
        <time>2022-07-02T13:52:33.000Z</time>
      </trkpt>
      <trkpt lat="45.21021" lon="5.88287">
        <ele>746.59</ele>
        <time>2022-07-02T13:52:38.000Z</time>
      </trkpt>
      <trkpt lat="45.20985" lon="5.88279">
        <ele>744.25</ele>
        <time>2022-07-02T13:52:43.000Z</time>
      </trkpt>
      <trkpt lat="45.20951" lon="5.88267">
        <ele>743.24</ele>
        <time>2022-07-02T13:52:48.000Z</time>
      </trkpt>
      <trkpt lat="45.20915" lon="5.88262">
        <ele>743.83</ele>
        <time>2022-07-02T13:52:53.000Z</time>
      </trkpt>
      <trkpt lat="45.20883" lon="5.88262">
        <ele>742.32</ele>
        <time>2022-07-02T13:52:58.000Z</time>
      </trkpt>
      <trkpt lat="45.20859" lon="5.88271">
        <ele>743.47</ele>
        <time>2022-07-02T13:53:03.000Z</time>
      </trkpt>
      <trkpt lat="45.20853" lon="5.88283">
        <ele>742.53</ele>
        <time>2022-07-02T13:53:11.000Z</time>
      </trkpt>
      <trkpt lat="45.20832" lon="5.88302">
        <ele>742.75</ele>
        <time>2022-07-02T13:53:16.000Z</time>
      </trkpt>
      <trkpt lat="45.20795" lon="5.88318">
        <ele>740.22</ele>
        <time>2022-07-02T13:53:21.000Z</time>
      </trkpt>
      <trkpt lat="45.20753" lon="5.88335">
        <ele>735.2</ele>
        <time>2022-07-02T13:53:26.000Z</time>
      </trkpt>
      <trkpt lat="45.20705" lon="5.88342">
        <ele>730.16</ele>
        <time>2022-07-02T13:53:31.000Z</time>
      </trkpt>
      <trkpt lat="45.20667" lon="5.88299">
        <ele>724.32</ele>
        <time>2022-07-02T13:53:36.000Z</time>
      </trkpt>
      <trkpt lat="45.20635" lon="5.88243">
        <ele>722.19</ele>
        <time>2022-07-02T13:53:41.000Z</time>
      </trkpt>
      <trkpt lat="45.20597" lon="5.88203">
        <ele>718.45</ele>
        <time>2022-07-02T13:53:46.000Z</time>
      </trkpt>
      <trkpt lat="45.20577" lon="5.88154">
        <ele>720.05</ele>
        <time>2022-07-02T13:53:51.000Z</time>
      </trkpt>
      <trkpt lat="45.2055" lon="5.88129">
        <ele>719.11</ele>
        <time>2022-07-02T13:53:56.000Z</time>
      </trkpt>
      <trkpt lat="45.2052" lon="5.88136">
        <ele>717.64</ele>
        <time>2022-07-02T13:54:01.000Z</time>
      </trkpt>
      <trkpt lat="45.20493" lon="5.88145">
        <ele>716.21</ele>
        <time>2022-07-02T13:54:06.000Z</time>
      </trkpt>
      <trkpt lat="45.20468" lon="5.88144">
        <ele>716</ele>
        <time>2022-07-02T13:54:11.000Z</time>
      </trkpt>
      <trkpt lat="45.20441" lon="5.8814">
        <ele>716.59</ele>
        <time>2022-07-02T13:54:16.000Z</time>
      </trkpt>
      <trkpt lat="45.20414" lon="5.88135">
        <ele>719.19</ele>
        <time>2022-07-02T13:54:21.000Z</time>
      </trkpt>
      <trkpt lat="45.20387" lon="5.88132">
        <ele>719.86</ele>
        <time>2022-07-02T13:54:26.000Z</time>
      </trkpt>
      <trkpt lat="45.20364" lon="5.88138">
        <ele>722.46</ele>
        <time>2022-07-02T13:54:31.000Z</time>
      </trkpt>
      <trkpt lat="45.20344" lon="5.88152">
        <ele>721.73</ele>
        <time>2022-07-02T13:54:36.000Z</time>
      </trkpt>
      <trkpt lat="45.20327" lon="5.88169">
        <ele>722.97</ele>
        <time>2022-07-02T13:54:41.000Z</time>
      </trkpt>
      <trkpt lat="45.20311" lon="5.88188">
        <ele>722.19</ele>
        <time>2022-07-02T13:54:46.000Z</time>
      </trkpt>
      <trkpt lat="45.20294" lon="5.88203">
        <ele>724.68</ele>
        <time>2022-07-02T13:54:51.000Z</time>
      </trkpt>
      <trkpt lat="45.20277" lon="5.88214">
        <ele>724.11</ele>
        <time>2022-07-02T13:54:56.000Z</time>
      </trkpt>
      <trkpt lat="45.20259" lon="5.88222">
        <ele>726.02</ele>
        <time>2022-07-02T13:55:01.000Z</time>
      </trkpt>
      <trkpt lat="45.20242" lon="5.88224">
        <ele>729.28</ele>
        <time>2022-07-02T13:55:06.000Z</time>
      </trkpt>
      <trkpt lat="45.20227" lon="5.88219">
        <ele>731.46</ele>
        <time>2022-07-02T13:55:11.000Z</time>
      </trkpt>
      <trkpt lat="45.2021" lon="5.88209">
        <ele>730.18</ele>
        <time>2022-07-02T13:55:16.000Z</time>
      </trkpt>
      <trkpt lat="45.20195" lon="5.88196">
        <ele>732.07</ele>
        <time>2022-07-02T13:55:21.000Z</time>
      </trkpt>
      <trkpt lat="45.20191" lon="5.88184">
        <ele>738.16</ele>
        <time>2022-07-02T13:55:41.000Z</time>
      </trkpt>
      <trkpt lat="45.20182" lon="5.88177">
        <ele>738.77</ele>
        <time>2022-07-02T13:55:50.000Z</time>
      </trkpt>
      <trkpt lat="45.2017" lon="5.8816">
        <ele>740.47</ele>
        <time>2022-07-02T13:55:55.000Z</time>
      </trkpt>
      <trkpt lat="45.20159" lon="5.88141">
        <ele>738.64</ele>
        <time>2022-07-02T13:56:00.000Z</time>
      </trkpt>
      <trkpt lat="45.20153" lon="5.88124">
        <ele>739.52</ele>
        <time>2022-07-02T13:56:05.000Z</time>
      </trkpt>
      <trkpt lat="45.20148" lon="5.88101">
        <ele>742.34</ele>
        <time>2022-07-02T13:56:10.000Z</time>
      </trkpt>
      <trkpt lat="45.20149" lon="5.88083">
        <ele>742.65</ele>
        <time>2022-07-02T13:56:15.000Z</time>
      </trkpt>
      <trkpt lat="45.20152" lon="5.8807">
        <ele>742.31</ele>
        <time>2022-07-02T13:56:20.000Z</time>
      </trkpt>
      <trkpt lat="45.20154" lon="5.88055">
        <ele>738.54</ele>
        <time>2022-07-02T13:56:26.000Z</time>
      </trkpt>
      <trkpt lat="45.20157" lon="5.88038">
        <ele>739.38</ele>
        <time>2022-07-02T13:56:31.000Z</time>
      </trkpt>
      <trkpt lat="45.20152" lon="5.88018">
        <ele>741.59</ele>
        <time>2022-07-02T13:56:36.000Z</time>
      </trkpt>
      <trkpt lat="45.20147" lon="5.87999">
        <ele>746.1</ele>
        <time>2022-07-02T13:56:41.000Z</time>
      </trkpt>
      <trkpt lat="45.2014" lon="5.87983">
        <ele>745.46</ele>
        <time>2022-07-02T13:56:46.000Z</time>
      </trkpt>
      <trkpt lat="45.20135" lon="5.87962">
        <ele>749.89</ele>
        <time>2022-07-02T13:56:51.000Z</time>
      </trkpt>
      <trkpt lat="45.20132" lon="5.87943">
        <ele>752.61</ele>
        <time>2022-07-02T13:56:56.000Z</time>
      </trkpt>
      <trkpt lat="45.20129" lon="5.87924">
        <ele>755.08</ele>
        <time>2022-07-02T13:57:01.000Z</time>
      </trkpt>
      <trkpt lat="45.20127" lon="5.87905">
        <ele>754.86</ele>
        <time>2022-07-02T13:57:06.000Z</time>
      </trkpt>
      <trkpt lat="45.20124" lon="5.87887">
        <ele>758.35</ele>
        <time>2022-07-02T13:57:11.000Z</time>
      </trkpt>
      <trkpt lat="45.20122" lon="5.87869">
        <ele>758.34</ele>
        <time>2022-07-02T13:57:16.000Z</time>
      </trkpt>
      <trkpt lat="45.2012" lon="5.87854">
        <ele>759.91</ele>
        <time>2022-07-02T13:57:21.000Z</time>
      </trkpt>
      <trkpt lat="45.20118" lon="5.87836">
        <ele>761.52</ele>
        <time>2022-07-02T13:57:26.000Z</time>
      </trkpt>
      <trkpt lat="45.20118" lon="5.87816">
        <ele>762.85</ele>
        <time>2022-07-02T13:57:31.000Z</time>
      </trkpt>
      <trkpt lat="45.20119" lon="5.87798">
        <ele>767.56</ele>
        <time>2022-07-02T13:57:36.000Z</time>
      </trkpt>
      <trkpt lat="45.20122" lon="5.87779">
        <ele>767.55</ele>
        <time>2022-07-02T13:57:41.000Z</time>
      </trkpt>
      <trkpt lat="45.20124" lon="5.8776">
        <ele>770.35</ele>
        <time>2022-07-02T13:57:46.000Z</time>
      </trkpt>
      <trkpt lat="45.2013" lon="5.87743">
        <ele>770.26</ele>
        <time>2022-07-02T13:57:51.000Z</time>
      </trkpt>
      <trkpt lat="45.20135" lon="5.87723">
        <ele>771.48</ele>
        <time>2022-07-02T13:57:56.000Z</time>
      </trkpt>
      <trkpt lat="45.20136" lon="5.87707">
        <ele>769.4</ele>
        <time>2022-07-02T13:58:01.000Z</time>
      </trkpt>
      <trkpt lat="45.20137" lon="5.87692">
        <ele>771.9</ele>
        <time>2022-07-02T13:58:07.000Z</time>
      </trkpt>
      <trkpt lat="45.20143" lon="5.87682">
        <ele>772</ele>
        <time>2022-07-02T13:58:12.000Z</time>
      </trkpt>
      <trkpt lat="45.20145" lon="5.87667">
        <ele>775.27</ele>
        <time>2022-07-02T13:58:17.000Z</time>
      </trkpt>
      <trkpt lat="45.20144" lon="5.87647">
        <ele>776.78</ele>
        <time>2022-07-02T13:58:22.000Z</time>
      </trkpt>
      <trkpt lat="45.20141" lon="5.87628">
        <ele>772.25</ele>
        <time>2022-07-02T13:58:27.000Z</time>
      </trkpt>
      <trkpt lat="45.20134" lon="5.87608">
        <ele>771.56</ele>
        <time>2022-07-02T13:58:32.000Z</time>
      </trkpt>
      <trkpt lat="45.20125" lon="5.87588">
        <ele>773.61</ele>
        <time>2022-07-02T13:58:37.000Z</time>
      </trkpt>
      <trkpt lat="45.20116" lon="5.87571">
        <ele>774.46</ele>
        <time>2022-07-02T13:58:42.000Z</time>
      </trkpt>
      <trkpt lat="45.20107" lon="5.87553">
        <ele>775.63</ele>
        <time>2022-07-02T13:58:47.000Z</time>
      </trkpt>
      <trkpt lat="45.20104" lon="5.87535">
        <ele>775.56</ele>
        <time>2022-07-02T13:58:52.000Z</time>
      </trkpt>
      <trkpt lat="45.20105" lon="5.87514">
        <ele>775.95</ele>
        <time>2022-07-02T13:58:57.000Z</time>
      </trkpt>
      <trkpt lat="45.20108" lon="5.87496">
        <ele>778.61</ele>
        <time>2022-07-02T13:59:02.000Z</time>
      </trkpt>
      <trkpt lat="45.20111" lon="5.87481">
        <ele>782.1</ele>
        <time>2022-07-02T13:59:07.000Z</time>
      </trkpt>
      <trkpt lat="45.20118" lon="5.87465">
        <ele>781.53</ele>
        <time>2022-07-02T13:59:12.000Z</time>
      </trkpt>
      <trkpt lat="45.20126" lon="5.87448">
        <ele>783.36</ele>
        <time>2022-07-02T13:59:17.000Z</time>
      </trkpt>
      <trkpt lat="45.20137" lon="5.87432">
        <ele>785.94</ele>
        <time>2022-07-02T13:59:22.000Z</time>
      </trkpt>
      <trkpt lat="45.20147" lon="5.87417">
        <ele>787.7</ele>
        <time>2022-07-02T13:59:27.000Z</time>
      </trkpt>
      <trkpt lat="45.20155" lon="5.87401">
        <ele>790.58</ele>
        <time>2022-07-02T13:59:32.000Z</time>
      </trkpt>
      <trkpt lat="45.20158" lon="5.87382">
        <ele>790.33</ele>
        <time>2022-07-02T13:59:37.000Z</time>
      </trkpt>
      <trkpt lat="45.20155" lon="5.87362">
        <ele>788.87</ele>
        <time>2022-07-02T13:59:42.000Z</time>
      </trkpt>
      <trkpt lat="45.20151" lon="5.87343">
        <ele>788.17</ele>
        <time>2022-07-02T13:59:47.000Z</time>
      </trkpt>
      <trkpt lat="45.20144" lon="5.87325">
        <ele>791.66</ele>
        <time>2022-07-02T13:59:52.000Z</time>
      </trkpt>
      <trkpt lat="45.20141" lon="5.87307">
        <ele>795.27</ele>
        <time>2022-07-02T13:59:57.000Z</time>
      </trkpt>
      <trkpt lat="45.20134" lon="5.87287">
        <ele>796.32</ele>
        <time>2022-07-02T14:00:02.000Z</time>
      </trkpt>
      <trkpt lat="45.20127" lon="5.87267">
        <ele>798.65</ele>
        <time>2022-07-02T14:00:07.000Z</time>
      </trkpt>
      <trkpt lat="45.20119" lon="5.8725">
        <ele>798.95</ele>
        <time>2022-07-02T14:00:12.000Z</time>
      </trkpt>
      <trkpt lat="45.20112" lon="5.87234">
        <ele>796.95</ele>
        <time>2022-07-02T14:00:17.000Z</time>
      </trkpt>
      <trkpt lat="45.20105" lon="5.87221">
        <ele>799.97</ele>
        <time>2022-07-02T14:00:22.000Z</time>
      </trkpt>
      <trkpt lat="45.20094" lon="5.87201">
        <ele>801.69</ele>
        <time>2022-07-02T14:00:27.000Z</time>
      </trkpt>
      <trkpt lat="45.20087" lon="5.87187">
        <ele>804</ele>
        <time>2022-07-02T14:00:32.000Z</time>
      </trkpt>
      <trkpt lat="45.20081" lon="5.87171">
        <ele>804.5</ele>
        <time>2022-07-02T14:00:37.000Z</time>
      </trkpt>
      <trkpt lat="45.20072" lon="5.87156">
        <ele>803.9</ele>
        <time>2022-07-02T14:00:42.000Z</time>
      </trkpt>
      <trkpt lat="45.20068" lon="5.87138">
        <ele>800.77</ele>
        <time>2022-07-02T14:00:47.000Z</time>
      </trkpt>
      <trkpt lat="45.20064" lon="5.87118">
        <ele>801.59</ele>
        <time>2022-07-02T14:00:52.000Z</time>
      </trkpt>
      <trkpt lat="45.20056" lon="5.87099">
        <ele>803.49</ele>
        <time>2022-07-02T14:00:57.000Z</time>
      </trkpt>
      <trkpt lat="45.20065" lon="5.87089">
        <ele>803.17</ele>
        <time>2022-07-02T14:01:03.000Z</time>
      </trkpt>
      <trkpt lat="45.20079" lon="5.87076">
        <ele>801.33</ele>
        <time>2022-07-02T14:01:08.000Z</time>
      </trkpt>
      <trkpt lat="45.2007" lon="5.87078">
        <ele>806.21</ele>
        <time>2022-07-02T14:01:21.000Z</time>
      </trkpt>
      <trkpt lat="45.20069" lon="5.87059">
        <ele>807.55</ele>
        <time>2022-07-02T14:01:26.000Z</time>
      </trkpt>
      <trkpt lat="45.2007" lon="5.87044">
        <ele>805.9</ele>
        <time>2022-07-02T14:01:31.000Z</time>
      </trkpt>
      <trkpt lat="45.20074" lon="5.87024">
        <ele>806.89</ele>
        <time>2022-07-02T14:01:36.000Z</time>
      </trkpt>
      <trkpt lat="45.20076" lon="5.87011">
        <ele>808.47</ele>
        <time>2022-07-02T14:01:41.000Z</time>
      </trkpt>
      <trkpt lat="45.20076" lon="5.86994">
        <ele>808.33</ele>
        <time>2022-07-02T14:01:46.000Z</time>
      </trkpt>
      <trkpt lat="45.20076" lon="5.86977">
        <ele>808.85</ele>
        <time>2022-07-02T14:01:51.000Z</time>
      </trkpt>
      <trkpt lat="45.20079" lon="5.86962">
        <ele>808.33</ele>
        <time>2022-07-02T14:01:56.000Z</time>
      </trkpt>
      <trkpt lat="45.20081" lon="5.86943">
        <ele>810.15</ele>
        <time>2022-07-02T14:02:01.000Z</time>
      </trkpt>
      <trkpt lat="45.2008" lon="5.86926">
        <ele>810.57</ele>
        <time>2022-07-02T14:02:06.000Z</time>
      </trkpt>
      <trkpt lat="45.20084" lon="5.86907">
        <ele>808.26</ele>
        <time>2022-07-02T14:02:11.000Z</time>
      </trkpt>
      <trkpt lat="45.20081" lon="5.86886">
        <ele>808.26</ele>
        <time>2022-07-02T14:02:16.000Z</time>
      </trkpt>
      <trkpt lat="45.20073" lon="5.86866">
        <ele>808.87</ele>
        <time>2022-07-02T14:02:21.000Z</time>
      </trkpt>
      <trkpt lat="45.20066" lon="5.86845">
        <ele>813.17</ele>
        <time>2022-07-02T14:02:26.000Z</time>
      </trkpt>
      <trkpt lat="45.20056" lon="5.86826">
        <ele>813.93</ele>
        <time>2022-07-02T14:02:31.000Z</time>
      </trkpt>
      <trkpt lat="45.20045" lon="5.86807">
        <ele>817.68</ele>
        <time>2022-07-02T14:02:36.000Z</time>
      </trkpt>
      <trkpt lat="45.20036" lon="5.8679">
        <ele>820.6</ele>
        <time>2022-07-02T14:02:41.000Z</time>
      </trkpt>
      <trkpt lat="45.20025" lon="5.86769">
        <ele>822.36</ele>
        <time>2022-07-02T14:02:46.000Z</time>
      </trkpt>
      <trkpt lat="45.20015" lon="5.86751">
        <ele>821.81</ele>
        <time>2022-07-02T14:02:51.000Z</time>
      </trkpt>
      <trkpt lat="45.20007" lon="5.86737">
        <ele>823.21</ele>
        <time>2022-07-02T14:02:56.000Z</time>
      </trkpt>
      <trkpt lat="45.19997" lon="5.86724">
        <ele>823.52</ele>
        <time>2022-07-02T14:03:01.000Z</time>
      </trkpt>
      <trkpt lat="45.19986" lon="5.8672">
        <ele>824.62</ele>
        <time>2022-07-02T14:03:06.000Z</time>
      </trkpt>
      <trkpt lat="45.19976" lon="5.86716">
        <ele>825.38</ele>
        <time>2022-07-02T14:03:11.000Z</time>
      </trkpt>
      <trkpt lat="45.19965" lon="5.86718">
        <ele>826.25</ele>
        <time>2022-07-02T14:05:25.000Z</time>
      </trkpt>
      <trkpt lat="45.19953" lon="5.8672">
        <ele>827.41</ele>
        <time>2022-07-02T14:05:30.000Z</time>
      </trkpt>
      <trkpt lat="45.19939" lon="5.86722">
        <ele>831.59</ele>
        <time>2022-07-02T14:05:35.000Z</time>
      </trkpt>
      <trkpt lat="45.19923" lon="5.86728">
        <ele>831.63</ele>
        <time>2022-07-02T14:05:40.000Z</time>
      </trkpt>
      <trkpt lat="45.19909" lon="5.86727">
        <ele>833.71</ele>
        <time>2022-07-02T14:05:45.000Z</time>
      </trkpt>
      <trkpt lat="45.19895" lon="5.86724">
        <ele>834.25</ele>
        <time>2022-07-02T14:05:50.000Z</time>
      </trkpt>
      <trkpt lat="45.19881" lon="5.86726">
        <ele>835.1</ele>
        <time>2022-07-02T14:05:55.000Z</time>
      </trkpt>
      <trkpt lat="45.19865" lon="5.86727">
        <ele>834.93</ele>
        <time>2022-07-02T14:06:00.000Z</time>
      </trkpt>
      <trkpt lat="45.19849" lon="5.86724">
        <ele>835.49</ele>
        <time>2022-07-02T14:06:05.000Z</time>
      </trkpt>
      <trkpt lat="45.19834" lon="5.86724">
        <ele>838.98</ele>
        <time>2022-07-02T14:06:10.000Z</time>
      </trkpt>
      <trkpt lat="45.1982" lon="5.86721">
        <ele>838.72</ele>
        <time>2022-07-02T14:06:15.000Z</time>
      </trkpt>
      <trkpt lat="45.19803" lon="5.86719">
        <ele>839.53</ele>
        <time>2022-07-02T14:06:20.000Z</time>
      </trkpt>
      <trkpt lat="45.19789" lon="5.86718">
        <ele>841.56</ele>
        <time>2022-07-02T14:06:25.000Z</time>
      </trkpt>
      <trkpt lat="45.19774" lon="5.86716">
        <ele>843.58</ele>
        <time>2022-07-02T14:06:30.000Z</time>
      </trkpt>
      <trkpt lat="45.1976" lon="5.86714">
        <ele>844.32</ele>
        <time>2022-07-02T14:06:35.000Z</time>
      </trkpt>
      <trkpt lat="45.19745" lon="5.86715">
        <ele>845.76</ele>
        <time>2022-07-02T14:06:40.000Z</time>
      </trkpt>
      <trkpt lat="45.19731" lon="5.86722">
        <ele>847.17</ele>
        <time>2022-07-02T14:06:45.000Z</time>
      </trkpt>
      <trkpt lat="45.19721" lon="5.86737">
        <ele>850.32</ele>
        <time>2022-07-02T14:06:50.000Z</time>
      </trkpt>
      <trkpt lat="45.19715" lon="5.86758">
        <ele>851.11</ele>
        <time>2022-07-02T14:06:55.000Z</time>
      </trkpt>
      <trkpt lat="45.19715" lon="5.86782">
        <ele>850.1</ele>
        <time>2022-07-02T14:07:00.000Z</time>
      </trkpt>
      <trkpt lat="45.19718" lon="5.86805">
        <ele>851.75</ele>
        <time>2022-07-02T14:07:05.000Z</time>
      </trkpt>
      <trkpt lat="45.19715" lon="5.86824">
        <ele>854.11</ele>
        <time>2022-07-02T14:07:10.000Z</time>
      </trkpt>
      <trkpt lat="45.19707" lon="5.86843">
        <ele>856.16</ele>
        <time>2022-07-02T14:07:15.000Z</time>
      </trkpt>
      <trkpt lat="45.19692" lon="5.86853">
        <ele>857</ele>
        <time>2022-07-02T14:07:20.000Z</time>
      </trkpt>
      <trkpt lat="45.19675" lon="5.86857">
        <ele>861.57</ele>
        <time>2022-07-02T14:07:25.000Z</time>
      </trkpt>
      <trkpt lat="45.19659" lon="5.86857">
        <ele>862.88</ele>
        <time>2022-07-02T14:07:30.000Z</time>
      </trkpt>
      <trkpt lat="45.19643" lon="5.86855">
        <ele>864.75</ele>
        <time>2022-07-02T14:07:35.000Z</time>
      </trkpt>
      <trkpt lat="45.19627" lon="5.86854">
        <ele>863.68</ele>
        <time>2022-07-02T14:07:40.000Z</time>
      </trkpt>
      <trkpt lat="45.1961" lon="5.86853">
        <ele>861.87</ele>
        <time>2022-07-02T14:07:45.000Z</time>
      </trkpt>
      <trkpt lat="45.19595" lon="5.86852">
        <ele>862.63</ele>
        <time>2022-07-02T14:07:50.000Z</time>
      </trkpt>
      <trkpt lat="45.19578" lon="5.86854">
        <ele>864.96</ele>
        <time>2022-07-02T14:07:55.000Z</time>
      </trkpt>
      <trkpt lat="45.19562" lon="5.86854">
        <ele>865.39</ele>
        <time>2022-07-02T14:08:00.000Z</time>
      </trkpt>
      <trkpt lat="45.19545" lon="5.86861">
        <ele>864.43</ele>
        <time>2022-07-02T14:08:05.000Z</time>
      </trkpt>
      <trkpt lat="45.19531" lon="5.86874">
        <ele>866.79</ele>
        <time>2022-07-02T14:08:10.000Z</time>
      </trkpt>
      <trkpt lat="45.19524" lon="5.8689">
        <ele>868.49</ele>
        <time>2022-07-02T14:08:15.000Z</time>
      </trkpt>
      <trkpt lat="45.19526" lon="5.86906">
        <ele>868.11</ele>
        <time>2022-07-02T14:09:09.000Z</time>
      </trkpt>
      <trkpt lat="45.19525" lon="5.86924">
        <ele>868.72</ele>
        <time>2022-07-02T14:09:14.000Z</time>
      </trkpt>
      <trkpt lat="45.19528" lon="5.8694">
        <ele>868.51</ele>
        <time>2022-07-02T14:09:19.000Z</time>
      </trkpt>
      <trkpt lat="45.1953" lon="5.86959">
        <ele>872.61</ele>
        <time>2022-07-02T14:09:24.000Z</time>
      </trkpt>
      <trkpt lat="45.19531" lon="5.8698">
        <ele>871.4</ele>
        <time>2022-07-02T14:09:29.000Z</time>
      </trkpt>
      <trkpt lat="45.19534" lon="5.86998">
        <ele>871.46</ele>
        <time>2022-07-02T14:09:34.000Z</time>
      </trkpt>
      <trkpt lat="45.1954" lon="5.87016">
        <ele>872.15</ele>
        <time>2022-07-02T14:09:39.000Z</time>
      </trkpt>
      <trkpt lat="45.19547" lon="5.87035">
        <ele>872.97</ele>
        <time>2022-07-02T14:09:44.000Z</time>
      </trkpt>
      <trkpt lat="45.19557" lon="5.87054">
        <ele>874.66</ele>
        <time>2022-07-02T14:09:49.000Z</time>
      </trkpt>
      <trkpt lat="45.19565" lon="5.87069">
        <ele>877.04</ele>
        <time>2022-07-02T14:09:54.000Z</time>
      </trkpt>
      <trkpt lat="45.19574" lon="5.87084">
        <ele>878.12</ele>
        <time>2022-07-02T14:09:59.000Z</time>
      </trkpt>
      <trkpt lat="45.19584" lon="5.87097">
        <ele>878.21</ele>
        <time>2022-07-02T14:10:04.000Z</time>
      </trkpt>
      <trkpt lat="45.19595" lon="5.87112">
        <ele>876.43</ele>
        <time>2022-07-02T14:10:09.000Z</time>
      </trkpt>
      <trkpt lat="45.19606" lon="5.87126">
        <ele>876.9</ele>
        <time>2022-07-02T14:10:14.000Z</time>
      </trkpt>
      <trkpt lat="45.19617" lon="5.87142">
        <ele>875.94</ele>
        <time>2022-07-02T14:10:19.000Z</time>
      </trkpt>
      <trkpt lat="45.19629" lon="5.87157">
        <ele>875.05</ele>
        <time>2022-07-02T14:10:24.000Z</time>
      </trkpt>
      <trkpt lat="45.19638" lon="5.8717">
        <ele>875.81</ele>
        <time>2022-07-02T14:10:29.000Z</time>
      </trkpt>
      <trkpt lat="45.19648" lon="5.87185">
        <ele>877.46</ele>
        <time>2022-07-02T14:10:34.000Z</time>
      </trkpt>
      <trkpt lat="45.1966" lon="5.87205">
        <ele>878.78</ele>
        <time>2022-07-02T14:10:39.000Z</time>
      </trkpt>
      <trkpt lat="45.19671" lon="5.87231">
        <ele>881.16</ele>
        <time>2022-07-02T14:10:44.000Z</time>
      </trkpt>
      <trkpt lat="45.19675" lon="5.87261">
        <ele>877.83</ele>
        <time>2022-07-02T14:10:49.000Z</time>
      </trkpt>
      <trkpt lat="45.19676" lon="5.87297">
        <ele>875.42</ele>
        <time>2022-07-02T14:10:54.000Z</time>
      </trkpt>
      <trkpt lat="45.19679" lon="5.87336">
        <ele>876.43</ele>
        <time>2022-07-02T14:10:59.000Z</time>
      </trkpt>
      <trkpt lat="45.1968" lon="5.87371">
        <ele>872.43</ele>
        <time>2022-07-02T14:11:04.000Z</time>
      </trkpt>
      <trkpt lat="45.19682" lon="5.87408">
        <ele>872.22</ele>
        <time>2022-07-02T14:11:09.000Z</time>
      </trkpt>
      <trkpt lat="45.19681" lon="5.87447">
        <ele>870.47</ele>
        <time>2022-07-02T14:11:14.000Z</time>
      </trkpt>
      <trkpt lat="45.19679" lon="5.87481">
        <ele>874.07</ele>
        <time>2022-07-02T14:11:19.000Z</time>
      </trkpt>
      <trkpt lat="45.19667" lon="5.87511">
        <ele>873.64</ele>
        <time>2022-07-02T14:11:24.000Z</time>
      </trkpt>
      <trkpt lat="45.19652" lon="5.87533">
        <ele>874.65</ele>
        <time>2022-07-02T14:11:29.000Z</time>
      </trkpt>
      <trkpt lat="45.19639" lon="5.87551">
        <ele>876.1</ele>
        <time>2022-07-02T14:11:34.000Z</time>
      </trkpt>
      <trkpt lat="45.19628" lon="5.87565">
        <ele>876.94</ele>
        <time>2022-07-02T14:11:39.000Z</time>
      </trkpt>
      <trkpt lat="45.19617" lon="5.87579">
        <ele>880.5</ele>
        <time>2022-07-02T14:11:44.000Z</time>
      </trkpt>
      <trkpt lat="45.19606" lon="5.8759">
        <ele>880.65</ele>
        <time>2022-07-02T14:11:49.000Z</time>
      </trkpt>
      <trkpt lat="45.19595" lon="5.87602">
        <ele>883.44</ele>
        <time>2022-07-02T14:11:54.000Z</time>
      </trkpt>
      <trkpt lat="45.19585" lon="5.87616">
        <ele>883.36</ele>
        <time>2022-07-02T14:11:59.000Z</time>
      </trkpt>
      <trkpt lat="45.19573" lon="5.87628">
        <ele>883.31</ele>
        <time>2022-07-02T14:12:04.000Z</time>
      </trkpt>
      <trkpt lat="45.19561" lon="5.87641">
        <ele>883.7</ele>
        <time>2022-07-02T14:12:09.000Z</time>
      </trkpt>
      <trkpt lat="45.19548" lon="5.87654">
        <ele>882.08</ele>
        <time>2022-07-02T14:12:14.000Z</time>
      </trkpt>
      <trkpt lat="45.19533" lon="5.87663">
        <ele>881.12</ele>
        <time>2022-07-02T14:12:19.000Z</time>
      </trkpt>
      <trkpt lat="45.19517" lon="5.87666">
        <ele>880.34</ele>
        <time>2022-07-02T14:12:24.000Z</time>
      </trkpt>
      <trkpt lat="45.19501" lon="5.87668">
        <ele>880.7</ele>
        <time>2022-07-02T14:12:29.000Z</time>
      </trkpt>
      <trkpt lat="45.19486" lon="5.87668">
        <ele>882.5</ele>
        <time>2022-07-02T14:12:34.000Z</time>
      </trkpt>
      <trkpt lat="45.19471" lon="5.87669">
        <ele>882.1</ele>
        <time>2022-07-02T14:12:39.000Z</time>
      </trkpt>
      <trkpt lat="45.19454" lon="5.87672">
        <ele>876.81</ele>
        <time>2022-07-02T14:12:44.000Z</time>
      </trkpt>
      <trkpt lat="45.19436" lon="5.8767">
        <ele>880.98</ele>
        <time>2022-07-02T14:12:49.000Z</time>
      </trkpt>
      <trkpt lat="45.19417" lon="5.87667">
        <ele>886</ele>
        <time>2022-07-02T14:12:54.000Z</time>
      </trkpt>
      <trkpt lat="45.194" lon="5.87663">
        <ele>889.36</ele>
        <time>2022-07-02T14:12:59.000Z</time>
      </trkpt>
      <trkpt lat="45.1938" lon="5.87666">
        <ele>892.61</ele>
        <time>2022-07-02T14:13:04.000Z</time>
      </trkpt>
      <trkpt lat="45.19361" lon="5.87683">
        <ele>893.84</ele>
        <time>2022-07-02T14:13:09.000Z</time>
      </trkpt>
      <trkpt lat="45.19351" lon="5.8771">
        <ele>896.6</ele>
        <time>2022-07-02T14:13:14.000Z</time>
      </trkpt>
      <trkpt lat="45.19349" lon="5.87733">
        <ele>894.84</ele>
        <time>2022-07-02T14:13:19.000Z</time>
      </trkpt>
      <trkpt lat="45.19348" lon="5.87749">
        <ele>892.47</ele>
        <time>2022-07-02T14:13:24.000Z</time>
      </trkpt>
      <trkpt lat="45.19347" lon="5.8777">
        <ele>894.79</ele>
        <time>2022-07-02T14:13:29.000Z</time>
      </trkpt>
      <trkpt lat="45.19344" lon="5.87799">
        <ele>893.53</ele>
        <time>2022-07-02T14:13:34.000Z</time>
      </trkpt>
      <trkpt lat="45.19343" lon="5.8784">
        <ele>893</ele>
        <time>2022-07-02T14:13:39.000Z</time>
      </trkpt>
      <trkpt lat="45.19343" lon="5.87883">
        <ele>892.12</ele>
        <time>2022-07-02T14:13:44.000Z</time>
      </trkpt>
      <trkpt lat="45.19359" lon="5.87929">
        <ele>890.28</ele>
        <time>2022-07-02T14:13:49.000Z</time>
      </trkpt>
      <trkpt lat="45.1938" lon="5.87971">
        <ele>887.46</ele>
        <time>2022-07-02T14:13:54.000Z</time>
      </trkpt>
      <trkpt lat="45.19409" lon="5.88011">
        <ele>886.98</ele>
        <time>2022-07-02T14:13:59.000Z</time>
      </trkpt>
      <trkpt lat="45.19429" lon="5.88074">
        <ele>884.22</ele>
        <time>2022-07-02T14:14:04.000Z</time>
      </trkpt>
      <trkpt lat="45.19427" lon="5.88143">
        <ele>881.37</ele>
        <time>2022-07-02T14:14:09.000Z</time>
      </trkpt>
      <trkpt lat="45.19407" lon="5.88197">
        <ele>880.06</ele>
        <time>2022-07-02T14:14:14.000Z</time>
      </trkpt>
      <trkpt lat="45.19388" lon="5.88242">
        <ele>875.23</ele>
        <time>2022-07-02T14:14:19.000Z</time>
      </trkpt>
      <trkpt lat="45.19384" lon="5.88292">
        <ele>874.27</ele>
        <time>2022-07-02T14:14:24.000Z</time>
      </trkpt>
      <trkpt lat="45.19375" lon="5.88357">
        <ele>870.47</ele>
        <time>2022-07-02T14:14:29.000Z</time>
      </trkpt>
      <trkpt lat="45.19348" lon="5.8842">
        <ele>868.85</ele>
        <time>2022-07-02T14:14:34.000Z</time>
      </trkpt>
      <trkpt lat="45.19291" lon="5.88443">
        <ele>867.49</ele>
        <time>2022-07-02T14:14:39.000Z</time>
      </trkpt>
      <trkpt lat="45.19229" lon="5.88464">
        <ele>863.41</ele>
        <time>2022-07-02T14:14:44.000Z</time>
      </trkpt>
      <trkpt lat="45.19166" lon="5.88472">
        <ele>854.47</ele>
        <time>2022-07-02T14:14:49.000Z</time>
      </trkpt>
      <trkpt lat="45.191" lon="5.88461">
        <ele>849.97</ele>
        <time>2022-07-02T14:14:54.000Z</time>
      </trkpt>
      <trkpt lat="45.19033" lon="5.88455">
        <ele>847.87</ele>
        <time>2022-07-02T14:14:59.000Z</time>
      </trkpt>
      <trkpt lat="45.18963" lon="5.88463">
        <ele>844.77</ele>
        <time>2022-07-02T14:15:04.000Z</time>
      </trkpt>
      <trkpt lat="45.18898" lon="5.88471">
        <ele>842.36</ele>
        <time>2022-07-02T14:15:09.000Z</time>
      </trkpt>
      <trkpt lat="45.1884" lon="5.88471">
        <ele>838.54</ele>
        <time>2022-07-02T14:15:14.000Z</time>
      </trkpt>
      <trkpt lat="45.18798" lon="5.88422">
        <ele>835.02</ele>
        <time>2022-07-02T14:15:19.000Z</time>
      </trkpt>
      <trkpt lat="45.18768" lon="5.88371">
        <ele>833.05</ele>
        <time>2022-07-02T14:15:24.000Z</time>
      </trkpt>
      <trkpt lat="45.18742" lon="5.88329">
        <ele>831.13</ele>
        <time>2022-07-02T14:15:29.000Z</time>
      </trkpt>
      <trkpt lat="45.18719" lon="5.88286">
        <ele>827.42</ele>
        <time>2022-07-02T14:15:34.000Z</time>
      </trkpt>
      <trkpt lat="45.18705" lon="5.88235">
        <ele>828.74</ele>
        <time>2022-07-02T14:15:39.000Z</time>
      </trkpt>
      <trkpt lat="45.18709" lon="5.88185">
        <ele>822.82</ele>
        <time>2022-07-02T14:15:44.000Z</time>
      </trkpt>
      <trkpt lat="45.18716" lon="5.88123">
        <ele>823.81</ele>
        <time>2022-07-02T14:15:49.000Z</time>
      </trkpt>
      <trkpt lat="45.18713" lon="5.88054">
        <ele>821.77</ele>
        <time>2022-07-02T14:15:54.000Z</time>
      </trkpt>
      <trkpt lat="45.18692" lon="5.87976">
        <ele>815.43</ele>
        <time>2022-07-02T14:15:59.000Z</time>
      </trkpt>
      <trkpt lat="45.18653" lon="5.87903">
        <ele>811.04</ele>
        <time>2022-07-02T14:16:04.000Z</time>
      </trkpt>
      <trkpt lat="45.18598" lon="5.87856">
        <ele>803.85</ele>
        <time>2022-07-02T14:16:09.000Z</time>
      </trkpt>
      <trkpt lat="45.1854" lon="5.87822">
        <ele>794.7</ele>
        <time>2022-07-02T14:16:14.000Z</time>
      </trkpt>
      <trkpt lat="45.18481" lon="5.87792">
        <ele>787.96</ele>
        <time>2022-07-02T14:16:19.000Z</time>
      </trkpt>
      <trkpt lat="45.18423" lon="5.87801">
        <ele>780.85</ele>
        <time>2022-07-02T14:16:24.000Z</time>
      </trkpt>
      <trkpt lat="45.18367" lon="5.87852">
        <ele>773.62</ele>
        <time>2022-07-02T14:16:29.000Z</time>
      </trkpt>
      <trkpt lat="45.18311" lon="5.87913">
        <ele>770.04</ele>
        <time>2022-07-02T14:16:34.000Z</time>
      </trkpt>
      <trkpt lat="45.18275" lon="5.87968">
        <ele>763.61</ele>
        <time>2022-07-02T14:16:39.000Z</time>
      </trkpt>
      <trkpt lat="45.18252" lon="5.88009">
        <ele>758.51</ele>
        <time>2022-07-02T14:16:44.000Z</time>
      </trkpt>
      <trkpt lat="45.18243" lon="5.87996">
        <ele>757</ele>
        <time>2022-07-02T14:16:49.000Z</time>
      </trkpt>
      <trkpt lat="45.18259" lon="5.87945">
        <ele>755.42</ele>
        <time>2022-07-02T14:16:54.000Z</time>
      </trkpt>
      <trkpt lat="45.18259" lon="5.87876">
        <ele>751.86</ele>
        <time>2022-07-02T14:16:59.000Z</time>
      </trkpt>
      <trkpt lat="45.18271" lon="5.87806">
        <ele>746.92</ele>
        <time>2022-07-02T14:17:04.000Z</time>
      </trkpt>
      <trkpt lat="45.18288" lon="5.87748">
        <ele>744.86</ele>
        <time>2022-07-02T14:17:09.000Z</time>
      </trkpt>
      <trkpt lat="45.18295" lon="5.87712">
        <ele>740.3</ele>
        <time>2022-07-02T14:17:14.000Z</time>
      </trkpt>
      <trkpt lat="45.18295" lon="5.87694">
        <ele>732.89</ele>
        <time>2022-07-02T14:17:19.000Z</time>
      </trkpt>
      <trkpt lat="45.18298" lon="5.87662">
        <ele>727.91</ele>
        <time>2022-07-02T14:17:24.000Z</time>
      </trkpt>
      <trkpt lat="45.18305" lon="5.87633">
        <ele>726.92</ele>
        <time>2022-07-02T14:17:29.000Z</time>
      </trkpt>
      <trkpt lat="45.18314" lon="5.87605">
        <ele>726.44</ele>
        <time>2022-07-02T14:17:34.000Z</time>
      </trkpt>
      <trkpt lat="45.18326" lon="5.87569">
        <ele>727.35</ele>
        <time>2022-07-02T14:17:39.000Z</time>
      </trkpt>
      <trkpt lat="45.18333" lon="5.87533">
        <ele>725.2</ele>
        <time>2022-07-02T14:17:44.000Z</time>
      </trkpt>
      <trkpt lat="45.18345" lon="5.87503">
        <ele>728.18</ele>
        <time>2022-07-02T14:17:49.000Z</time>
      </trkpt>
      <trkpt lat="45.18356" lon="5.8747">
        <ele>725.58</ele>
        <time>2022-07-02T14:17:54.000Z</time>
      </trkpt>
      <trkpt lat="45.18372" lon="5.87432">
        <ele>720.96</ele>
        <time>2022-07-02T14:17:59.000Z</time>
      </trkpt>
      <trkpt lat="45.18379" lon="5.87402">
        <ele>716.87</ele>
        <time>2022-07-02T14:18:04.000Z</time>
      </trkpt>
      <trkpt lat="45.18378" lon="5.87386">
        <ele>708.39</ele>
        <time>2022-07-02T14:18:09.000Z</time>
      </trkpt>
      <trkpt lat="45.18372" lon="5.87383">
        <ele>699.28</ele>
        <time>2022-07-02T14:19:35.000Z</time>
      </trkpt>
    </trkseg>
  </trk>
</gpx>